<?xml version="1.0" encoding="UTF-8" standalone="no" ?>
<gpx xmlns="http://www.topografix.com/GPX/1/1" xmlns:xsi="http://www.w3.org/2001/XMLSchema-instance" xsi:schemaLocation="http://www.topografix.com/GPX/1/1 http://www.topografix.com/GPX/1/1/gpx.xsd" version="1.1" creator="VisuGPX - https://www.visugpx.com">
  <metadata>
    <name>Tour des lacs de Belledone</name>
    <desc><![CDATA[Oursière-les lacs]]></desc>
  </metadata>
  <trk>
    <name><![CDATA[2012-06-16-l'oursière]]></name>
    <trkseg>
      <trkpt lat="45.15202" lon="5.88685">
        <ele>1129.5</ele>
        <time>2012-06-16T07:32:27Z</time>
      </trkpt>
      <trkpt lat="45.15202" lon="5.88685">
        <ele>1129.3</ele>
        <time>2012-06-16T07:32:28Z</time>
      </trkpt>
      <trkpt lat="45.15203" lon="5.88698">
        <ele>1129.2</ele>
        <time>2012-06-16T07:33:37Z</time>
      </trkpt>
      <trkpt lat="45.152" lon="5.88719">
        <ele>1129.1</ele>
        <time>2012-06-16T07:33:51Z</time>
      </trkpt>
      <trkpt lat="45.15198" lon="5.8873">
        <ele>1127.9</ele>
        <time>2012-06-16T07:33:58Z</time>
      </trkpt>
      <trkpt lat="45.15196" lon="5.88742">
        <ele>1128.8</ele>
        <time>2012-06-16T07:34:06Z</time>
      </trkpt>
      <trkpt lat="45.15195" lon="5.88755">
        <ele>1128.7</ele>
        <time>2012-06-16T07:34:15Z</time>
      </trkpt>
      <trkpt lat="45.15194" lon="5.88766">
        <ele>1127.8</ele>
        <time>2012-06-16T07:34:22Z</time>
      </trkpt>
      <trkpt lat="45.15191" lon="5.88777">
        <ele>1127.9</ele>
        <time>2012-06-16T07:34:30Z</time>
      </trkpt>
      <trkpt lat="45.15187" lon="5.88788">
        <ele>1128</ele>
        <time>2012-06-16T07:34:38Z</time>
      </trkpt>
      <trkpt lat="45.15187" lon="5.88789">
        <ele>1128</ele>
        <time>2012-06-16T07:34:39Z</time>
      </trkpt>
      <trkpt lat="45.15184" lon="5.88812">
        <ele>1127.4</ele>
        <time>2012-06-16T07:34:58Z</time>
      </trkpt>
      <trkpt lat="45.15182" lon="5.88823">
        <ele>1128.7</ele>
        <time>2012-06-16T07:35:07Z</time>
      </trkpt>
      <trkpt lat="45.15177" lon="5.88833">
        <ele>1128</ele>
        <time>2012-06-16T07:35:16Z</time>
      </trkpt>
      <trkpt lat="45.15172" lon="5.88842">
        <ele>1128.8</ele>
        <time>2012-06-16T07:35:22Z</time>
      </trkpt>
      <trkpt lat="45.15168" lon="5.88852">
        <ele>1130</ele>
        <time>2012-06-16T07:35:29Z</time>
      </trkpt>
      <trkpt lat="45.15162" lon="5.8886">
        <ele>1129.1</ele>
        <time>2012-06-16T07:35:36Z</time>
      </trkpt>
      <trkpt lat="45.15156" lon="5.88868">
        <ele>1129.4</ele>
        <time>2012-06-16T07:35:42Z</time>
      </trkpt>
      <trkpt lat="45.15156" lon="5.8887">
        <ele>1129.4</ele>
        <time>2012-06-16T07:35:43Z</time>
      </trkpt>
      <trkpt lat="45.15144" lon="5.88885">
        <ele>1130.1</ele>
        <time>2012-06-16T07:35:54Z</time>
      </trkpt>
      <trkpt lat="45.15138" lon="5.88892">
        <ele>1130.8</ele>
        <time>2012-06-16T07:36:01Z</time>
      </trkpt>
      <trkpt lat="45.15133" lon="5.889">
        <ele>1131.2</ele>
        <time>2012-06-16T07:36:07Z</time>
      </trkpt>
      <trkpt lat="45.15126" lon="5.88906">
        <ele>1130.9</ele>
        <time>2012-06-16T07:36:13Z</time>
      </trkpt>
      <trkpt lat="45.1512" lon="5.88913">
        <ele>1130.7</ele>
        <time>2012-06-16T07:36:20Z</time>
      </trkpt>
      <trkpt lat="45.15113" lon="5.88922">
        <ele>1131.1</ele>
        <time>2012-06-16T07:36:27Z</time>
      </trkpt>
      <trkpt lat="45.15106" lon="5.88928">
        <ele>1131.3</ele>
        <time>2012-06-16T07:36:33Z</time>
      </trkpt>
      <trkpt lat="45.15099" lon="5.88935">
        <ele>1130.8</ele>
        <time>2012-06-16T07:36:39Z</time>
      </trkpt>
      <trkpt lat="45.15092" lon="5.88942">
        <ele>1131.4</ele>
        <time>2012-06-16T07:36:45Z</time>
      </trkpt>
      <trkpt lat="45.15091" lon="5.88943">
        <ele>1131.2</ele>
        <time>2012-06-16T07:36:46Z</time>
      </trkpt>
      <trkpt lat="45.1508" lon="5.88956">
        <ele>1131</ele>
        <time>2012-06-16T07:36:58Z</time>
      </trkpt>
      <trkpt lat="45.15074" lon="5.88962">
        <ele>1131</ele>
        <time>2012-06-16T07:37:03Z</time>
      </trkpt>
      <trkpt lat="45.15067" lon="5.8897">
        <ele>1131.7</ele>
        <time>2012-06-16T07:37:09Z</time>
      </trkpt>
      <trkpt lat="45.15059" lon="5.88975">
        <ele>1132</ele>
        <time>2012-06-16T07:37:17Z</time>
      </trkpt>
      <trkpt lat="45.15051" lon="5.88979">
        <ele>1132.6</ele>
        <time>2012-06-16T07:37:23Z</time>
      </trkpt>
      <trkpt lat="45.15043" lon="5.88984">
        <ele>1132.6</ele>
        <time>2012-06-16T07:37:29Z</time>
      </trkpt>
      <trkpt lat="45.15036" lon="5.88987">
        <ele>1132.3</ele>
        <time>2012-06-16T07:37:36Z</time>
      </trkpt>
      <trkpt lat="45.15027" lon="5.88992">
        <ele>1133.2</ele>
        <time>2012-06-16T07:37:42Z</time>
      </trkpt>
      <trkpt lat="45.15019" lon="5.88995">
        <ele>1133.2</ele>
        <time>2012-06-16T07:37:48Z</time>
      </trkpt>
      <trkpt lat="45.15018" lon="5.88995">
        <ele>1133</ele>
        <time>2012-06-16T07:37:49Z</time>
      </trkpt>
      <trkpt lat="45.15003" lon="5.89">
        <ele>1133.8</ele>
        <time>2012-06-16T07:38:01Z</time>
      </trkpt>
      <trkpt lat="45.14995" lon="5.89004">
        <ele>1134.4</ele>
        <time>2012-06-16T07:38:08Z</time>
      </trkpt>
      <trkpt lat="45.14988" lon="5.89009">
        <ele>1133.5</ele>
        <time>2012-06-16T07:38:14Z</time>
      </trkpt>
      <trkpt lat="45.1498" lon="5.89013">
        <ele>1133.4</ele>
        <time>2012-06-16T07:38:21Z</time>
      </trkpt>
      <trkpt lat="45.14973" lon="5.89018">
        <ele>1133.8</ele>
        <time>2012-06-16T07:38:27Z</time>
      </trkpt>
      <trkpt lat="45.14966" lon="5.89025">
        <ele>1133.5</ele>
        <time>2012-06-16T07:38:33Z</time>
      </trkpt>
      <trkpt lat="45.14959" lon="5.8903">
        <ele>1134.2</ele>
        <time>2012-06-16T07:38:39Z</time>
      </trkpt>
      <trkpt lat="45.14952" lon="5.89037">
        <ele>1134.4</ele>
        <time>2012-06-16T07:38:46Z</time>
      </trkpt>
      <trkpt lat="45.14945" lon="5.89044">
        <ele>1136</ele>
        <time>2012-06-16T07:38:53Z</time>
      </trkpt>
      <trkpt lat="45.14944" lon="5.89045">
        <ele>1135.8</ele>
        <time>2012-06-16T07:38:54Z</time>
      </trkpt>
      <trkpt lat="45.1493" lon="5.89053">
        <ele>1136.2</ele>
        <time>2012-06-16T07:39:05Z</time>
      </trkpt>
      <trkpt lat="45.14922" lon="5.89059">
        <ele>1136.3</ele>
        <time>2012-06-16T07:39:11Z</time>
      </trkpt>
      <trkpt lat="45.14915" lon="5.89063">
        <ele>1137.2</ele>
        <time>2012-06-16T07:39:17Z</time>
      </trkpt>
      <trkpt lat="45.14907" lon="5.89067">
        <ele>1137.4</ele>
        <time>2012-06-16T07:39:24Z</time>
      </trkpt>
      <trkpt lat="45.149" lon="5.89071">
        <ele>1138.2</ele>
        <time>2012-06-16T07:39:30Z</time>
      </trkpt>
      <trkpt lat="45.14891" lon="5.89076">
        <ele>1137.8</ele>
        <time>2012-06-16T07:39:36Z</time>
      </trkpt>
      <trkpt lat="45.14884" lon="5.89081">
        <ele>1138.3</ele>
        <time>2012-06-16T07:39:41Z</time>
      </trkpt>
      <trkpt lat="45.14876" lon="5.89086">
        <ele>1138.5</ele>
        <time>2012-06-16T07:39:47Z</time>
      </trkpt>
      <trkpt lat="45.14868" lon="5.89091">
        <ele>1138.3</ele>
        <time>2012-06-16T07:39:53Z</time>
      </trkpt>
      <trkpt lat="45.14861" lon="5.89096">
        <ele>1138.2</ele>
        <time>2012-06-16T07:39:58Z</time>
      </trkpt>
      <trkpt lat="45.1486" lon="5.89097">
        <ele>1138.3</ele>
        <time>2012-06-16T07:39:59Z</time>
      </trkpt>
      <trkpt lat="45.14847" lon="5.89108">
        <ele>1137.7</ele>
        <time>2012-06-16T07:40:12Z</time>
      </trkpt>
      <trkpt lat="45.14839" lon="5.89114">
        <ele>1137</ele>
        <time>2012-06-16T07:40:20Z</time>
      </trkpt>
      <trkpt lat="45.14831" lon="5.8912">
        <ele>1136.4</ele>
        <time>2012-06-16T07:40:29Z</time>
      </trkpt>
      <trkpt lat="45.14824" lon="5.89124">
        <ele>1134.3</ele>
        <time>2012-06-16T07:40:36Z</time>
      </trkpt>
      <trkpt lat="45.14817" lon="5.8913">
        <ele>1132.8</ele>
        <time>2012-06-16T07:40:43Z</time>
      </trkpt>
      <trkpt lat="45.14809" lon="5.89134">
        <ele>1132.6</ele>
        <time>2012-06-16T07:40:50Z</time>
      </trkpt>
      <trkpt lat="45.14802" lon="5.89139">
        <ele>1131.5</ele>
        <time>2012-06-16T07:40:55Z</time>
      </trkpt>
      <trkpt lat="45.14794" lon="5.89145">
        <ele>1130.8</ele>
        <time>2012-06-16T07:41:02Z</time>
      </trkpt>
      <trkpt lat="45.14793" lon="5.89146">
        <ele>1131</ele>
        <time>2012-06-16T07:41:03Z</time>
      </trkpt>
      <trkpt lat="45.1478" lon="5.89154">
        <ele>1129.7</ele>
        <time>2012-06-16T07:41:13Z</time>
      </trkpt>
      <trkpt lat="45.14771" lon="5.89158">
        <ele>1129</ele>
        <time>2012-06-16T07:41:20Z</time>
      </trkpt>
      <trkpt lat="45.14764" lon="5.89162">
        <ele>1129.7</ele>
        <time>2012-06-16T07:41:29Z</time>
      </trkpt>
      <trkpt lat="45.14758" lon="5.89171">
        <ele>1129</ele>
        <time>2012-06-16T07:41:43Z</time>
      </trkpt>
      <trkpt lat="45.14761" lon="5.89182">
        <ele>1129.3</ele>
        <time>2012-06-16T07:41:55Z</time>
      </trkpt>
      <trkpt lat="45.14767" lon="5.89191">
        <ele>1129.8</ele>
        <time>2012-06-16T07:42:06Z</time>
      </trkpt>
      <trkpt lat="45.14768" lon="5.89192">
        <ele>1129.8</ele>
        <time>2012-06-16T07:42:07Z</time>
      </trkpt>
      <trkpt lat="45.14779" lon="5.89209">
        <ele>1132.1</ele>
        <time>2012-06-16T07:42:52Z</time>
      </trkpt>
      <trkpt lat="45.14784" lon="5.89219">
        <ele>1133</ele>
        <time>2012-06-16T07:42:59Z</time>
      </trkpt>
      <trkpt lat="45.14788" lon="5.8923">
        <ele>1132.8</ele>
        <time>2012-06-16T07:43:06Z</time>
      </trkpt>
      <trkpt lat="45.14792" lon="5.89241">
        <ele>1133.4</ele>
        <time>2012-06-16T07:43:14Z</time>
      </trkpt>
      <trkpt lat="45.14792" lon="5.89243">
        <ele>1133.2</ele>
        <time>2012-06-16T07:43:15Z</time>
      </trkpt>
      <trkpt lat="45.14799" lon="5.89262">
        <ele>1132.7</ele>
        <time>2012-06-16T07:43:26Z</time>
      </trkpt>
      <trkpt lat="45.14805" lon="5.8927">
        <ele>1132</ele>
        <time>2012-06-16T07:43:32Z</time>
      </trkpt>
      <trkpt lat="45.1481" lon="5.8928">
        <ele>1133.3</ele>
        <time>2012-06-16T07:43:41Z</time>
      </trkpt>
      <trkpt lat="45.14817" lon="5.89289">
        <ele>1134.1</ele>
        <time>2012-06-16T07:43:49Z</time>
      </trkpt>
      <trkpt lat="45.14822" lon="5.89298">
        <ele>1134.5</ele>
        <time>2012-06-16T07:43:55Z</time>
      </trkpt>
      <trkpt lat="45.14828" lon="5.89307">
        <ele>1133.4</ele>
        <time>2012-06-16T07:44:01Z</time>
      </trkpt>
      <trkpt lat="45.14832" lon="5.89316">
        <ele>1134.1</ele>
        <time>2012-06-16T07:44:07Z</time>
      </trkpt>
      <trkpt lat="45.14836" lon="5.89326">
        <ele>1134.2</ele>
        <time>2012-06-16T07:44:13Z</time>
      </trkpt>
      <trkpt lat="45.1484" lon="5.89336">
        <ele>1134.7</ele>
        <time>2012-06-16T07:44:19Z</time>
      </trkpt>
      <trkpt lat="45.14841" lon="5.89338">
        <ele>1134.9</ele>
        <time>2012-06-16T07:44:20Z</time>
      </trkpt>
      <trkpt lat="45.14849" lon="5.89356">
        <ele>1135.4</ele>
        <time>2012-06-16T07:44:34Z</time>
      </trkpt>
      <trkpt lat="45.14855" lon="5.89364">
        <ele>1135.8</ele>
        <time>2012-06-16T07:44:41Z</time>
      </trkpt>
      <trkpt lat="45.14861" lon="5.89373">
        <ele>1137.4</ele>
        <time>2012-06-16T07:44:49Z</time>
      </trkpt>
      <trkpt lat="45.14862" lon="5.89384">
        <ele>1137.8</ele>
        <time>2012-06-16T07:44:55Z</time>
      </trkpt>
      <trkpt lat="45.14866" lon="5.89395">
        <ele>1138.8</ele>
        <time>2012-06-16T07:45:02Z</time>
      </trkpt>
      <trkpt lat="45.14871" lon="5.89404">
        <ele>1139.8</ele>
        <time>2012-06-16T07:45:09Z</time>
      </trkpt>
      <trkpt lat="45.14878" lon="5.89412">
        <ele>1140.8</ele>
        <time>2012-06-16T07:45:17Z</time>
      </trkpt>
      <trkpt lat="45.14885" lon="5.8942">
        <ele>1141.7</ele>
        <time>2012-06-16T07:45:26Z</time>
      </trkpt>
      <trkpt lat="45.14885" lon="5.89421">
        <ele>1141.7</ele>
        <time>2012-06-16T07:45:27Z</time>
      </trkpt>
      <trkpt lat="45.14896" lon="5.89438">
        <ele>1144.7</ele>
        <time>2012-06-16T07:45:41Z</time>
      </trkpt>
      <trkpt lat="45.14902" lon="5.89446">
        <ele>1146.2</ele>
        <time>2012-06-16T07:45:49Z</time>
      </trkpt>
      <trkpt lat="45.14909" lon="5.89453">
        <ele>1148.1</ele>
        <time>2012-06-16T07:45:58Z</time>
      </trkpt>
      <trkpt lat="45.14915" lon="5.89461">
        <ele>1148.5</ele>
        <time>2012-06-16T07:46:05Z</time>
      </trkpt>
      <trkpt lat="45.14921" lon="5.89468">
        <ele>1149.1</ele>
        <time>2012-06-16T07:46:12Z</time>
      </trkpt>
      <trkpt lat="45.14926" lon="5.89478">
        <ele>1150.1</ele>
        <time>2012-06-16T07:46:21Z</time>
      </trkpt>
      <trkpt lat="45.14934" lon="5.89485">
        <ele>1151.7</ele>
        <time>2012-06-16T07:46:29Z</time>
      </trkpt>
      <trkpt lat="45.14935" lon="5.89485">
        <ele>1151.9</ele>
        <time>2012-06-16T07:46:30Z</time>
      </trkpt>
      <trkpt lat="45.14947" lon="5.89498">
        <ele>1154.4</ele>
        <time>2012-06-16T07:46:43Z</time>
      </trkpt>
      <trkpt lat="45.14947" lon="5.8951">
        <ele>1155.9</ele>
        <time>2012-06-16T07:46:53Z</time>
      </trkpt>
      <trkpt lat="45.14944" lon="5.8952">
        <ele>1158</ele>
        <time>2012-06-16T07:47:00Z</time>
      </trkpt>
      <trkpt lat="45.1494" lon="5.8953">
        <ele>1158.2</ele>
        <time>2012-06-16T07:47:08Z</time>
      </trkpt>
      <trkpt lat="45.14934" lon="5.89538">
        <ele>1158.3</ele>
        <time>2012-06-16T07:47:15Z</time>
      </trkpt>
      <trkpt lat="45.14928" lon="5.89546">
        <ele>1158.5</ele>
        <time>2012-06-16T07:47:22Z</time>
      </trkpt>
      <trkpt lat="45.14922" lon="5.89555">
        <ele>1157.6</ele>
        <time>2012-06-16T07:47:30Z</time>
      </trkpt>
      <trkpt lat="45.14919" lon="5.89565">
        <ele>1158</ele>
        <time>2012-06-16T07:47:36Z</time>
      </trkpt>
      <trkpt lat="45.14919" lon="5.89567">
        <ele>1158.3</ele>
        <time>2012-06-16T07:47:37Z</time>
      </trkpt>
      <trkpt lat="45.14912" lon="5.89586">
        <ele>1160.4</ele>
        <time>2012-06-16T07:47:49Z</time>
      </trkpt>
      <trkpt lat="45.14907" lon="5.89597">
        <ele>1160.2</ele>
        <time>2012-06-16T07:47:55Z</time>
      </trkpt>
      <trkpt lat="45.14902" lon="5.89606">
        <ele>1160.8</ele>
        <time>2012-06-16T07:48:00Z</time>
      </trkpt>
      <trkpt lat="45.14895" lon="5.89613">
        <ele>1161.7</ele>
        <time>2012-06-16T07:48:07Z</time>
      </trkpt>
      <trkpt lat="45.14888" lon="5.8962">
        <ele>1162.2</ele>
        <time>2012-06-16T07:48:14Z</time>
      </trkpt>
      <trkpt lat="45.14881" lon="5.89629">
        <ele>1163.2</ele>
        <time>2012-06-16T07:48:21Z</time>
      </trkpt>
      <trkpt lat="45.14875" lon="5.89636">
        <ele>1163.8</ele>
        <time>2012-06-16T07:48:28Z</time>
      </trkpt>
      <trkpt lat="45.14866" lon="5.8964">
        <ele>1164.6</ele>
        <time>2012-06-16T07:48:36Z</time>
      </trkpt>
      <trkpt lat="45.14859" lon="5.89646">
        <ele>1165.4</ele>
        <time>2012-06-16T07:48:44Z</time>
      </trkpt>
      <trkpt lat="45.14858" lon="5.89647">
        <ele>1165.4</ele>
        <time>2012-06-16T07:48:45Z</time>
      </trkpt>
      <trkpt lat="45.14847" lon="5.89662">
        <ele>1167.7</ele>
        <time>2012-06-16T07:49:01Z</time>
      </trkpt>
      <trkpt lat="45.14843" lon="5.89672">
        <ele>1168.7</ele>
        <time>2012-06-16T07:49:09Z</time>
      </trkpt>
      <trkpt lat="45.14837" lon="5.89682">
        <ele>1169.5</ele>
        <time>2012-06-16T07:49:17Z</time>
      </trkpt>
      <trkpt lat="45.1483" lon="5.89689">
        <ele>1170.6</ele>
        <time>2012-06-16T07:49:25Z</time>
      </trkpt>
      <trkpt lat="45.14823" lon="5.89696">
        <ele>1171.8</ele>
        <time>2012-06-16T07:49:33Z</time>
      </trkpt>
      <trkpt lat="45.14816" lon="5.89702">
        <ele>1173.1</ele>
        <time>2012-06-16T07:49:40Z</time>
      </trkpt>
      <trkpt lat="45.14808" lon="5.89708">
        <ele>1175.2</ele>
        <time>2012-06-16T07:49:48Z</time>
      </trkpt>
      <trkpt lat="45.14807" lon="5.89709">
        <ele>1175.1</ele>
        <time>2012-06-16T07:49:49Z</time>
      </trkpt>
      <trkpt lat="45.14794" lon="5.89719">
        <ele>1177.2</ele>
        <time>2012-06-16T07:50:03Z</time>
      </trkpt>
      <trkpt lat="45.14787" lon="5.89727">
        <ele>1178.3</ele>
        <time>2012-06-16T07:50:11Z</time>
      </trkpt>
      <trkpt lat="45.1478" lon="5.89734">
        <ele>1178.9</ele>
        <time>2012-06-16T07:50:19Z</time>
      </trkpt>
      <trkpt lat="45.14774" lon="5.89743">
        <ele>1180.1</ele>
        <time>2012-06-16T07:50:28Z</time>
      </trkpt>
      <trkpt lat="45.14767" lon="5.8975">
        <ele>1181.4</ele>
        <time>2012-06-16T07:50:36Z</time>
      </trkpt>
      <trkpt lat="45.14761" lon="5.89758">
        <ele>1182.4</ele>
        <time>2012-06-16T07:50:45Z</time>
      </trkpt>
      <trkpt lat="45.14754" lon="5.89765">
        <ele>1182.7</ele>
        <time>2012-06-16T07:50:53Z</time>
      </trkpt>
      <trkpt lat="45.14753" lon="5.89766">
        <ele>1182.9</ele>
        <time>2012-06-16T07:50:54Z</time>
      </trkpt>
      <trkpt lat="45.14739" lon="5.89778">
        <ele>1184.2</ele>
        <time>2012-06-16T07:51:08Z</time>
      </trkpt>
      <trkpt lat="45.14733" lon="5.89785">
        <ele>1186.1</ele>
        <time>2012-06-16T07:51:15Z</time>
      </trkpt>
      <trkpt lat="45.14728" lon="5.89795">
        <ele>1187.4</ele>
        <time>2012-06-16T07:51:24Z</time>
      </trkpt>
      <trkpt lat="45.1472" lon="5.89802">
        <ele>1188.7</ele>
        <time>2012-06-16T07:51:38Z</time>
      </trkpt>
      <trkpt lat="45.14713" lon="5.89809">
        <ele>1188.4</ele>
        <time>2012-06-16T07:51:47Z</time>
      </trkpt>
      <trkpt lat="45.14706" lon="5.89817">
        <ele>1191</ele>
        <time>2012-06-16T07:51:57Z</time>
      </trkpt>
      <trkpt lat="45.14705" lon="5.89818">
        <ele>1190.9</ele>
        <time>2012-06-16T07:51:58Z</time>
      </trkpt>
      <trkpt lat="45.147" lon="5.89838">
        <ele>1192.4</ele>
        <time>2012-06-16T07:52:12Z</time>
      </trkpt>
      <trkpt lat="45.14698" lon="5.89851">
        <ele>1194.1</ele>
        <time>2012-06-16T07:52:22Z</time>
      </trkpt>
      <trkpt lat="45.14695" lon="5.89861">
        <ele>1195.3</ele>
        <time>2012-06-16T07:52:31Z</time>
      </trkpt>
      <trkpt lat="45.1469" lon="5.89872">
        <ele>1195.8</ele>
        <time>2012-06-16T07:52:41Z</time>
      </trkpt>
      <trkpt lat="45.14686" lon="5.89883">
        <ele>1196.6</ele>
        <time>2012-06-16T07:52:50Z</time>
      </trkpt>
      <trkpt lat="45.14681" lon="5.89894">
        <ele>1197.8</ele>
        <time>2012-06-16T07:53:00Z</time>
      </trkpt>
      <trkpt lat="45.14681" lon="5.89895">
        <ele>1198.2</ele>
        <time>2012-06-16T07:53:01Z</time>
      </trkpt>
      <trkpt lat="45.14671" lon="5.89912">
        <ele>1199.3</ele>
        <time>2012-06-16T07:53:15Z</time>
      </trkpt>
      <trkpt lat="45.14666" lon="5.89922">
        <ele>1200.6</ele>
        <time>2012-06-16T07:53:21Z</time>
      </trkpt>
      <trkpt lat="45.14662" lon="5.89933">
        <ele>1201.2</ele>
        <time>2012-06-16T07:53:27Z</time>
      </trkpt>
      <trkpt lat="45.14657" lon="5.89943">
        <ele>1201.9</ele>
        <time>2012-06-16T07:53:35Z</time>
      </trkpt>
      <trkpt lat="45.1465" lon="5.8995">
        <ele>1203.4</ele>
        <time>2012-06-16T07:53:43Z</time>
      </trkpt>
      <trkpt lat="45.14646" lon="5.8996">
        <ele>1204.5</ele>
        <time>2012-06-16T07:53:52Z</time>
      </trkpt>
      <trkpt lat="45.14643" lon="5.89972">
        <ele>1204.9</ele>
        <time>2012-06-16T07:54:01Z</time>
      </trkpt>
      <trkpt lat="45.14641" lon="5.89984">
        <ele>1206.1</ele>
        <time>2012-06-16T07:54:09Z</time>
      </trkpt>
      <trkpt lat="45.1464" lon="5.89985">
        <ele>1206.5</ele>
        <time>2012-06-16T07:54:10Z</time>
      </trkpt>
      <trkpt lat="45.14632" lon="5.90005">
        <ele>1209.4</ele>
        <time>2012-06-16T07:54:28Z</time>
      </trkpt>
      <trkpt lat="45.14626" lon="5.90012">
        <ele>1210.6</ele>
        <time>2012-06-16T07:54:37Z</time>
      </trkpt>
      <trkpt lat="45.14619" lon="5.90019">
        <ele>1211.1</ele>
        <time>2012-06-16T07:54:45Z</time>
      </trkpt>
      <trkpt lat="45.14613" lon="5.90028">
        <ele>1212.8</ele>
        <time>2012-06-16T07:54:53Z</time>
      </trkpt>
      <trkpt lat="45.1461" lon="5.9004">
        <ele>1212.3</ele>
        <time>2012-06-16T07:55:01Z</time>
      </trkpt>
      <trkpt lat="45.14607" lon="5.90052">
        <ele>1214</ele>
        <time>2012-06-16T07:55:10Z</time>
      </trkpt>
      <trkpt lat="45.14606" lon="5.90064">
        <ele>1215</ele>
        <time>2012-06-16T07:55:21Z</time>
      </trkpt>
      <trkpt lat="45.14605" lon="5.90066">
        <ele>1215.3</ele>
        <time>2012-06-16T07:55:22Z</time>
      </trkpt>
      <trkpt lat="45.14593" lon="5.90082">
        <ele>1214.7</ele>
        <time>2012-06-16T07:55:38Z</time>
      </trkpt>
      <trkpt lat="45.14589" lon="5.90092">
        <ele>1216.1</ele>
        <time>2012-06-16T07:55:45Z</time>
      </trkpt>
      <trkpt lat="45.14583" lon="5.90102">
        <ele>1217.1</ele>
        <time>2012-06-16T07:55:53Z</time>
      </trkpt>
      <trkpt lat="45.14578" lon="5.90111">
        <ele>1217</ele>
        <time>2012-06-16T07:56:00Z</time>
      </trkpt>
      <trkpt lat="45.14571" lon="5.90119">
        <ele>1218.2</ele>
        <time>2012-06-16T07:56:08Z</time>
      </trkpt>
      <trkpt lat="45.14565" lon="5.90128">
        <ele>1219.2</ele>
        <time>2012-06-16T07:56:18Z</time>
      </trkpt>
      <trkpt lat="45.14559" lon="5.90135">
        <ele>1220.2</ele>
        <time>2012-06-16T07:56:25Z</time>
      </trkpt>
      <trkpt lat="45.14558" lon="5.90136">
        <ele>1220.1</ele>
        <time>2012-06-16T07:56:26Z</time>
      </trkpt>
      <trkpt lat="45.14546" lon="5.90151">
        <ele>1220.9</ele>
        <time>2012-06-16T07:56:39Z</time>
      </trkpt>
      <trkpt lat="45.14545" lon="5.90163">
        <ele>1218.6</ele>
        <time>2012-06-16T07:56:51Z</time>
      </trkpt>
      <trkpt lat="45.14542" lon="5.90174">
        <ele>1219.4</ele>
        <time>2012-06-16T07:57:01Z</time>
      </trkpt>
      <trkpt lat="45.1454" lon="5.90186">
        <ele>1222.5</ele>
        <time>2012-06-16T07:57:18Z</time>
      </trkpt>
      <trkpt lat="45.14537" lon="5.90198">
        <ele>1225.2</ele>
        <time>2012-06-16T07:57:35Z</time>
      </trkpt>
      <trkpt lat="45.14537" lon="5.90199">
        <ele>1225.3</ele>
        <time>2012-06-16T07:57:36Z</time>
      </trkpt>
      <trkpt lat="45.14527" lon="5.90218">
        <ele>1229.7</ele>
        <time>2012-06-16T07:58:01Z</time>
      </trkpt>
      <trkpt lat="45.14527" lon="5.90231">
        <ele>1233.5</ele>
        <time>2012-06-16T07:58:19Z</time>
      </trkpt>
      <trkpt lat="45.14523" lon="5.90241">
        <ele>1235.1</ele>
        <time>2012-06-16T07:58:35Z</time>
      </trkpt>
      <trkpt lat="45.14519" lon="5.90251">
        <ele>1236.9</ele>
        <time>2012-06-16T07:58:45Z</time>
      </trkpt>
      <trkpt lat="45.14518" lon="5.90253">
        <ele>1237</ele>
        <time>2012-06-16T07:58:46Z</time>
      </trkpt>
      <trkpt lat="45.14508" lon="5.9027">
        <ele>1240.5</ele>
        <time>2012-06-16T07:59:03Z</time>
      </trkpt>
      <trkpt lat="45.14505" lon="5.90282">
        <ele>1241</ele>
        <time>2012-06-16T07:59:12Z</time>
      </trkpt>
      <trkpt lat="45.14501" lon="5.90293">
        <ele>1242.6</ele>
        <time>2012-06-16T07:59:23Z</time>
      </trkpt>
      <trkpt lat="45.14499" lon="5.90304">
        <ele>1245</ele>
        <time>2012-06-16T07:59:34Z</time>
      </trkpt>
      <trkpt lat="45.14496" lon="5.90316">
        <ele>1245.7</ele>
        <time>2012-06-16T07:59:45Z</time>
      </trkpt>
      <trkpt lat="45.14491" lon="5.90325">
        <ele>1248.3</ele>
        <time>2012-06-16T07:59:54Z</time>
      </trkpt>
      <trkpt lat="45.1449" lon="5.90326">
        <ele>1248.3</ele>
        <time>2012-06-16T07:59:55Z</time>
      </trkpt>
      <trkpt lat="45.14486" lon="5.90347">
        <ele>1252.8</ele>
        <time>2012-06-16T08:00:24Z</time>
      </trkpt>
      <trkpt lat="45.14486" lon="5.90359">
        <ele>1254.4</ele>
        <time>2012-06-16T08:00:35Z</time>
      </trkpt>
      <trkpt lat="45.14482" lon="5.90369">
        <ele>1257.1</ele>
        <time>2012-06-16T08:00:49Z</time>
      </trkpt>
      <trkpt lat="45.14477" lon="5.90379">
        <ele>1259.1</ele>
        <time>2012-06-16T08:00:59Z</time>
      </trkpt>
      <trkpt lat="45.14476" lon="5.90379">
        <ele>1259.3</ele>
        <time>2012-06-16T08:01:00Z</time>
      </trkpt>
      <trkpt lat="45.14467" lon="5.904">
        <ele>1262.6</ele>
        <time>2012-06-16T08:01:20Z</time>
      </trkpt>
      <trkpt lat="45.14461" lon="5.90408">
        <ele>1263</ele>
        <time>2012-06-16T08:01:28Z</time>
      </trkpt>
      <trkpt lat="45.14459" lon="5.90421">
        <ele>1265.2</ele>
        <time>2012-06-16T08:01:38Z</time>
      </trkpt>
      <trkpt lat="45.14462" lon="5.90432">
        <ele>1266.4</ele>
        <time>2012-06-16T08:01:50Z</time>
      </trkpt>
      <trkpt lat="45.14461" lon="5.90444">
        <ele>1268.4</ele>
        <time>2012-06-16T08:02:03Z</time>
      </trkpt>
      <trkpt lat="45.14461" lon="5.90445">
        <ele>1268.5</ele>
        <time>2012-06-16T08:02:04Z</time>
      </trkpt>
      <trkpt lat="45.14463" lon="5.90467">
        <ele>1270.8</ele>
        <time>2012-06-16T08:02:24Z</time>
      </trkpt>
      <trkpt lat="45.14465" lon="5.90479">
        <ele>1272.6</ele>
        <time>2012-06-16T08:02:35Z</time>
      </trkpt>
      <trkpt lat="45.14467" lon="5.90491">
        <ele>1274</ele>
        <time>2012-06-16T08:02:46Z</time>
      </trkpt>
      <trkpt lat="45.14469" lon="5.90502">
        <ele>1276.1</ele>
        <time>2012-06-16T08:02:58Z</time>
      </trkpt>
      <trkpt lat="45.14466" lon="5.90514">
        <ele>1278.4</ele>
        <time>2012-06-16T08:03:10Z</time>
      </trkpt>
      <trkpt lat="45.14465" lon="5.90514">
        <ele>1278.5</ele>
        <time>2012-06-16T08:03:11Z</time>
      </trkpt>
      <trkpt lat="45.14472" lon="5.90534">
        <ele>1278.6</ele>
        <time>2012-06-16T08:03:37Z</time>
      </trkpt>
      <trkpt lat="45.14475" lon="5.90545">
        <ele>1282.3</ele>
        <time>2012-06-16T08:03:52Z</time>
      </trkpt>
      <trkpt lat="45.14481" lon="5.90558">
        <ele>1284</ele>
        <time>2012-06-16T08:04:07Z</time>
      </trkpt>
      <trkpt lat="45.14483" lon="5.90573">
        <ele>1287</ele>
        <time>2012-06-16T08:04:26Z</time>
      </trkpt>
      <trkpt lat="45.14483" lon="5.90575">
        <ele>1287.9</ele>
        <time>2012-06-16T08:04:28Z</time>
      </trkpt>
      <trkpt lat="45.14491" lon="5.90603">
        <ele>1291</ele>
        <time>2012-06-16T08:04:50Z</time>
      </trkpt>
      <trkpt lat="45.14493" lon="5.90616">
        <ele>1295</ele>
        <time>2012-06-16T08:05:06Z</time>
      </trkpt>
      <trkpt lat="45.14495" lon="5.90627">
        <ele>1297.9</ele>
        <time>2012-06-16T08:05:24Z</time>
      </trkpt>
      <trkpt lat="45.14496" lon="5.90639">
        <ele>1300.4</ele>
        <time>2012-06-16T08:05:37Z</time>
      </trkpt>
      <trkpt lat="45.14496" lon="5.9064">
        <ele>1301.1</ele>
        <time>2012-06-16T08:05:38Z</time>
      </trkpt>
      <trkpt lat="45.14488" lon="5.9066">
        <ele>1304.8</ele>
        <time>2012-06-16T08:06:03Z</time>
      </trkpt>
      <trkpt lat="45.14487" lon="5.90672">
        <ele>1308</ele>
        <time>2012-06-16T08:06:16Z</time>
      </trkpt>
      <trkpt lat="45.14485" lon="5.90685">
        <ele>1309.3</ele>
        <time>2012-06-16T08:06:27Z</time>
      </trkpt>
      <trkpt lat="45.14485" lon="5.90697">
        <ele>1312</ele>
        <time>2012-06-16T08:06:42Z</time>
      </trkpt>
      <trkpt lat="45.14485" lon="5.90698">
        <ele>1312.3</ele>
        <time>2012-06-16T08:06:43Z</time>
      </trkpt>
      <trkpt lat="45.1449" lon="5.90718">
        <ele>1316.8</ele>
        <time>2012-06-16T08:07:04Z</time>
      </trkpt>
      <trkpt lat="45.14492" lon="5.9073">
        <ele>1318.2</ele>
        <time>2012-06-16T08:07:27Z</time>
      </trkpt>
      <trkpt lat="45.14486" lon="5.90739">
        <ele>1317.6</ele>
        <time>2012-06-16T08:07:52Z</time>
      </trkpt>
      <trkpt lat="45.14484" lon="5.9074">
        <ele>1317.4</ele>
        <time>2012-06-16T08:07:53Z</time>
      </trkpt>
      <trkpt lat="45.14485" lon="5.90736">
        <ele>1317.8</ele>
        <time>2012-06-16T08:08:43Z</time>
      </trkpt>
      <trkpt lat="45.14493" lon="5.90735">
        <ele>1318.1</ele>
        <time>2012-06-16T08:08:49Z</time>
      </trkpt>
      <trkpt lat="45.14489" lon="5.90745">
        <ele>1319.1</ele>
        <time>2012-06-16T08:09:22Z</time>
      </trkpt>
      <trkpt lat="45.14488" lon="5.90745">
        <ele>1319.2</ele>
        <time>2012-06-16T08:09:23Z</time>
      </trkpt>
      <trkpt lat="45.14484" lon="5.90729">
        <ele>1318.9</ele>
        <time>2012-06-16T08:10:00Z</time>
      </trkpt>
      <trkpt lat="45.14493" lon="5.90729">
        <ele>1319.6</ele>
        <time>2012-06-16T08:10:07Z</time>
      </trkpt>
      <trkpt lat="45.14502" lon="5.90729">
        <ele>1319.5</ele>
        <time>2012-06-16T08:10:13Z</time>
      </trkpt>
      <trkpt lat="45.14512" lon="5.90727">
        <ele>1318</ele>
        <time>2012-06-16T08:10:26Z</time>
      </trkpt>
      <trkpt lat="45.14512" lon="5.90727">
        <ele>1318.8</ele>
        <time>2012-06-16T08:10:28Z</time>
      </trkpt>
      <trkpt lat="45.14508" lon="5.90731">
        <ele>1320.2</ele>
        <time>2012-06-16T08:11:25Z</time>
      </trkpt>
      <trkpt lat="45.14509" lon="5.90742">
        <ele>1321.1</ele>
        <time>2012-06-16T08:11:34Z</time>
      </trkpt>
      <trkpt lat="45.14508" lon="5.90744">
        <ele>1321.5</ele>
        <time>2012-06-16T08:11:35Z</time>
      </trkpt>
      <trkpt lat="45.14506" lon="5.90764">
        <ele>1319.7</ele>
        <time>2012-06-16T08:11:57Z</time>
      </trkpt>
      <trkpt lat="45.14501" lon="5.90774">
        <ele>1319</ele>
        <time>2012-06-16T08:12:12Z</time>
      </trkpt>
      <trkpt lat="45.14493" lon="5.90778">
        <ele>1327.7</ele>
        <time>2012-06-16T08:13:06Z</time>
      </trkpt>
      <trkpt lat="45.14493" lon="5.90779">
        <ele>1328.1</ele>
        <time>2012-06-16T08:13:07Z</time>
      </trkpt>
      <trkpt lat="45.14496" lon="5.90801">
        <ele>1333</ele>
        <time>2012-06-16T08:13:38Z</time>
      </trkpt>
      <trkpt lat="45.14498" lon="5.90814">
        <ele>1334.7</ele>
        <time>2012-06-16T08:13:51Z</time>
      </trkpt>
      <trkpt lat="45.14495" lon="5.90825">
        <ele>1336.3</ele>
        <time>2012-06-16T08:14:02Z</time>
      </trkpt>
      <trkpt lat="45.14495" lon="5.90838">
        <ele>1338.4</ele>
        <time>2012-06-16T08:14:15Z</time>
      </trkpt>
      <trkpt lat="45.14495" lon="5.90838">
        <ele>1338.2</ele>
        <time>2012-06-16T08:14:16Z</time>
      </trkpt>
      <trkpt lat="45.14491" lon="5.90861">
        <ele>1342.7</ele>
        <time>2012-06-16T08:14:41Z</time>
      </trkpt>
      <trkpt lat="45.1449" lon="5.90874">
        <ele>1344</ele>
        <time>2012-06-16T08:14:55Z</time>
      </trkpt>
      <trkpt lat="45.14489" lon="5.90887">
        <ele>1346</ele>
        <time>2012-06-16T08:15:10Z</time>
      </trkpt>
      <trkpt lat="45.14493" lon="5.90898">
        <ele>1349.2</ele>
        <time>2012-06-16T08:15:35Z</time>
      </trkpt>
      <trkpt lat="45.14493" lon="5.90898">
        <ele>1349.4</ele>
        <time>2012-06-16T08:15:36Z</time>
      </trkpt>
      <trkpt lat="45.14477" lon="5.90904">
        <ele>1353.4</ele>
        <time>2012-06-16T08:16:10Z</time>
      </trkpt>
      <trkpt lat="45.14469" lon="5.90901">
        <ele>1356.2</ele>
        <time>2012-06-16T08:16:34Z</time>
      </trkpt>
      <trkpt lat="45.14472" lon="5.90889">
        <ele>1360.1</ele>
        <time>2012-06-16T08:16:50Z</time>
      </trkpt>
      <trkpt lat="45.14471" lon="5.90888">
        <ele>1360.1</ele>
        <time>2012-06-16T08:16:51Z</time>
      </trkpt>
      <trkpt lat="45.14456" lon="5.90888">
        <ele>1363.3</ele>
        <time>2012-06-16T08:17:16Z</time>
      </trkpt>
      <trkpt lat="45.14449" lon="5.90894">
        <ele>1364.7</ele>
        <time>2012-06-16T08:17:23Z</time>
      </trkpt>
      <trkpt lat="45.14442" lon="5.90902">
        <ele>1366.9</ele>
        <time>2012-06-16T08:17:35Z</time>
      </trkpt>
      <trkpt lat="45.14433" lon="5.90901">
        <ele>1377.7</ele>
        <time>2012-06-16T08:18:45Z</time>
      </trkpt>
      <trkpt lat="45.14433" lon="5.90902">
        <ele>1378.2</ele>
        <time>2012-06-16T08:18:46Z</time>
      </trkpt>
      <trkpt lat="45.1442" lon="5.90913">
        <ele>1381.2</ele>
        <time>2012-06-16T08:19:02Z</time>
      </trkpt>
      <trkpt lat="45.14415" lon="5.90923">
        <ele>1382.1</ele>
        <time>2012-06-16T08:19:12Z</time>
      </trkpt>
      <trkpt lat="45.14422" lon="5.90929">
        <ele>1384</ele>
        <time>2012-06-16T08:19:27Z</time>
      </trkpt>
      <trkpt lat="45.1443" lon="5.90933">
        <ele>1386.2</ele>
        <time>2012-06-16T08:19:36Z</time>
      </trkpt>
      <trkpt lat="45.14436" lon="5.90943">
        <ele>1388.2</ele>
        <time>2012-06-16T08:19:50Z</time>
      </trkpt>
      <trkpt lat="45.14436" lon="5.90944">
        <ele>1388.4</ele>
        <time>2012-06-16T08:19:51Z</time>
      </trkpt>
      <trkpt lat="45.14444" lon="5.90963">
        <ele>1391.2</ele>
        <time>2012-06-16T08:20:11Z</time>
      </trkpt>
      <trkpt lat="45.14451" lon="5.90972">
        <ele>1394</ele>
        <time>2012-06-16T08:20:26Z</time>
      </trkpt>
      <trkpt lat="45.14458" lon="5.90979">
        <ele>1396.1</ele>
        <time>2012-06-16T08:20:36Z</time>
      </trkpt>
      <trkpt lat="45.14462" lon="5.90989">
        <ele>1398.5</ele>
        <time>2012-06-16T08:20:49Z</time>
      </trkpt>
      <trkpt lat="45.14463" lon="5.91001">
        <ele>1401.1</ele>
        <time>2012-06-16T08:21:02Z</time>
      </trkpt>
      <trkpt lat="45.14463" lon="5.91002">
        <ele>1401.2</ele>
        <time>2012-06-16T08:21:03Z</time>
      </trkpt>
      <trkpt lat="45.14462" lon="5.91024">
        <ele>1404.4</ele>
        <time>2012-06-16T08:21:24Z</time>
      </trkpt>
      <trkpt lat="45.14465" lon="5.91036">
        <ele>1407.3</ele>
        <time>2012-06-16T08:21:38Z</time>
      </trkpt>
      <trkpt lat="45.14471" lon="5.91044">
        <ele>1409.4</ele>
        <time>2012-06-16T08:21:50Z</time>
      </trkpt>
      <trkpt lat="45.14475" lon="5.91055">
        <ele>1412.2</ele>
        <time>2012-06-16T08:22:07Z</time>
      </trkpt>
      <trkpt lat="45.14475" lon="5.91056">
        <ele>1412.3</ele>
        <time>2012-06-16T08:22:08Z</time>
      </trkpt>
      <trkpt lat="45.14477" lon="5.91078">
        <ele>1418.9</ele>
        <time>2012-06-16T08:22:37Z</time>
      </trkpt>
      <trkpt lat="45.14476" lon="5.9109">
        <ele>1420.4</ele>
        <time>2012-06-16T08:22:51Z</time>
      </trkpt>
      <trkpt lat="45.14474" lon="5.91102">
        <ele>1422.7</ele>
        <time>2012-06-16T08:23:02Z</time>
      </trkpt>
      <trkpt lat="45.14469" lon="5.91113">
        <ele>1422.8</ele>
        <time>2012-06-16T08:23:10Z</time>
      </trkpt>
      <trkpt lat="45.14468" lon="5.91114">
        <ele>1423.2</ele>
        <time>2012-06-16T08:23:11Z</time>
      </trkpt>
      <trkpt lat="45.1446" lon="5.91134">
        <ele>1427</ele>
        <time>2012-06-16T08:23:27Z</time>
      </trkpt>
      <trkpt lat="45.14465" lon="5.91144">
        <ele>1429.4</ele>
        <time>2012-06-16T08:23:52Z</time>
      </trkpt>
      <trkpt lat="45.14474" lon="5.91143">
        <ele>1430.1</ele>
        <time>2012-06-16T08:24:28Z</time>
      </trkpt>
      <trkpt lat="45.14475" lon="5.91142">
        <ele>1430.3</ele>
        <time>2012-06-16T08:24:29Z</time>
      </trkpt>
      <trkpt lat="45.14488" lon="5.91152">
        <ele>1432.2</ele>
        <time>2012-06-16T08:25:28Z</time>
      </trkpt>
      <trkpt lat="45.14495" lon="5.9116">
        <ele>1432.8</ele>
        <time>2012-06-16T08:25:36Z</time>
      </trkpt>
      <trkpt lat="45.14496" lon="5.9116">
        <ele>1433.4</ele>
        <time>2012-06-16T08:25:37Z</time>
      </trkpt>
      <trkpt lat="45.14506" lon="5.91177">
        <ele>1438.2</ele>
        <time>2012-06-16T08:25:55Z</time>
      </trkpt>
      <trkpt lat="45.1451" lon="5.91188">
        <ele>1439.5</ele>
        <time>2012-06-16T08:26:05Z</time>
      </trkpt>
      <trkpt lat="45.14516" lon="5.91198">
        <ele>1442.3</ele>
        <time>2012-06-16T08:26:18Z</time>
      </trkpt>
      <trkpt lat="45.14521" lon="5.91206">
        <ele>1443.5</ele>
        <time>2012-06-16T08:26:27Z</time>
      </trkpt>
      <trkpt lat="45.14527" lon="5.91218">
        <ele>1445</ele>
        <time>2012-06-16T08:26:38Z</time>
      </trkpt>
      <trkpt lat="45.14527" lon="5.9122">
        <ele>1445.8</ele>
        <time>2012-06-16T08:26:40Z</time>
      </trkpt>
      <trkpt lat="45.14522" lon="5.91241">
        <ele>1448.9</ele>
        <time>2012-06-16T08:27:02Z</time>
      </trkpt>
      <trkpt lat="45.14527" lon="5.91251">
        <ele>1450.5</ele>
        <time>2012-06-16T08:27:14Z</time>
      </trkpt>
      <trkpt lat="45.14529" lon="5.91265">
        <ele>1452</ele>
        <time>2012-06-16T08:27:28Z</time>
      </trkpt>
      <trkpt lat="45.14529" lon="5.91277">
        <ele>1455.8</ele>
        <time>2012-06-16T08:27:41Z</time>
      </trkpt>
      <trkpt lat="45.14529" lon="5.91278">
        <ele>1456</ele>
        <time>2012-06-16T08:27:42Z</time>
      </trkpt>
      <trkpt lat="45.14535" lon="5.91299">
        <ele>1459.7</ele>
        <time>2012-06-16T08:28:08Z</time>
      </trkpt>
      <trkpt lat="45.1454" lon="5.91309">
        <ele>1462</ele>
        <time>2012-06-16T08:28:19Z</time>
      </trkpt>
      <trkpt lat="45.14543" lon="5.91321">
        <ele>1464.5</ele>
        <time>2012-06-16T08:28:31Z</time>
      </trkpt>
      <trkpt lat="45.14546" lon="5.91332">
        <ele>1465.4</ele>
        <time>2012-06-16T08:28:41Z</time>
      </trkpt>
      <trkpt lat="45.14551" lon="5.91342">
        <ele>1467.5</ele>
        <time>2012-06-16T08:28:51Z</time>
      </trkpt>
      <trkpt lat="45.14552" lon="5.91343">
        <ele>1467.6</ele>
        <time>2012-06-16T08:28:52Z</time>
      </trkpt>
      <trkpt lat="45.14555" lon="5.91367">
        <ele>1473.7</ele>
        <time>2012-06-16T08:29:17Z</time>
      </trkpt>
      <trkpt lat="45.14562" lon="5.91373">
        <ele>1473.7</ele>
        <time>2012-06-16T08:29:27Z</time>
      </trkpt>
      <trkpt lat="45.14567" lon="5.91384">
        <ele>1476.9</ele>
        <time>2012-06-16T08:29:42Z</time>
      </trkpt>
      <trkpt lat="45.14567" lon="5.91396">
        <ele>1478</ele>
        <time>2012-06-16T08:29:56Z</time>
      </trkpt>
      <trkpt lat="45.14567" lon="5.91397">
        <ele>1477.9</ele>
        <time>2012-06-16T08:29:57Z</time>
      </trkpt>
      <trkpt lat="45.14567" lon="5.91419">
        <ele>1483.5</ele>
        <time>2012-06-16T08:30:22Z</time>
      </trkpt>
      <trkpt lat="45.14566" lon="5.91432">
        <ele>1484.8</ele>
        <time>2012-06-16T08:30:42Z</time>
      </trkpt>
      <trkpt lat="45.14571" lon="5.91443">
        <ele>1484.2</ele>
        <time>2012-06-16T08:31:02Z</time>
      </trkpt>
      <trkpt lat="45.14571" lon="5.91443">
        <ele>1484</ele>
        <time>2012-06-16T08:31:03Z</time>
      </trkpt>
      <trkpt lat="45.14588" lon="5.91438">
        <ele>1484.2</ele>
        <time>2012-06-16T08:31:56Z</time>
      </trkpt>
      <trkpt lat="45.14597" lon="5.91437">
        <ele>1485.1</ele>
        <time>2012-06-16T08:32:08Z</time>
      </trkpt>
      <trkpt lat="45.14598" lon="5.91437">
        <ele>1485</ele>
        <time>2012-06-16T08:32:09Z</time>
      </trkpt>
      <trkpt lat="45.14598" lon="5.91445">
        <ele>1485.8</ele>
        <time>2012-06-16T08:33:10Z</time>
      </trkpt>
      <trkpt lat="45.14597" lon="5.91445">
        <ele>1486</ele>
        <time>2012-06-16T08:33:11Z</time>
      </trkpt>
      <trkpt lat="45.14582" lon="5.91446">
        <ele>1487.5</ele>
        <time>2012-06-16T08:33:44Z</time>
      </trkpt>
      <trkpt lat="45.14573" lon="5.91448">
        <ele>1487.2</ele>
        <time>2012-06-16T08:33:54Z</time>
      </trkpt>
      <trkpt lat="45.14565" lon="5.91451">
        <ele>1485.9</ele>
        <time>2012-06-16T08:34:10Z</time>
      </trkpt>
      <trkpt lat="45.14557" lon="5.91454">
        <ele>1487.4</ele>
        <time>2012-06-16T08:34:16Z</time>
      </trkpt>
      <trkpt lat="45.14555" lon="5.91454">
        <ele>1487</ele>
        <time>2012-06-16T08:34:17Z</time>
      </trkpt>
      <trkpt lat="45.14541" lon="5.9146">
        <ele>1486.2</ele>
        <time>2012-06-16T08:34:23Z</time>
      </trkpt>
      <trkpt lat="45.14534" lon="5.91463">
        <ele>1486.7</ele>
        <time>2012-06-16T08:34:26Z</time>
      </trkpt>
      <trkpt lat="45.14527" lon="5.91466">
        <ele>1487.2</ele>
        <time>2012-06-16T08:34:30Z</time>
      </trkpt>
      <trkpt lat="45.1453" lon="5.91455">
        <ele>1486.7</ele>
        <time>2012-06-16T08:34:55Z</time>
      </trkpt>
      <trkpt lat="45.14537" lon="5.91448">
        <ele>1487.7</ele>
        <time>2012-06-16T08:35:00Z</time>
      </trkpt>
      <trkpt lat="45.14544" lon="5.9144">
        <ele>1489.3</ele>
        <time>2012-06-16T08:35:06Z</time>
      </trkpt>
      <trkpt lat="45.14547" lon="5.91429">
        <ele>1490.3</ele>
        <time>2012-06-16T08:35:18Z</time>
      </trkpt>
      <trkpt lat="45.14547" lon="5.91428">
        <ele>1490.3</ele>
        <time>2012-06-16T08:35:19Z</time>
      </trkpt>
      <trkpt lat="45.14548" lon="5.91406">
        <ele>1489.9</ele>
        <time>2012-06-16T08:35:37Z</time>
      </trkpt>
      <trkpt lat="45.14545" lon="5.91396">
        <ele>1489.7</ele>
        <time>2012-06-16T08:35:45Z</time>
      </trkpt>
      <trkpt lat="45.14547" lon="5.91385">
        <ele>1488.9</ele>
        <time>2012-06-16T08:35:59Z</time>
      </trkpt>
      <trkpt lat="45.14545" lon="5.91373">
        <ele>1488.7</ele>
        <time>2012-06-16T08:36:09Z</time>
      </trkpt>
      <trkpt lat="45.14541" lon="5.91362">
        <ele>1489.2</ele>
        <time>2012-06-16T08:36:18Z</time>
      </trkpt>
      <trkpt lat="45.14539" lon="5.91351">
        <ele>1491.1</ele>
        <time>2012-06-16T08:36:26Z</time>
      </trkpt>
      <trkpt lat="45.14539" lon="5.9135">
        <ele>1491.2</ele>
        <time>2012-06-16T08:36:27Z</time>
      </trkpt>
      <trkpt lat="45.14529" lon="5.91334">
        <ele>1493.3</ele>
        <time>2012-06-16T08:36:45Z</time>
      </trkpt>
      <trkpt lat="45.14522" lon="5.91327">
        <ele>1495.1</ele>
        <time>2012-06-16T08:36:56Z</time>
      </trkpt>
      <trkpt lat="45.14515" lon="5.91321">
        <ele>1496.6</ele>
        <time>2012-06-16T08:37:04Z</time>
      </trkpt>
      <trkpt lat="45.14506" lon="5.91321">
        <ele>1498.4</ele>
        <time>2012-06-16T08:37:14Z</time>
      </trkpt>
      <trkpt lat="45.14498" lon="5.91317">
        <ele>1500</ele>
        <time>2012-06-16T08:37:25Z</time>
      </trkpt>
      <trkpt lat="45.14498" lon="5.91329">
        <ele>1505.7</ele>
        <time>2012-06-16T08:37:57Z</time>
      </trkpt>
      <trkpt lat="45.14498" lon="5.9133">
        <ele>1505.5</ele>
        <time>2012-06-16T08:37:58Z</time>
      </trkpt>
      <trkpt lat="45.14509" lon="5.91349">
        <ele>1508.4</ele>
        <time>2012-06-16T08:38:18Z</time>
      </trkpt>
      <trkpt lat="45.14512" lon="5.9136">
        <ele>1509.7</ele>
        <time>2012-06-16T08:38:29Z</time>
      </trkpt>
      <trkpt lat="45.14504" lon="5.91357">
        <ele>1514.9</ele>
        <time>2012-06-16T08:39:07Z</time>
      </trkpt>
      <trkpt lat="45.14504" lon="5.91356">
        <ele>1515.4</ele>
        <time>2012-06-16T08:39:08Z</time>
      </trkpt>
      <trkpt lat="45.14498" lon="5.91376">
        <ele>1521.5</ele>
        <time>2012-06-16T08:39:39Z</time>
      </trkpt>
      <trkpt lat="45.14497" lon="5.91388">
        <ele>1531.5</ele>
        <time>2012-06-16T08:40:38Z</time>
      </trkpt>
      <trkpt lat="45.14498" lon="5.91389">
        <ele>1531.7</ele>
        <time>2012-06-16T08:40:39Z</time>
      </trkpt>
      <trkpt lat="45.14496" lon="5.91412">
        <ele>1534.9</ele>
        <time>2012-06-16T08:41:00Z</time>
      </trkpt>
      <trkpt lat="45.14496" lon="5.91425">
        <ele>1536.8</ele>
        <time>2012-06-16T08:41:10Z</time>
      </trkpt>
      <trkpt lat="45.14499" lon="5.91436">
        <ele>1538.7</ele>
        <time>2012-06-16T08:41:22Z</time>
      </trkpt>
      <trkpt lat="45.14505" lon="5.91446">
        <ele>1540.5</ele>
        <time>2012-06-16T08:41:36Z</time>
      </trkpt>
      <trkpt lat="45.14496" lon="5.91447">
        <ele>1547.4</ele>
        <time>2012-06-16T08:42:18Z</time>
      </trkpt>
      <trkpt lat="45.14495" lon="5.91447">
        <ele>1547.6</ele>
        <time>2012-06-16T08:42:19Z</time>
      </trkpt>
      <trkpt lat="45.14493" lon="5.91469">
        <ele>1552.8</ele>
        <time>2012-06-16T08:42:53Z</time>
      </trkpt>
      <trkpt lat="45.14492" lon="5.91481">
        <ele>1555.7</ele>
        <time>2012-06-16T08:43:08Z</time>
      </trkpt>
      <trkpt lat="45.14496" lon="5.91492">
        <ele>1558.4</ele>
        <time>2012-06-16T08:43:21Z</time>
      </trkpt>
      <trkpt lat="45.14496" lon="5.91494">
        <ele>1558.8</ele>
        <time>2012-06-16T08:43:22Z</time>
      </trkpt>
      <trkpt lat="45.14497" lon="5.91517">
        <ele>1567.9</ele>
        <time>2012-06-16T08:44:18Z</time>
      </trkpt>
      <trkpt lat="45.14504" lon="5.91524">
        <ele>1568.8</ele>
        <time>2012-06-16T08:44:28Z</time>
      </trkpt>
      <trkpt lat="45.14505" lon="5.91525">
        <ele>1569</ele>
        <time>2012-06-16T08:44:29Z</time>
      </trkpt>
      <trkpt lat="45.14514" lon="5.91544">
        <ele>1572</ele>
        <time>2012-06-16T08:44:53Z</time>
      </trkpt>
      <trkpt lat="45.14515" lon="5.91557">
        <ele>1576</ele>
        <time>2012-06-16T08:45:15Z</time>
      </trkpt>
      <trkpt lat="45.14516" lon="5.91569">
        <ele>1578</ele>
        <time>2012-06-16T08:45:37Z</time>
      </trkpt>
      <trkpt lat="45.14516" lon="5.91569">
        <ele>1577.9</ele>
        <time>2012-06-16T08:45:38Z</time>
      </trkpt>
      <trkpt lat="45.14509" lon="5.91577">
        <ele>1578.7</ele>
        <time>2012-06-16T08:47:07Z</time>
      </trkpt>
      <trkpt lat="45.14495" lon="5.91593">
        <ele>1585.8</ele>
        <time>2012-06-16T08:48:05Z</time>
      </trkpt>
      <trkpt lat="45.14501" lon="5.91603">
        <ele>1589.7</ele>
        <time>2012-06-16T08:48:27Z</time>
      </trkpt>
      <trkpt lat="45.14501" lon="5.91604">
        <ele>1589.6</ele>
        <time>2012-06-16T08:48:28Z</time>
      </trkpt>
      <trkpt lat="45.14507" lon="5.91626">
        <ele>1591.7</ele>
        <time>2012-06-16T08:48:50Z</time>
      </trkpt>
      <trkpt lat="45.14509" lon="5.91638">
        <ele>1592.1</ele>
        <time>2012-06-16T08:49:00Z</time>
      </trkpt>
      <trkpt lat="45.14513" lon="5.91647">
        <ele>1593.1</ele>
        <time>2012-06-16T08:49:08Z</time>
      </trkpt>
      <trkpt lat="45.14518" lon="5.91657">
        <ele>1592.2</ele>
        <time>2012-06-16T08:49:27Z</time>
      </trkpt>
      <trkpt lat="45.14527" lon="5.91662">
        <ele>1593.7</ele>
        <time>2012-06-16T08:51:21Z</time>
      </trkpt>
      <trkpt lat="45.14527" lon="5.91661">
        <ele>1593.8</ele>
        <time>2012-06-16T08:51:22Z</time>
      </trkpt>
      <trkpt lat="45.14541" lon="5.91662">
        <ele>1595.2</ele>
        <time>2012-06-16T08:54:13Z</time>
      </trkpt>
      <trkpt lat="45.14541" lon="5.91662">
        <ele>1595.4</ele>
        <time>2012-06-16T08:54:14Z</time>
      </trkpt>
      <trkpt lat="45.14554" lon="5.91677">
        <ele>1598.5</ele>
        <time>2012-06-16T08:55:16Z</time>
      </trkpt>
      <trkpt lat="45.14554" lon="5.91678">
        <ele>1598.5</ele>
        <time>2012-06-16T08:55:17Z</time>
      </trkpt>
      <trkpt lat="45.14563" lon="5.91694">
        <ele>1601.7</ele>
        <time>2012-06-16T08:55:59Z</time>
      </trkpt>
      <trkpt lat="45.14562" lon="5.91681">
        <ele>1597.9</ele>
        <time>2012-06-16T08:56:13Z</time>
      </trkpt>
      <trkpt lat="45.14554" lon="5.91675">
        <ele>1596.2</ele>
        <time>2012-06-16T08:56:27Z</time>
      </trkpt>
      <trkpt lat="45.14554" lon="5.91675">
        <ele>1595.9</ele>
        <time>2012-06-16T08:56:28Z</time>
      </trkpt>
      <trkpt lat="45.14549" lon="5.91658">
        <ele>1594.8</ele>
        <time>2012-06-16T08:57:26Z</time>
      </trkpt>
      <trkpt lat="45.14558" lon="5.9166">
        <ele>1594.9</ele>
        <time>2012-06-16T08:57:43Z</time>
      </trkpt>
      <trkpt lat="45.14558" lon="5.9166">
        <ele>1594.6</ele>
        <time>2012-06-16T08:57:44Z</time>
      </trkpt>
      <trkpt lat="45.14558" lon="5.91657">
        <ele>1596</ele>
        <time>2012-06-16T09:01:07Z</time>
      </trkpt>
      <trkpt lat="45.14557" lon="5.91657">
        <ele>1595.6</ele>
        <time>2012-06-16T09:01:08Z</time>
      </trkpt>
      <trkpt lat="45.14541" lon="5.91651">
        <ele>1595.3</ele>
        <time>2012-06-16T09:01:33Z</time>
      </trkpt>
      <trkpt lat="45.14533" lon="5.91649">
        <ele>1592.7</ele>
        <time>2012-06-16T09:01:55Z</time>
      </trkpt>
      <trkpt lat="45.14524" lon="5.91649">
        <ele>1595.9</ele>
        <time>2012-06-16T09:02:16Z</time>
      </trkpt>
      <trkpt lat="45.14523" lon="5.9165">
        <ele>1594.9</ele>
        <time>2012-06-16T09:02:17Z</time>
      </trkpt>
      <trkpt lat="45.14518" lon="5.9167">
        <ele>1593.2</ele>
        <time>2012-06-16T09:02:37Z</time>
      </trkpt>
      <trkpt lat="45.1452" lon="5.91681">
        <ele>1593.6</ele>
        <time>2012-06-16T09:02:45Z</time>
      </trkpt>
      <trkpt lat="45.14525" lon="5.91691">
        <ele>1593.2</ele>
        <time>2012-06-16T09:02:55Z</time>
      </trkpt>
      <trkpt lat="45.14523" lon="5.91703">
        <ele>1593.8</ele>
        <time>2012-06-16T09:03:08Z</time>
      </trkpt>
      <trkpt lat="45.14525" lon="5.91714">
        <ele>1593.8</ele>
        <time>2012-06-16T09:03:17Z</time>
      </trkpt>
      <trkpt lat="45.14525" lon="5.91726">
        <ele>1594.8</ele>
        <time>2012-06-16T09:03:27Z</time>
      </trkpt>
      <trkpt lat="45.14524" lon="5.91727">
        <ele>1594.9</ele>
        <time>2012-06-16T09:03:28Z</time>
      </trkpt>
      <trkpt lat="45.14524" lon="5.91751">
        <ele>1594.9</ele>
        <time>2012-06-16T09:03:54Z</time>
      </trkpt>
      <trkpt lat="45.14523" lon="5.91762">
        <ele>1596.2</ele>
        <time>2012-06-16T09:04:03Z</time>
      </trkpt>
      <trkpt lat="45.14522" lon="5.91774">
        <ele>1596.3</ele>
        <time>2012-06-16T09:04:13Z</time>
      </trkpt>
      <trkpt lat="45.14523" lon="5.91787">
        <ele>1595.6</ele>
        <time>2012-06-16T09:04:26Z</time>
      </trkpt>
      <trkpt lat="45.14523" lon="5.918">
        <ele>1596.5</ele>
        <time>2012-06-16T09:04:35Z</time>
      </trkpt>
      <trkpt lat="45.14523" lon="5.91801">
        <ele>1596.6</ele>
        <time>2012-06-16T09:04:36Z</time>
      </trkpt>
      <trkpt lat="45.14519" lon="5.91824">
        <ele>1597</ele>
        <time>2012-06-16T09:04:59Z</time>
      </trkpt>
      <trkpt lat="45.14517" lon="5.91836">
        <ele>1598.2</ele>
        <time>2012-06-16T09:06:09Z</time>
      </trkpt>
      <trkpt lat="45.14517" lon="5.91836">
        <ele>1598.5</ele>
        <time>2012-06-16T09:06:10Z</time>
      </trkpt>
      <trkpt lat="45.14502" lon="5.91845">
        <ele>1605.5</ele>
        <time>2012-06-16T09:06:55Z</time>
      </trkpt>
      <trkpt lat="45.14493" lon="5.91847">
        <ele>1610.4</ele>
        <time>2012-06-16T09:07:23Z</time>
      </trkpt>
      <trkpt lat="45.14493" lon="5.91847">
        <ele>1610.9</ele>
        <time>2012-06-16T09:07:24Z</time>
      </trkpt>
      <trkpt lat="45.14476" lon="5.91849">
        <ele>1618.8</ele>
        <time>2012-06-16T09:08:10Z</time>
      </trkpt>
      <trkpt lat="45.14467" lon="5.91846">
        <ele>1622.1</ele>
        <time>2012-06-16T09:08:30Z</time>
      </trkpt>
      <trkpt lat="45.14467" lon="5.91846">
        <ele>1622.3</ele>
        <time>2012-06-16T09:08:31Z</time>
      </trkpt>
      <trkpt lat="45.1445" lon="5.91842">
        <ele>1630.9</ele>
        <time>2012-06-16T09:09:27Z</time>
      </trkpt>
      <trkpt lat="45.14441" lon="5.91844">
        <ele>1634</ele>
        <time>2012-06-16T09:09:44Z</time>
      </trkpt>
      <trkpt lat="45.14441" lon="5.91844">
        <ele>1634.2</ele>
        <time>2012-06-16T09:09:45Z</time>
      </trkpt>
      <trkpt lat="45.14424" lon="5.91838">
        <ele>1641.9</ele>
        <time>2012-06-16T09:10:33Z</time>
      </trkpt>
      <trkpt lat="45.14418" lon="5.9183">
        <ele>1648.1</ele>
        <time>2012-06-16T09:11:07Z</time>
      </trkpt>
      <trkpt lat="45.14418" lon="5.91829">
        <ele>1648.1</ele>
        <time>2012-06-16T09:11:08Z</time>
      </trkpt>
      <trkpt lat="45.14404" lon="5.91817">
        <ele>1658.7</ele>
        <time>2012-06-16T09:12:03Z</time>
      </trkpt>
      <trkpt lat="45.14402" lon="5.91805">
        <ele>1661.5</ele>
        <time>2012-06-16T09:13:16Z</time>
      </trkpt>
      <trkpt lat="45.14401" lon="5.91804">
        <ele>1661.5</ele>
        <time>2012-06-16T09:13:17Z</time>
      </trkpt>
      <trkpt lat="45.14392" lon="5.91785">
        <ele>1668.5</ele>
        <time>2012-06-16T09:15:03Z</time>
      </trkpt>
      <trkpt lat="45.14391" lon="5.91784">
        <ele>1669</ele>
        <time>2012-06-16T09:15:04Z</time>
      </trkpt>
      <trkpt lat="45.14381" lon="5.91765">
        <ele>1675.4</ele>
        <time>2012-06-16T09:15:37Z</time>
      </trkpt>
      <trkpt lat="45.14374" lon="5.91759">
        <ele>1678.7</ele>
        <time>2012-06-16T09:15:53Z</time>
      </trkpt>
      <trkpt lat="45.14369" lon="5.91748">
        <ele>1682.1</ele>
        <time>2012-06-16T09:16:08Z</time>
      </trkpt>
      <trkpt lat="45.14369" lon="5.91747">
        <ele>1682.3</ele>
        <time>2012-06-16T09:16:09Z</time>
      </trkpt>
      <trkpt lat="45.14358" lon="5.91729">
        <ele>1689.8</ele>
        <time>2012-06-16T09:16:57Z</time>
      </trkpt>
      <trkpt lat="45.14354" lon="5.91718">
        <ele>1693.1</ele>
        <time>2012-06-16T09:17:15Z</time>
      </trkpt>
      <trkpt lat="45.14354" lon="5.91717">
        <ele>1693.5</ele>
        <time>2012-06-16T09:17:16Z</time>
      </trkpt>
      <trkpt lat="45.14343" lon="5.91714">
        <ele>1701.9</ele>
        <time>2012-06-16T09:17:58Z</time>
      </trkpt>
      <trkpt lat="45.14336" lon="5.9172">
        <ele>1705.8</ele>
        <time>2012-06-16T09:18:17Z</time>
      </trkpt>
      <trkpt lat="45.14336" lon="5.91721">
        <ele>1706</ele>
        <time>2012-06-16T09:18:18Z</time>
      </trkpt>
      <trkpt lat="45.14327" lon="5.91741">
        <ele>1708.4</ele>
        <time>2012-06-16T09:18:42Z</time>
      </trkpt>
      <trkpt lat="45.14325" lon="5.91754">
        <ele>1711.6</ele>
        <time>2012-06-16T09:18:56Z</time>
      </trkpt>
      <trkpt lat="45.14323" lon="5.91766">
        <ele>1715.5</ele>
        <time>2012-06-16T09:19:16Z</time>
      </trkpt>
      <trkpt lat="45.14318" lon="5.91775">
        <ele>1717.5</ele>
        <time>2012-06-16T09:19:30Z</time>
      </trkpt>
      <trkpt lat="45.14317" lon="5.91776">
        <ele>1717.6</ele>
        <time>2012-06-16T09:19:31Z</time>
      </trkpt>
      <trkpt lat="45.14304" lon="5.91786">
        <ele>1723.1</ele>
        <time>2012-06-16T09:20:02Z</time>
      </trkpt>
      <trkpt lat="45.14299" lon="5.91797">
        <ele>1723.8</ele>
        <time>2012-06-16T09:20:18Z</time>
      </trkpt>
      <trkpt lat="45.14297" lon="5.91809">
        <ele>1724</ele>
        <time>2012-06-16T09:20:29Z</time>
      </trkpt>
      <trkpt lat="45.14291" lon="5.91817">
        <ele>1726.1</ele>
        <time>2012-06-16T09:20:41Z</time>
      </trkpt>
      <trkpt lat="45.1429" lon="5.91818">
        <ele>1726.4</ele>
        <time>2012-06-16T09:20:42Z</time>
      </trkpt>
      <trkpt lat="45.14283" lon="5.91839">
        <ele>1732.1</ele>
        <time>2012-06-16T09:21:11Z</time>
      </trkpt>
      <trkpt lat="45.14279" lon="5.9185">
        <ele>1734.5</ele>
        <time>2012-06-16T09:21:24Z</time>
      </trkpt>
      <trkpt lat="45.14277" lon="5.91863">
        <ele>1737.9</ele>
        <time>2012-06-16T09:21:44Z</time>
      </trkpt>
      <trkpt lat="45.14278" lon="5.91863">
        <ele>1738.1</ele>
        <time>2012-06-16T09:21:45Z</time>
      </trkpt>
      <trkpt lat="45.14272" lon="5.91886">
        <ele>1744.6</ele>
        <time>2012-06-16T09:22:17Z</time>
      </trkpt>
      <trkpt lat="45.14267" lon="5.91896">
        <ele>1747</ele>
        <time>2012-06-16T09:22:36Z</time>
      </trkpt>
      <trkpt lat="45.14268" lon="5.91909">
        <ele>1750.1</ele>
        <time>2012-06-16T09:22:50Z</time>
      </trkpt>
      <trkpt lat="45.14268" lon="5.9191">
        <ele>1749.9</ele>
        <time>2012-06-16T09:22:51Z</time>
      </trkpt>
      <trkpt lat="45.1427" lon="5.91933">
        <ele>1756.2</ele>
        <time>2012-06-16T09:23:22Z</time>
      </trkpt>
      <trkpt lat="45.14268" lon="5.91945">
        <ele>1760</ele>
        <time>2012-06-16T09:23:41Z</time>
      </trkpt>
      <trkpt lat="45.14263" lon="5.91955">
        <ele>1764.7</ele>
        <time>2012-06-16T09:24:08Z</time>
      </trkpt>
      <trkpt lat="45.14262" lon="5.91956">
        <ele>1764.5</ele>
        <time>2012-06-16T09:24:09Z</time>
      </trkpt>
      <trkpt lat="45.14254" lon="5.91977">
        <ele>1773.4</ele>
        <time>2012-06-16T09:24:56Z</time>
      </trkpt>
      <trkpt lat="45.14249" lon="5.91987">
        <ele>1776.1</ele>
        <time>2012-06-16T09:25:14Z</time>
      </trkpt>
      <trkpt lat="45.14249" lon="5.91988">
        <ele>1776.3</ele>
        <time>2012-06-16T09:25:15Z</time>
      </trkpt>
      <trkpt lat="45.14237" lon="5.92005">
        <ele>1785.5</ele>
        <time>2012-06-16T09:26:09Z</time>
      </trkpt>
      <trkpt lat="45.14232" lon="5.92015">
        <ele>1791</ele>
        <time>2012-06-16T09:26:40Z</time>
      </trkpt>
      <trkpt lat="45.14232" lon="5.92016">
        <ele>1791.2</ele>
        <time>2012-06-16T09:26:41Z</time>
      </trkpt>
      <trkpt lat="45.14222" lon="5.92035">
        <ele>1799.3</ele>
        <time>2012-06-16T09:27:24Z</time>
      </trkpt>
      <trkpt lat="45.14216" lon="5.92043">
        <ele>1801</ele>
        <time>2012-06-16T09:27:36Z</time>
      </trkpt>
      <trkpt lat="45.1421" lon="5.92053">
        <ele>1803.8</ele>
        <time>2012-06-16T09:27:48Z</time>
      </trkpt>
      <trkpt lat="45.1421" lon="5.92054">
        <ele>1804</ele>
        <time>2012-06-16T09:27:49Z</time>
      </trkpt>
      <trkpt lat="45.14207" lon="5.92075">
        <ele>1806.4</ele>
        <time>2012-06-16T09:28:11Z</time>
      </trkpt>
      <trkpt lat="45.14203" lon="5.92086">
        <ele>1809.1</ele>
        <time>2012-06-16T09:28:24Z</time>
      </trkpt>
      <trkpt lat="45.14198" lon="5.92096">
        <ele>1812.2</ele>
        <time>2012-06-16T09:28:43Z</time>
      </trkpt>
      <trkpt lat="45.14197" lon="5.92109">
        <ele>1814.2</ele>
        <time>2012-06-16T09:29:02Z</time>
      </trkpt>
      <trkpt lat="45.14196" lon="5.92109">
        <ele>1814.4</ele>
        <time>2012-06-16T09:29:03Z</time>
      </trkpt>
      <trkpt lat="45.1418" lon="5.92115">
        <ele>1819.9</ele>
        <time>2012-06-16T09:29:57Z</time>
      </trkpt>
      <trkpt lat="45.14175" lon="5.92125">
        <ele>1824.4</ele>
        <time>2012-06-16T09:30:16Z</time>
      </trkpt>
      <trkpt lat="45.14175" lon="5.92126">
        <ele>1824.4</ele>
        <time>2012-06-16T09:30:17Z</time>
      </trkpt>
      <trkpt lat="45.14159" lon="5.92123">
        <ele>1830.3</ele>
        <time>2012-06-16T09:30:47Z</time>
      </trkpt>
      <trkpt lat="45.14151" lon="5.92127">
        <ele>1832.4</ele>
        <time>2012-06-16T09:31:01Z</time>
      </trkpt>
      <trkpt lat="45.14143" lon="5.9213">
        <ele>1834.2</ele>
        <time>2012-06-16T09:31:09Z</time>
      </trkpt>
      <trkpt lat="45.14135" lon="5.92135">
        <ele>1833.4</ele>
        <time>2012-06-16T09:31:28Z</time>
      </trkpt>
      <trkpt lat="45.14135" lon="5.92136">
        <ele>1834</ele>
        <time>2012-06-16T09:31:29Z</time>
      </trkpt>
      <trkpt lat="45.14132" lon="5.92147">
        <ele>1835.3</ele>
        <time>2012-06-16T09:32:50Z</time>
      </trkpt>
      <trkpt lat="45.14129" lon="5.92134">
        <ele>1834</ele>
        <time>2012-06-16T09:34:24Z</time>
      </trkpt>
      <trkpt lat="45.14118" lon="5.92118">
        <ele>1835.6</ele>
        <time>2012-06-16T09:35:00Z</time>
      </trkpt>
      <trkpt lat="45.14109" lon="5.92118">
        <ele>1836.7</ele>
        <time>2012-06-16T09:35:11Z</time>
      </trkpt>
      <trkpt lat="45.14101" lon="5.92119">
        <ele>1838.9</ele>
        <time>2012-06-16T09:35:20Z</time>
      </trkpt>
      <trkpt lat="45.14093" lon="5.92117">
        <ele>1839.4</ele>
        <time>2012-06-16T09:35:28Z</time>
      </trkpt>
      <trkpt lat="45.14092" lon="5.92116">
        <ele>1839.5</ele>
        <time>2012-06-16T09:35:29Z</time>
      </trkpt>
      <trkpt lat="45.14076" lon="5.92122">
        <ele>1839.5</ele>
        <time>2012-06-16T09:35:51Z</time>
      </trkpt>
      <trkpt lat="45.14068" lon="5.92128">
        <ele>1841.7</ele>
        <time>2012-06-16T09:36:11Z</time>
      </trkpt>
      <trkpt lat="45.14059" lon="5.92124">
        <ele>1841.7</ele>
        <time>2012-06-16T09:36:25Z</time>
      </trkpt>
      <trkpt lat="45.14051" lon="5.92123">
        <ele>1844.5</ele>
        <time>2012-06-16T09:36:41Z</time>
      </trkpt>
      <trkpt lat="45.1405" lon="5.92123">
        <ele>1845.3</ele>
        <time>2012-06-16T09:36:42Z</time>
      </trkpt>
      <trkpt lat="45.14037" lon="5.92135">
        <ele>1850.6</ele>
        <time>2012-06-16T09:37:17Z</time>
      </trkpt>
      <trkpt lat="45.1403" lon="5.92144">
        <ele>1853.3</ele>
        <time>2012-06-16T09:37:31Z</time>
      </trkpt>
      <trkpt lat="45.14022" lon="5.92145">
        <ele>1855.7</ele>
        <time>2012-06-16T09:37:46Z</time>
      </trkpt>
      <trkpt lat="45.14021" lon="5.92145">
        <ele>1855.9</ele>
        <time>2012-06-16T09:37:47Z</time>
      </trkpt>
      <trkpt lat="45.14007" lon="5.92158">
        <ele>1864</ele>
        <time>2012-06-16T09:40:00Z</time>
      </trkpt>
      <trkpt lat="45.14006" lon="5.92157">
        <ele>1864</ele>
        <time>2012-06-16T09:40:01Z</time>
      </trkpt>
      <trkpt lat="45.1399" lon="5.92164">
        <ele>1869.6</ele>
        <time>2012-06-16T09:40:28Z</time>
      </trkpt>
      <trkpt lat="45.13981" lon="5.92164">
        <ele>1874.6</ele>
        <time>2012-06-16T09:40:54Z</time>
      </trkpt>
      <trkpt lat="45.13973" lon="5.92163">
        <ele>1880.3</ele>
        <time>2012-06-16T09:41:29Z</time>
      </trkpt>
      <trkpt lat="45.13972" lon="5.92164">
        <ele>1880.5</ele>
        <time>2012-06-16T09:41:30Z</time>
      </trkpt>
      <trkpt lat="45.13956" lon="5.92168">
        <ele>1885.8</ele>
        <time>2012-06-16T09:42:05Z</time>
      </trkpt>
      <trkpt lat="45.13948" lon="5.92172">
        <ele>1886.9</ele>
        <time>2012-06-16T09:42:15Z</time>
      </trkpt>
      <trkpt lat="45.13939" lon="5.92174">
        <ele>1888.4</ele>
        <time>2012-06-16T09:42:31Z</time>
      </trkpt>
      <trkpt lat="45.1393" lon="5.92173">
        <ele>1891.6</ele>
        <time>2012-06-16T09:42:47Z</time>
      </trkpt>
      <trkpt lat="45.1393" lon="5.92173">
        <ele>1891.8</ele>
        <time>2012-06-16T09:42:48Z</time>
      </trkpt>
      <trkpt lat="45.13914" lon="5.92177">
        <ele>1894.3</ele>
        <time>2012-06-16T09:43:11Z</time>
      </trkpt>
      <trkpt lat="45.13906" lon="5.92182">
        <ele>1894.1</ele>
        <time>2012-06-16T09:43:18Z</time>
      </trkpt>
      <trkpt lat="45.13898" lon="5.92181">
        <ele>1893.3</ele>
        <time>2012-06-16T09:43:27Z</time>
      </trkpt>
      <trkpt lat="45.1389" lon="5.9218">
        <ele>1893.7</ele>
        <time>2012-06-16T09:43:37Z</time>
      </trkpt>
      <trkpt lat="45.13881" lon="5.92177">
        <ele>1895.7</ele>
        <time>2012-06-16T09:43:48Z</time>
      </trkpt>
      <trkpt lat="45.13873" lon="5.92183">
        <ele>1897</ele>
        <time>2012-06-16T09:44:03Z</time>
      </trkpt>
      <trkpt lat="45.13873" lon="5.92184">
        <ele>1896.8</ele>
        <time>2012-06-16T09:44:04Z</time>
      </trkpt>
      <trkpt lat="45.13858" lon="5.92189">
        <ele>1897.3</ele>
        <time>2012-06-16T09:44:22Z</time>
      </trkpt>
      <trkpt lat="45.13851" lon="5.92183">
        <ele>1899.1</ele>
        <time>2012-06-16T09:44:34Z</time>
      </trkpt>
      <trkpt lat="45.13843" lon="5.92178">
        <ele>1902.1</ele>
        <time>2012-06-16T09:44:47Z</time>
      </trkpt>
      <trkpt lat="45.13835" lon="5.92173">
        <ele>1902.9</ele>
        <time>2012-06-16T09:44:57Z</time>
      </trkpt>
      <trkpt lat="45.13827" lon="5.92169">
        <ele>1905.8</ele>
        <time>2012-06-16T09:45:08Z</time>
      </trkpt>
      <trkpt lat="45.13827" lon="5.92169">
        <ele>1906.1</ele>
        <time>2012-06-16T09:45:09Z</time>
      </trkpt>
      <trkpt lat="45.13812" lon="5.9218">
        <ele>1907.5</ele>
        <time>2012-06-16T09:45:38Z</time>
      </trkpt>
      <trkpt lat="45.13805" lon="5.92188">
        <ele>1907.5</ele>
        <time>2012-06-16T09:45:47Z</time>
      </trkpt>
      <trkpt lat="45.13798" lon="5.92194">
        <ele>1906.1</ele>
        <time>2012-06-16T09:45:57Z</time>
      </trkpt>
      <trkpt lat="45.13789" lon="5.92195">
        <ele>1906</ele>
        <time>2012-06-16T09:46:07Z</time>
      </trkpt>
      <trkpt lat="45.13781" lon="5.92197">
        <ele>1905.2</ele>
        <time>2012-06-16T09:46:15Z</time>
      </trkpt>
      <trkpt lat="45.1378" lon="5.92197">
        <ele>1905.3</ele>
        <time>2012-06-16T09:46:16Z</time>
      </trkpt>
      <trkpt lat="45.13764" lon="5.92203">
        <ele>1905.8</ele>
        <time>2012-06-16T09:46:36Z</time>
      </trkpt>
      <trkpt lat="45.13759" lon="5.92214">
        <ele>1905</ele>
        <time>2012-06-16T09:47:02Z</time>
      </trkpt>
      <trkpt lat="45.13766" lon="5.92222">
        <ele>1903.5</ele>
        <time>2012-06-16T09:47:16Z</time>
      </trkpt>
      <trkpt lat="45.13774" lon="5.92226">
        <ele>1901.1</ele>
        <time>2012-06-16T09:47:27Z</time>
      </trkpt>
      <trkpt lat="45.13775" lon="5.92226">
        <ele>1900.9</ele>
        <time>2012-06-16T09:47:28Z</time>
      </trkpt>
      <trkpt lat="45.1379" lon="5.92234">
        <ele>1897.2</ele>
        <time>2012-06-16T09:47:56Z</time>
      </trkpt>
      <trkpt lat="45.13797" lon="5.92242">
        <ele>1896.5</ele>
        <time>2012-06-16T09:48:07Z</time>
      </trkpt>
      <trkpt lat="45.13802" lon="5.9225">
        <ele>1899.2</ele>
        <time>2012-06-16T09:48:19Z</time>
      </trkpt>
      <trkpt lat="45.1381" lon="5.92256">
        <ele>1899.4</ele>
        <time>2012-06-16T09:48:28Z</time>
      </trkpt>
      <trkpt lat="45.13818" lon="5.9226">
        <ele>1899</ele>
        <time>2012-06-16T09:48:37Z</time>
      </trkpt>
      <trkpt lat="45.13819" lon="5.92261">
        <ele>1899</ele>
        <time>2012-06-16T09:48:38Z</time>
      </trkpt>
      <trkpt lat="45.13835" lon="5.92265">
        <ele>1896.8</ele>
        <time>2012-06-16T09:49:01Z</time>
      </trkpt>
      <trkpt lat="45.13844" lon="5.92266">
        <ele>1895.3</ele>
        <time>2012-06-16T09:49:09Z</time>
      </trkpt>
      <trkpt lat="45.13852" lon="5.92263">
        <ele>1896.1</ele>
        <time>2012-06-16T09:49:17Z</time>
      </trkpt>
      <trkpt lat="45.13861" lon="5.92262">
        <ele>1895.8</ele>
        <time>2012-06-16T09:49:28Z</time>
      </trkpt>
      <trkpt lat="45.13867" lon="5.92271">
        <ele>1897.5</ele>
        <time>2012-06-16T09:49:42Z</time>
      </trkpt>
      <trkpt lat="45.13868" lon="5.92271">
        <ele>1897.7</ele>
        <time>2012-06-16T09:49:43Z</time>
      </trkpt>
      <trkpt lat="45.13884" lon="5.92261">
        <ele>1900.5</ele>
        <time>2012-06-16T09:50:14Z</time>
      </trkpt>
      <trkpt lat="45.13892" lon="5.92266">
        <ele>1903.5</ele>
        <time>2012-06-16T09:50:32Z</time>
      </trkpt>
      <trkpt lat="45.139" lon="5.92269">
        <ele>1904.4</ele>
        <time>2012-06-16T09:50:46Z</time>
      </trkpt>
      <trkpt lat="45.13901" lon="5.92269">
        <ele>1904.8</ele>
        <time>2012-06-16T09:50:47Z</time>
      </trkpt>
      <trkpt lat="45.13916" lon="5.92275">
        <ele>1900.5</ele>
        <time>2012-06-16T09:51:11Z</time>
      </trkpt>
      <trkpt lat="45.13923" lon="5.92283">
        <ele>1899.6</ele>
        <time>2012-06-16T09:51:22Z</time>
      </trkpt>
      <trkpt lat="45.13931" lon="5.92287">
        <ele>1899.7</ele>
        <time>2012-06-16T09:51:40Z</time>
      </trkpt>
      <trkpt lat="45.1394" lon="5.92287">
        <ele>1900.6</ele>
        <time>2012-06-16T09:51:59Z</time>
      </trkpt>
      <trkpt lat="45.13941" lon="5.92287">
        <ele>1900.4</ele>
        <time>2012-06-16T09:52:00Z</time>
      </trkpt>
      <trkpt lat="45.13953" lon="5.92304">
        <ele>1899.7</ele>
        <time>2012-06-16T09:54:16Z</time>
      </trkpt>
      <trkpt lat="45.13953" lon="5.92305">
        <ele>1899.7</ele>
        <time>2012-06-16T09:54:17Z</time>
      </trkpt>
      <trkpt lat="45.13956" lon="5.92327">
        <ele>1900.5</ele>
        <time>2012-06-16T09:54:45Z</time>
      </trkpt>
      <trkpt lat="45.13959" lon="5.92339">
        <ele>1900</ele>
        <time>2012-06-16T09:55:03Z</time>
      </trkpt>
      <trkpt lat="45.13965" lon="5.92348">
        <ele>1901.3</ele>
        <time>2012-06-16T09:55:17Z</time>
      </trkpt>
      <trkpt lat="45.13973" lon="5.92352">
        <ele>1900.1</ele>
        <time>2012-06-16T09:55:27Z</time>
      </trkpt>
      <trkpt lat="45.13974" lon="5.92353">
        <ele>1899.9</ele>
        <time>2012-06-16T09:55:28Z</time>
      </trkpt>
      <trkpt lat="45.1399" lon="5.9235">
        <ele>1900.6</ele>
        <time>2012-06-16T09:55:45Z</time>
      </trkpt>
      <trkpt lat="45.13998" lon="5.9235">
        <ele>1898.7</ele>
        <time>2012-06-16T09:55:54Z</time>
      </trkpt>
      <trkpt lat="45.14007" lon="5.92353">
        <ele>1897.3</ele>
        <time>2012-06-16T09:56:06Z</time>
      </trkpt>
      <trkpt lat="45.14015" lon="5.92351">
        <ele>1895.6</ele>
        <time>2012-06-16T09:56:17Z</time>
      </trkpt>
      <trkpt lat="45.14023" lon="5.92351">
        <ele>1894.1</ele>
        <time>2012-06-16T09:56:25Z</time>
      </trkpt>
      <trkpt lat="45.14031" lon="5.92348">
        <ele>1894.6</ele>
        <time>2012-06-16T09:56:34Z</time>
      </trkpt>
      <trkpt lat="45.14032" lon="5.92349">
        <ele>1894.4</ele>
        <time>2012-06-16T09:56:35Z</time>
      </trkpt>
      <trkpt lat="45.14047" lon="5.92355">
        <ele>1896</ele>
        <time>2012-06-16T09:56:53Z</time>
      </trkpt>
      <trkpt lat="45.14056" lon="5.92359">
        <ele>1898.5</ele>
        <time>2012-06-16T09:57:09Z</time>
      </trkpt>
      <trkpt lat="45.14064" lon="5.92362">
        <ele>1899.2</ele>
        <time>2012-06-16T09:57:20Z</time>
      </trkpt>
      <trkpt lat="45.14068" lon="5.92373">
        <ele>1897.4</ele>
        <time>2012-06-16T09:57:30Z</time>
      </trkpt>
      <trkpt lat="45.14076" lon="5.92378">
        <ele>1898.8</ele>
        <time>2012-06-16T09:57:44Z</time>
      </trkpt>
      <trkpt lat="45.14076" lon="5.92378">
        <ele>1898.3</ele>
        <time>2012-06-16T09:57:45Z</time>
      </trkpt>
      <trkpt lat="45.14093" lon="5.92383">
        <ele>1894.6</ele>
        <time>2012-06-16T09:58:15Z</time>
      </trkpt>
      <trkpt lat="45.141" lon="5.92391">
        <ele>1893.1</ele>
        <time>2012-06-16T09:58:25Z</time>
      </trkpt>
      <trkpt lat="45.14105" lon="5.92399">
        <ele>1895.2</ele>
        <time>2012-06-16T09:58:37Z</time>
      </trkpt>
      <trkpt lat="45.14112" lon="5.92407">
        <ele>1895.5</ele>
        <time>2012-06-16T09:58:48Z</time>
      </trkpt>
      <trkpt lat="45.14113" lon="5.92407">
        <ele>1895.1</ele>
        <time>2012-06-16T09:58:49Z</time>
      </trkpt>
      <trkpt lat="45.14129" lon="5.92416">
        <ele>1896.5</ele>
        <time>2012-06-16T09:59:18Z</time>
      </trkpt>
      <trkpt lat="45.14137" lon="5.92419">
        <ele>1898</ele>
        <time>2012-06-16T09:59:32Z</time>
      </trkpt>
      <trkpt lat="45.14146" lon="5.92423">
        <ele>1900.5</ele>
        <time>2012-06-16T09:59:47Z</time>
      </trkpt>
      <trkpt lat="45.14154" lon="5.92425">
        <ele>1902.3</ele>
        <time>2012-06-16T10:00:01Z</time>
      </trkpt>
      <trkpt lat="45.14155" lon="5.92425">
        <ele>1902.9</ele>
        <time>2012-06-16T10:00:02Z</time>
      </trkpt>
      <trkpt lat="45.14167" lon="5.92442">
        <ele>1905.6</ele>
        <time>2012-06-16T10:00:48Z</time>
      </trkpt>
      <trkpt lat="45.14174" lon="5.92449">
        <ele>1905.3</ele>
        <time>2012-06-16T10:00:57Z</time>
      </trkpt>
      <trkpt lat="45.14181" lon="5.92455">
        <ele>1905.4</ele>
        <time>2012-06-16T10:01:07Z</time>
      </trkpt>
      <trkpt lat="45.14182" lon="5.92456">
        <ele>1905.3</ele>
        <time>2012-06-16T10:01:08Z</time>
      </trkpt>
      <trkpt lat="45.14196" lon="5.92468">
        <ele>1912</ele>
        <time>2012-06-16T10:01:38Z</time>
      </trkpt>
      <trkpt lat="45.14202" lon="5.92477">
        <ele>1914.1</ele>
        <time>2012-06-16T10:01:48Z</time>
      </trkpt>
      <trkpt lat="45.14209" lon="5.92484">
        <ele>1914</ele>
        <time>2012-06-16T10:01:57Z</time>
      </trkpt>
      <trkpt lat="45.14216" lon="5.92489">
        <ele>1914.7</ele>
        <time>2012-06-16T10:02:08Z</time>
      </trkpt>
      <trkpt lat="45.14225" lon="5.92492">
        <ele>1916.7</ele>
        <time>2012-06-16T10:02:22Z</time>
      </trkpt>
      <trkpt lat="45.14225" lon="5.92493">
        <ele>1916.5</ele>
        <time>2012-06-16T10:02:23Z</time>
      </trkpt>
      <trkpt lat="45.14239" lon="5.92505">
        <ele>1922.2</ele>
        <time>2012-06-16T10:02:48Z</time>
      </trkpt>
      <trkpt lat="45.14246" lon="5.92512">
        <ele>1920.6</ele>
        <time>2012-06-16T10:03:13Z</time>
      </trkpt>
      <trkpt lat="45.14255" lon="5.92512">
        <ele>1921.1</ele>
        <time>2012-06-16T10:06:25Z</time>
      </trkpt>
      <trkpt lat="45.14256" lon="5.92512">
        <ele>1921.2</ele>
        <time>2012-06-16T10:06:26Z</time>
      </trkpt>
      <trkpt lat="45.14269" lon="5.92526">
        <ele>1914.6</ele>
        <time>2012-06-16T10:07:04Z</time>
      </trkpt>
      <trkpt lat="45.14278" lon="5.92527">
        <ele>1911.6</ele>
        <time>2012-06-16T10:07:22Z</time>
      </trkpt>
      <trkpt lat="45.14286" lon="5.92526">
        <ele>1909</ele>
        <time>2012-06-16T10:07:47Z</time>
      </trkpt>
      <trkpt lat="45.14287" lon="5.92526">
        <ele>1908.6</ele>
        <time>2012-06-16T10:07:48Z</time>
      </trkpt>
      <trkpt lat="45.14288" lon="5.92503">
        <ele>1920</ele>
        <time>2012-06-16T10:08:27Z</time>
      </trkpt>
      <trkpt lat="45.14296" lon="5.925">
        <ele>1927.6</ele>
        <time>2012-06-16T10:08:42Z</time>
      </trkpt>
      <trkpt lat="45.14305" lon="5.92496">
        <ele>1923.7</ele>
        <time>2012-06-16T10:09:00Z</time>
      </trkpt>
      <trkpt lat="45.14306" lon="5.92496">
        <ele>1923.8</ele>
        <time>2012-06-16T10:09:01Z</time>
      </trkpt>
      <trkpt lat="45.14322" lon="5.92502">
        <ele>1918.6</ele>
        <time>2012-06-16T10:09:29Z</time>
      </trkpt>
      <trkpt lat="45.1433" lon="5.92504">
        <ele>1915.7</ele>
        <time>2012-06-16T10:09:42Z</time>
      </trkpt>
      <trkpt lat="45.14338" lon="5.92509">
        <ele>1912.9</ele>
        <time>2012-06-16T10:09:55Z</time>
      </trkpt>
      <trkpt lat="45.14346" lon="5.92515">
        <ele>1909.6</ele>
        <time>2012-06-16T10:10:10Z</time>
      </trkpt>
      <trkpt lat="45.14346" lon="5.92516">
        <ele>1909.6</ele>
        <time>2012-06-16T10:10:11Z</time>
      </trkpt>
      <trkpt lat="45.14351" lon="5.92537">
        <ele>1906.2</ele>
        <time>2012-06-16T10:10:30Z</time>
      </trkpt>
      <trkpt lat="45.14357" lon="5.92545">
        <ele>1906.5</ele>
        <time>2012-06-16T10:10:41Z</time>
      </trkpt>
      <trkpt lat="45.14363" lon="5.92554">
        <ele>1905.8</ele>
        <time>2012-06-16T10:10:52Z</time>
      </trkpt>
      <trkpt lat="45.1437" lon="5.92562">
        <ele>1903.2</ele>
        <time>2012-06-16T10:11:07Z</time>
      </trkpt>
      <trkpt lat="45.14377" lon="5.9257">
        <ele>1900.3</ele>
        <time>2012-06-16T10:11:23Z</time>
      </trkpt>
      <trkpt lat="45.14377" lon="5.92571">
        <ele>1899.7</ele>
        <time>2012-06-16T10:11:24Z</time>
      </trkpt>
      <trkpt lat="45.14387" lon="5.92588">
        <ele>1895.9</ele>
        <time>2012-06-16T10:11:48Z</time>
      </trkpt>
      <trkpt lat="45.14393" lon="5.92597">
        <ele>1893.6</ele>
        <time>2012-06-16T10:12:18Z</time>
      </trkpt>
      <trkpt lat="45.14397" lon="5.92608">
        <ele>1888.2</ele>
        <time>2012-06-16T10:12:47Z</time>
      </trkpt>
      <trkpt lat="45.14397" lon="5.92609">
        <ele>1888</ele>
        <time>2012-06-16T10:12:48Z</time>
      </trkpt>
      <trkpt lat="45.14407" lon="5.92625">
        <ele>1883.4</ele>
        <time>2012-06-16T10:13:17Z</time>
      </trkpt>
      <trkpt lat="45.14415" lon="5.9263">
        <ele>1880.9</ele>
        <time>2012-06-16T10:13:38Z</time>
      </trkpt>
      <trkpt lat="45.14423" lon="5.92636">
        <ele>1879.8</ele>
        <time>2012-06-16T10:13:58Z</time>
      </trkpt>
      <trkpt lat="45.14423" lon="5.92636">
        <ele>1879.6</ele>
        <time>2012-06-16T10:13:59Z</time>
      </trkpt>
      <trkpt lat="45.14437" lon="5.92649">
        <ele>1872.2</ele>
        <time>2012-06-16T10:14:35Z</time>
      </trkpt>
      <trkpt lat="45.14445" lon="5.92649">
        <ele>1870.4</ele>
        <time>2012-06-16T10:14:49Z</time>
      </trkpt>
      <trkpt lat="45.14454" lon="5.92649">
        <ele>1869</ele>
        <time>2012-06-16T10:15:02Z</time>
      </trkpt>
      <trkpt lat="45.14454" lon="5.92649">
        <ele>1868.7</ele>
        <time>2012-06-16T10:15:03Z</time>
      </trkpt>
      <trkpt lat="45.14468" lon="5.92663">
        <ele>1862.3</ele>
        <time>2012-06-16T10:15:56Z</time>
      </trkpt>
      <trkpt lat="45.14475" lon="5.9267">
        <ele>1858.6</ele>
        <time>2012-06-16T10:16:29Z</time>
      </trkpt>
      <trkpt lat="45.14475" lon="5.92671">
        <ele>1858.1</ele>
        <time>2012-06-16T10:16:30Z</time>
      </trkpt>
      <trkpt lat="45.14491" lon="5.9268">
        <ele>1853.8</ele>
        <time>2012-06-16T10:16:51Z</time>
      </trkpt>
      <trkpt lat="45.14495" lon="5.92691">
        <ele>1853.3</ele>
        <time>2012-06-16T10:17:05Z</time>
      </trkpt>
      <trkpt lat="45.14503" lon="5.92698">
        <ele>1849.5</ele>
        <time>2012-06-16T10:17:19Z</time>
      </trkpt>
      <trkpt lat="45.14511" lon="5.927">
        <ele>1847.8</ele>
        <time>2012-06-16T10:17:30Z</time>
      </trkpt>
      <trkpt lat="45.14519" lon="5.92701">
        <ele>1846.5</ele>
        <time>2012-06-16T10:17:40Z</time>
      </trkpt>
      <trkpt lat="45.1452" lon="5.92702">
        <ele>1846</ele>
        <time>2012-06-16T10:17:41Z</time>
      </trkpt>
      <trkpt lat="45.14534" lon="5.92715">
        <ele>1844.5</ele>
        <time>2012-06-16T10:18:04Z</time>
      </trkpt>
      <trkpt lat="45.14535" lon="5.92727">
        <ele>1844.2</ele>
        <time>2012-06-16T10:18:15Z</time>
      </trkpt>
      <trkpt lat="45.1454" lon="5.92737">
        <ele>1843.8</ele>
        <time>2012-06-16T10:18:25Z</time>
      </trkpt>
      <trkpt lat="45.14545" lon="5.92747">
        <ele>1843.4</ele>
        <time>2012-06-16T10:18:34Z</time>
      </trkpt>
      <trkpt lat="45.14552" lon="5.92754">
        <ele>1843.9</ele>
        <time>2012-06-16T10:18:44Z</time>
      </trkpt>
      <trkpt lat="45.14553" lon="5.92755">
        <ele>1843.6</ele>
        <time>2012-06-16T10:18:45Z</time>
      </trkpt>
      <trkpt lat="45.14562" lon="5.92774">
        <ele>1840.9</ele>
        <time>2012-06-16T10:19:02Z</time>
      </trkpt>
      <trkpt lat="45.14569" lon="5.9278">
        <ele>1840.8</ele>
        <time>2012-06-16T10:19:10Z</time>
      </trkpt>
      <trkpt lat="45.14578" lon="5.92784">
        <ele>1840.8</ele>
        <time>2012-06-16T10:19:20Z</time>
      </trkpt>
      <trkpt lat="45.14585" lon="5.9279">
        <ele>1842.1</ele>
        <time>2012-06-16T10:19:32Z</time>
      </trkpt>
      <trkpt lat="45.14593" lon="5.92796">
        <ele>1843.2</ele>
        <time>2012-06-16T10:19:45Z</time>
      </trkpt>
      <trkpt lat="45.14598" lon="5.92805">
        <ele>1845.4</ele>
        <time>2012-06-16T10:19:59Z</time>
      </trkpt>
      <trkpt lat="45.14598" lon="5.92806">
        <ele>1845.6</ele>
        <time>2012-06-16T10:20:00Z</time>
      </trkpt>
      <trkpt lat="45.14612" lon="5.92819">
        <ele>1847.8</ele>
        <time>2012-06-16T10:20:22Z</time>
      </trkpt>
      <trkpt lat="45.14619" lon="5.92825">
        <ele>1848.7</ele>
        <time>2012-06-16T10:20:31Z</time>
      </trkpt>
      <trkpt lat="45.14627" lon="5.92829">
        <ele>1848.3</ele>
        <time>2012-06-16T10:20:39Z</time>
      </trkpt>
      <trkpt lat="45.14635" lon="5.92832">
        <ele>1849.3</ele>
        <time>2012-06-16T10:20:47Z</time>
      </trkpt>
      <trkpt lat="45.14641" lon="5.9284">
        <ele>1849.8</ele>
        <time>2012-06-16T10:20:56Z</time>
      </trkpt>
      <trkpt lat="45.14644" lon="5.92851">
        <ele>1853.3</ele>
        <time>2012-06-16T10:21:08Z</time>
      </trkpt>
      <trkpt lat="45.14644" lon="5.92852">
        <ele>1853.7</ele>
        <time>2012-06-16T10:21:09Z</time>
      </trkpt>
      <trkpt lat="45.14652" lon="5.92873">
        <ele>1869.2</ele>
        <time>2012-06-16T10:22:42Z</time>
      </trkpt>
      <trkpt lat="45.14653" lon="5.92873">
        <ele>1869.3</ele>
        <time>2012-06-16T10:22:43Z</time>
      </trkpt>
      <trkpt lat="45.14666" lon="5.92887">
        <ele>1875.1</ele>
        <time>2012-06-16T10:24:53Z</time>
      </trkpt>
      <trkpt lat="45.14667" lon="5.92888">
        <ele>1875.1</ele>
        <time>2012-06-16T10:24:54Z</time>
      </trkpt>
      <trkpt lat="45.1468" lon="5.929">
        <ele>1877.3</ele>
        <time>2012-06-16T10:25:21Z</time>
      </trkpt>
      <trkpt lat="45.14688" lon="5.92903">
        <ele>1878.5</ele>
        <time>2012-06-16T10:25:34Z</time>
      </trkpt>
      <trkpt lat="45.14697" lon="5.92904">
        <ele>1879.6</ele>
        <time>2012-06-16T10:25:49Z</time>
      </trkpt>
      <trkpt lat="45.14705" lon="5.9291">
        <ele>1883.4</ele>
        <time>2012-06-16T10:26:02Z</time>
      </trkpt>
      <trkpt lat="45.14706" lon="5.9291">
        <ele>1883.4</ele>
        <time>2012-06-16T10:26:03Z</time>
      </trkpt>
      <trkpt lat="45.14719" lon="5.92908">
        <ele>1888.4</ele>
        <time>2012-06-16T10:26:34Z</time>
      </trkpt>
      <trkpt lat="45.14725" lon="5.92917">
        <ele>1891.7</ele>
        <time>2012-06-16T10:26:48Z</time>
      </trkpt>
      <trkpt lat="45.14729" lon="5.92928">
        <ele>1893.2</ele>
        <time>2012-06-16T10:27:45Z</time>
      </trkpt>
      <trkpt lat="45.1473" lon="5.92929">
        <ele>1893.3</ele>
        <time>2012-06-16T10:27:46Z</time>
      </trkpt>
      <trkpt lat="45.14744" lon="5.92941">
        <ele>1892</ele>
        <time>2012-06-16T10:28:44Z</time>
      </trkpt>
      <trkpt lat="45.14749" lon="5.92952">
        <ele>1890.9</ele>
        <time>2012-06-16T10:30:10Z</time>
      </trkpt>
      <trkpt lat="45.14749" lon="5.92952">
        <ele>1890.9</ele>
        <time>2012-06-16T10:30:11Z</time>
      </trkpt>
      <trkpt lat="45.14742" lon="5.92962">
        <ele>1888.8</ele>
        <time>2012-06-16T10:32:01Z</time>
      </trkpt>
      <trkpt lat="45.14743" lon="5.92983">
        <ele>1888.5</ele>
        <time>2012-06-16T10:32:17Z</time>
      </trkpt>
      <trkpt lat="45.14752" lon="5.92981">
        <ele>1888.2</ele>
        <time>2012-06-16T10:32:32Z</time>
      </trkpt>
      <trkpt lat="45.14754" lon="5.9297">
        <ele>1889.9</ele>
        <time>2012-06-16T10:33:05Z</time>
      </trkpt>
      <trkpt lat="45.14754" lon="5.92969">
        <ele>1889.8</ele>
        <time>2012-06-16T10:33:06Z</time>
      </trkpt>
      <trkpt lat="45.14742" lon="5.92951">
        <ele>1888.1</ele>
        <time>2012-06-16T10:34:03Z</time>
      </trkpt>
      <trkpt lat="45.14745" lon="5.92939">
        <ele>1890.2</ele>
        <time>2012-06-16T10:34:59Z</time>
      </trkpt>
      <trkpt lat="45.14745" lon="5.92938">
        <ele>1890.7</ele>
        <time>2012-06-16T10:35:00Z</time>
      </trkpt>
      <trkpt lat="45.14759" lon="5.92951">
        <ele>1893.7</ele>
        <time>2012-06-16T10:35:22Z</time>
      </trkpt>
      <trkpt lat="45.14762" lon="5.92963">
        <ele>1893.4</ele>
        <time>2012-06-16T10:35:34Z</time>
      </trkpt>
      <trkpt lat="45.14765" lon="5.92974">
        <ele>1892.8</ele>
        <time>2012-06-16T10:35:43Z</time>
      </trkpt>
      <trkpt lat="45.14769" lon="5.92984">
        <ele>1891.2</ele>
        <time>2012-06-16T10:35:54Z</time>
      </trkpt>
      <trkpt lat="45.14774" lon="5.92994">
        <ele>1890.1</ele>
        <time>2012-06-16T10:36:03Z</time>
      </trkpt>
      <trkpt lat="45.14775" lon="5.92995">
        <ele>1890.2</ele>
        <time>2012-06-16T10:36:04Z</time>
      </trkpt>
      <trkpt lat="45.14785" lon="5.93013">
        <ele>1891.4</ele>
        <time>2012-06-16T10:36:20Z</time>
      </trkpt>
      <trkpt lat="45.1479" lon="5.93023">
        <ele>1893</ele>
        <time>2012-06-16T10:36:31Z</time>
      </trkpt>
      <trkpt lat="45.14795" lon="5.93031">
        <ele>1895.4</ele>
        <time>2012-06-16T10:36:42Z</time>
      </trkpt>
      <trkpt lat="45.14802" lon="5.9304">
        <ele>1896.2</ele>
        <time>2012-06-16T10:36:50Z</time>
      </trkpt>
      <trkpt lat="45.14809" lon="5.93047">
        <ele>1897.3</ele>
        <time>2012-06-16T10:37:00Z</time>
      </trkpt>
      <trkpt lat="45.14815" lon="5.93055">
        <ele>1898.7</ele>
        <time>2012-06-16T10:37:08Z</time>
      </trkpt>
      <trkpt lat="45.14816" lon="5.93056">
        <ele>1899</ele>
        <time>2012-06-16T10:37:09Z</time>
      </trkpt>
      <trkpt lat="45.14826" lon="5.93072">
        <ele>1899.4</ele>
        <time>2012-06-16T10:37:21Z</time>
      </trkpt>
      <trkpt lat="45.14834" lon="5.93078">
        <ele>1900.6</ele>
        <time>2012-06-16T10:37:27Z</time>
      </trkpt>
      <trkpt lat="45.14837" lon="5.9309">
        <ele>1905.3</ele>
        <time>2012-06-16T10:37:55Z</time>
      </trkpt>
      <trkpt lat="45.14844" lon="5.93096">
        <ele>1908.2</ele>
        <time>2012-06-16T10:38:13Z</time>
      </trkpt>
      <trkpt lat="45.14844" lon="5.93097">
        <ele>1908.3</ele>
        <time>2012-06-16T10:38:14Z</time>
      </trkpt>
      <trkpt lat="45.1486" lon="5.93099">
        <ele>1910.8</ele>
        <time>2012-06-16T10:38:27Z</time>
      </trkpt>
      <trkpt lat="45.14854" lon="5.93109">
        <ele>1913</ele>
        <time>2012-06-16T10:38:40Z</time>
      </trkpt>
      <trkpt lat="45.14847" lon="5.93113">
        <ele>1913.9</ele>
        <time>2012-06-16T10:38:46Z</time>
      </trkpt>
      <trkpt lat="45.1484" lon="5.93118">
        <ele>1914.9</ele>
        <time>2012-06-16T10:38:52Z</time>
      </trkpt>
      <trkpt lat="45.14845" lon="5.93129">
        <ele>1917.4</ele>
        <time>2012-06-16T10:39:09Z</time>
      </trkpt>
      <trkpt lat="45.14837" lon="5.93125">
        <ele>1922.9</ele>
        <time>2012-06-16T10:39:45Z</time>
      </trkpt>
      <trkpt lat="45.14836" lon="5.93124">
        <ele>1923</ele>
        <time>2012-06-16T10:39:46Z</time>
      </trkpt>
      <trkpt lat="45.14823" lon="5.93116">
        <ele>1926.2</ele>
        <time>2012-06-16T10:39:56Z</time>
      </trkpt>
      <trkpt lat="45.14815" lon="5.93112">
        <ele>1927.3</ele>
        <time>2012-06-16T10:40:03Z</time>
      </trkpt>
      <trkpt lat="45.14806" lon="5.93109">
        <ele>1927.1</ele>
        <time>2012-06-16T10:40:09Z</time>
      </trkpt>
      <trkpt lat="45.14799" lon="5.93106">
        <ele>1927.7</ele>
        <time>2012-06-16T10:40:12Z</time>
      </trkpt>
      <trkpt lat="45.14791" lon="5.93101">
        <ele>1928.3</ele>
        <time>2012-06-16T10:40:16Z</time>
      </trkpt>
      <trkpt lat="45.14783" lon="5.93097">
        <ele>1929.5</ele>
        <time>2012-06-16T10:40:19Z</time>
      </trkpt>
      <trkpt lat="45.14776" lon="5.93093">
        <ele>1930.3</ele>
        <time>2012-06-16T10:40:22Z</time>
      </trkpt>
      <trkpt lat="45.14769" lon="5.93088">
        <ele>1931.2</ele>
        <time>2012-06-16T10:40:26Z</time>
      </trkpt>
      <trkpt lat="45.14776" lon="5.93091">
        <ele>1935.8</ele>
        <time>2012-06-16T10:40:51Z</time>
      </trkpt>
      <trkpt lat="45.14778" lon="5.93091">
        <ele>1936.1</ele>
        <time>2012-06-16T10:40:52Z</time>
      </trkpt>
      <trkpt lat="45.14789" lon="5.93096">
        <ele>1935.8</ele>
        <time>2012-06-16T10:40:57Z</time>
      </trkpt>
      <trkpt lat="45.14797" lon="5.93101">
        <ele>1936.3</ele>
        <time>2012-06-16T10:41:01Z</time>
      </trkpt>
      <trkpt lat="45.14804" lon="5.93106">
        <ele>1938</ele>
        <time>2012-06-16T10:41:05Z</time>
      </trkpt>
      <trkpt lat="45.14811" lon="5.93111">
        <ele>1938.7</ele>
        <time>2012-06-16T10:41:09Z</time>
      </trkpt>
      <trkpt lat="45.14817" lon="5.93115">
        <ele>1938.9</ele>
        <time>2012-06-16T10:41:12Z</time>
      </trkpt>
      <trkpt lat="45.14824" lon="5.93119">
        <ele>1939</ele>
        <time>2012-06-16T10:41:15Z</time>
      </trkpt>
      <trkpt lat="45.14832" lon="5.93124">
        <ele>1939</ele>
        <time>2012-06-16T10:41:19Z</time>
      </trkpt>
      <trkpt lat="45.14839" lon="5.93129">
        <ele>1939.2</ele>
        <time>2012-06-16T10:41:23Z</time>
      </trkpt>
      <trkpt lat="45.14846" lon="5.93135">
        <ele>1939.9</ele>
        <time>2012-06-16T10:41:29Z</time>
      </trkpt>
      <trkpt lat="45.14854" lon="5.93142">
        <ele>1939.8</ele>
        <time>2012-06-16T10:41:40Z</time>
      </trkpt>
      <trkpt lat="45.14862" lon="5.93143">
        <ele>1940.3</ele>
        <time>2012-06-16T10:42:08Z</time>
      </trkpt>
      <trkpt lat="45.14863" lon="5.93142">
        <ele>1940.4</ele>
        <time>2012-06-16T10:42:09Z</time>
      </trkpt>
      <trkpt lat="45.14874" lon="5.93153">
        <ele>1946.8</ele>
        <time>2012-06-16T10:42:45Z</time>
      </trkpt>
      <trkpt lat="45.1488" lon="5.93163">
        <ele>1949</ele>
        <time>2012-06-16T10:43:01Z</time>
      </trkpt>
      <trkpt lat="45.14887" lon="5.9317">
        <ele>1954.7</ele>
        <time>2012-06-16T10:43:28Z</time>
      </trkpt>
      <trkpt lat="45.14887" lon="5.9317">
        <ele>1954.8</ele>
        <time>2012-06-16T10:43:29Z</time>
      </trkpt>
      <trkpt lat="45.149" lon="5.93174">
        <ele>1963.2</ele>
        <time>2012-06-16T10:44:14Z</time>
      </trkpt>
      <trkpt lat="45.14902" lon="5.93185">
        <ele>1965.4</ele>
        <time>2012-06-16T10:44:31Z</time>
      </trkpt>
      <trkpt lat="45.14902" lon="5.93186">
        <ele>1965.8</ele>
        <time>2012-06-16T10:44:32Z</time>
      </trkpt>
      <trkpt lat="45.14902" lon="5.93211">
        <ele>1972.8</ele>
        <time>2012-06-16T10:45:14Z</time>
      </trkpt>
      <trkpt lat="45.14909" lon="5.93219">
        <ele>1975.5</ele>
        <time>2012-06-16T10:46:21Z</time>
      </trkpt>
      <trkpt lat="45.14909" lon="5.93219">
        <ele>1975.9</ele>
        <time>2012-06-16T10:46:22Z</time>
      </trkpt>
      <trkpt lat="45.1492" lon="5.93221">
        <ele>1981.2</ele>
        <time>2012-06-16T10:46:57Z</time>
      </trkpt>
      <trkpt lat="45.14925" lon="5.93231">
        <ele>1981.5</ele>
        <time>2012-06-16T10:47:06Z</time>
      </trkpt>
      <trkpt lat="45.14929" lon="5.93242">
        <ele>1982.7</ele>
        <time>2012-06-16T10:47:16Z</time>
      </trkpt>
      <trkpt lat="45.14934" lon="5.93251">
        <ele>1984.5</ele>
        <time>2012-06-16T10:47:26Z</time>
      </trkpt>
      <trkpt lat="45.14934" lon="5.93252">
        <ele>1984.5</ele>
        <time>2012-06-16T10:47:27Z</time>
      </trkpt>
      <trkpt lat="45.14946" lon="5.93268">
        <ele>1988.9</ele>
        <time>2012-06-16T10:47:45Z</time>
      </trkpt>
      <trkpt lat="45.14953" lon="5.93264">
        <ele>1989.2</ele>
        <time>2012-06-16T10:47:54Z</time>
      </trkpt>
      <trkpt lat="45.14961" lon="5.93269">
        <ele>1991.5</ele>
        <time>2012-06-16T10:48:04Z</time>
      </trkpt>
      <trkpt lat="45.1497" lon="5.93273">
        <ele>1993.6</ele>
        <time>2012-06-16T10:48:15Z</time>
      </trkpt>
      <trkpt lat="45.14978" lon="5.93276">
        <ele>1993.6</ele>
        <time>2012-06-16T10:48:24Z</time>
      </trkpt>
      <trkpt lat="45.14987" lon="5.93274">
        <ele>1996.7</ele>
        <time>2012-06-16T10:48:34Z</time>
      </trkpt>
      <trkpt lat="45.14988" lon="5.93274">
        <ele>1996.6</ele>
        <time>2012-06-16T10:48:35Z</time>
      </trkpt>
      <trkpt lat="45.15" lon="5.93262">
        <ele>1996.9</ele>
        <time>2012-06-16T10:48:47Z</time>
      </trkpt>
      <trkpt lat="45.15004" lon="5.93253">
        <ele>1995.8</ele>
        <time>2012-06-16T10:48:54Z</time>
      </trkpt>
      <trkpt lat="45.15009" lon="5.93242">
        <ele>1996.8</ele>
        <time>2012-06-16T10:49:01Z</time>
      </trkpt>
      <trkpt lat="45.15014" lon="5.93233">
        <ele>1997.3</ele>
        <time>2012-06-16T10:49:45Z</time>
      </trkpt>
      <trkpt lat="45.15014" lon="5.93231">
        <ele>1997.2</ele>
        <time>2012-06-16T10:49:46Z</time>
      </trkpt>
      <trkpt lat="45.15023" lon="5.93213">
        <ele>1998.8</ele>
        <time>2012-06-16T10:50:02Z</time>
      </trkpt>
      <trkpt lat="45.15029" lon="5.93204">
        <ele>2000.6</ele>
        <time>2012-06-16T10:50:10Z</time>
      </trkpt>
      <trkpt lat="45.15036" lon="5.93196">
        <ele>2001.6</ele>
        <time>2012-06-16T10:50:20Z</time>
      </trkpt>
      <trkpt lat="45.15043" lon="5.93189">
        <ele>2003.2</ele>
        <time>2012-06-16T10:50:29Z</time>
      </trkpt>
      <trkpt lat="45.15045" lon="5.93201">
        <ele>2005.8</ele>
        <time>2012-06-16T10:50:51Z</time>
      </trkpt>
      <trkpt lat="45.15045" lon="5.93202">
        <ele>2006.4</ele>
        <time>2012-06-16T10:50:52Z</time>
      </trkpt>
      <trkpt lat="45.15051" lon="5.93224">
        <ele>2011.3</ele>
        <time>2012-06-16T10:51:16Z</time>
      </trkpt>
      <trkpt lat="45.15057" lon="5.93233">
        <ele>2011.8</ele>
        <time>2012-06-16T10:51:32Z</time>
      </trkpt>
      <trkpt lat="45.15066" lon="5.93237">
        <ele>2014.6</ele>
        <time>2012-06-16T10:51:42Z</time>
      </trkpt>
      <trkpt lat="45.15074" lon="5.93239">
        <ele>2016.1</ele>
        <time>2012-06-16T10:51:52Z</time>
      </trkpt>
      <trkpt lat="45.15082" lon="5.93231">
        <ele>2017</ele>
        <time>2012-06-16T10:52:20Z</time>
      </trkpt>
      <trkpt lat="45.15082" lon="5.93231">
        <ele>2017.1</ele>
        <time>2012-06-16T10:52:21Z</time>
      </trkpt>
      <trkpt lat="45.15076" lon="5.93242">
        <ele>2016.7</ele>
        <time>2012-06-16T10:53:26Z</time>
      </trkpt>
      <trkpt lat="45.15077" lon="5.93265">
        <ele>2017.5</ele>
        <time>2012-06-16T10:53:42Z</time>
      </trkpt>
      <trkpt lat="45.15077" lon="5.93277">
        <ele>2018.2</ele>
        <time>2012-06-16T10:53:51Z</time>
      </trkpt>
      <trkpt lat="45.15072" lon="5.93288">
        <ele>2019.8</ele>
        <time>2012-06-16T10:54:02Z</time>
      </trkpt>
      <trkpt lat="45.15077" lon="5.93298">
        <ele>2021.3</ele>
        <time>2012-06-16T10:54:11Z</time>
      </trkpt>
      <trkpt lat="45.1508" lon="5.93309">
        <ele>2022.9</ele>
        <time>2012-06-16T10:54:22Z</time>
      </trkpt>
      <trkpt lat="45.15079" lon="5.93321">
        <ele>2025.6</ele>
        <time>2012-06-16T10:54:37Z</time>
      </trkpt>
      <trkpt lat="45.15079" lon="5.93321">
        <ele>2026.2</ele>
        <time>2012-06-16T10:54:38Z</time>
      </trkpt>
      <trkpt lat="45.15079" lon="5.93343">
        <ele>2032.7</ele>
        <time>2012-06-16T10:55:10Z</time>
      </trkpt>
      <trkpt lat="45.15084" lon="5.93353">
        <ele>2034.5</ele>
        <time>2012-06-16T10:55:22Z</time>
      </trkpt>
      <trkpt lat="45.15089" lon="5.93363">
        <ele>2036</ele>
        <time>2012-06-16T10:55:35Z</time>
      </trkpt>
      <trkpt lat="45.15093" lon="5.93374">
        <ele>2039.2</ele>
        <time>2012-06-16T10:55:49Z</time>
      </trkpt>
      <trkpt lat="45.15093" lon="5.93375">
        <ele>2039.5</ele>
        <time>2012-06-16T10:55:50Z</time>
      </trkpt>
      <trkpt lat="45.15104" lon="5.93391">
        <ele>2043.3</ele>
        <time>2012-06-16T10:56:14Z</time>
      </trkpt>
      <trkpt lat="45.15113" lon="5.93394">
        <ele>2043.2</ele>
        <time>2012-06-16T10:56:26Z</time>
      </trkpt>
      <trkpt lat="45.15122" lon="5.93395">
        <ele>2042.4</ele>
        <time>2012-06-16T10:56:38Z</time>
      </trkpt>
      <trkpt lat="45.1513" lon="5.93399">
        <ele>2040.9</ele>
        <time>2012-06-16T10:56:48Z</time>
      </trkpt>
      <trkpt lat="45.15138" lon="5.93405">
        <ele>2040.2</ele>
        <time>2012-06-16T10:57:16Z</time>
      </trkpt>
      <trkpt lat="45.15139" lon="5.93406">
        <ele>2040.1</ele>
        <time>2012-06-16T10:57:17Z</time>
      </trkpt>
      <trkpt lat="45.1515" lon="5.93421">
        <ele>2037</ele>
        <time>2012-06-16T10:57:38Z</time>
      </trkpt>
      <trkpt lat="45.15157" lon="5.93429">
        <ele>2035.4</ele>
        <time>2012-06-16T10:57:48Z</time>
      </trkpt>
      <trkpt lat="45.15164" lon="5.93436">
        <ele>2032.9</ele>
        <time>2012-06-16T10:58:03Z</time>
      </trkpt>
      <trkpt lat="45.15171" lon="5.93443">
        <ele>2030.2</ele>
        <time>2012-06-16T10:58:35Z</time>
      </trkpt>
      <trkpt lat="45.15172" lon="5.93443">
        <ele>2030.3</ele>
        <time>2012-06-16T10:58:36Z</time>
      </trkpt>
      <trkpt lat="45.15181" lon="5.93445">
        <ele>2029.3</ele>
        <time>2012-06-16T10:59:48Z</time>
      </trkpt>
      <trkpt lat="45.15196" lon="5.93452">
        <ele>2028.7</ele>
        <time>2012-06-16T11:00:06Z</time>
      </trkpt>
      <trkpt lat="45.15203" lon="5.9346">
        <ele>2027.8</ele>
        <time>2012-06-16T11:00:17Z</time>
      </trkpt>
      <trkpt lat="45.15211" lon="5.93462">
        <ele>2027.1</ele>
        <time>2012-06-16T11:00:35Z</time>
      </trkpt>
      <trkpt lat="45.1522" lon="5.93461">
        <ele>2027.2</ele>
        <time>2012-06-16T11:01:23Z</time>
      </trkpt>
      <trkpt lat="45.1522" lon="5.93462">
        <ele>2027.1</ele>
        <time>2012-06-16T11:01:24Z</time>
      </trkpt>
      <trkpt lat="45.15233" lon="5.93477">
        <ele>2027.3</ele>
        <time>2012-06-16T11:02:01Z</time>
      </trkpt>
      <trkpt lat="45.15239" lon="5.93486">
        <ele>2029.6</ele>
        <time>2012-06-16T11:04:14Z</time>
      </trkpt>
      <trkpt lat="45.15239" lon="5.93487">
        <ele>2029.7</ele>
        <time>2012-06-16T11:04:15Z</time>
      </trkpt>
      <trkpt lat="45.15242" lon="5.93508">
        <ele>2031.2</ele>
        <time>2012-06-16T11:04:49Z</time>
      </trkpt>
      <trkpt lat="45.15247" lon="5.93518">
        <ele>2030.3</ele>
        <time>2012-06-16T11:05:14Z</time>
      </trkpt>
      <trkpt lat="45.15253" lon="5.93528">
        <ele>2028.5</ele>
        <time>2012-06-16T11:05:30Z</time>
      </trkpt>
      <trkpt lat="45.15253" lon="5.93529">
        <ele>2028.4</ele>
        <time>2012-06-16T11:05:31Z</time>
      </trkpt>
      <trkpt lat="45.15259" lon="5.93549">
        <ele>2025.6</ele>
        <time>2012-06-16T11:05:53Z</time>
      </trkpt>
      <trkpt lat="45.15265" lon="5.93558">
        <ele>2027</ele>
        <time>2012-06-16T11:06:04Z</time>
      </trkpt>
      <trkpt lat="45.15265" lon="5.93571">
        <ele>2027.5</ele>
        <time>2012-06-16T11:06:15Z</time>
      </trkpt>
      <trkpt lat="45.15268" lon="5.93582">
        <ele>2030.8</ele>
        <time>2012-06-16T11:06:27Z</time>
      </trkpt>
      <trkpt lat="45.15275" lon="5.93589">
        <ele>2031.1</ele>
        <time>2012-06-16T11:06:38Z</time>
      </trkpt>
      <trkpt lat="45.15275" lon="5.9359">
        <ele>2031.3</ele>
        <time>2012-06-16T11:06:39Z</time>
      </trkpt>
      <trkpt lat="45.15287" lon="5.93607">
        <ele>2032.3</ele>
        <time>2012-06-16T11:06:59Z</time>
      </trkpt>
      <trkpt lat="45.15289" lon="5.93619">
        <ele>2034.9</ele>
        <time>2012-06-16T11:07:10Z</time>
      </trkpt>
      <trkpt lat="45.15296" lon="5.93627">
        <ele>2036.8</ele>
        <time>2012-06-16T11:07:21Z</time>
      </trkpt>
      <trkpt lat="45.15304" lon="5.93631">
        <ele>2039.4</ele>
        <time>2012-06-16T11:07:33Z</time>
      </trkpt>
      <trkpt lat="45.15313" lon="5.93635">
        <ele>2039.9</ele>
        <time>2012-06-16T11:07:42Z</time>
      </trkpt>
      <trkpt lat="45.15314" lon="5.93636">
        <ele>2040.2</ele>
        <time>2012-06-16T11:07:43Z</time>
      </trkpt>
      <trkpt lat="45.15326" lon="5.93649">
        <ele>2040.2</ele>
        <time>2012-06-16T11:07:56Z</time>
      </trkpt>
      <trkpt lat="45.15334" lon="5.93654">
        <ele>2040.5</ele>
        <time>2012-06-16T11:08:04Z</time>
      </trkpt>
      <trkpt lat="45.15339" lon="5.93663">
        <ele>2040.9</ele>
        <time>2012-06-16T11:08:28Z</time>
      </trkpt>
      <trkpt lat="45.15344" lon="5.93673">
        <ele>2037.6</ele>
        <time>2012-06-16T11:08:39Z</time>
      </trkpt>
      <trkpt lat="45.15351" lon="5.93678">
        <ele>2035.2</ele>
        <time>2012-06-16T11:08:47Z</time>
      </trkpt>
      <trkpt lat="45.15352" lon="5.93679">
        <ele>2035.1</ele>
        <time>2012-06-16T11:08:48Z</time>
      </trkpt>
      <trkpt lat="45.15367" lon="5.93687">
        <ele>2031.6</ele>
        <time>2012-06-16T11:09:08Z</time>
      </trkpt>
      <trkpt lat="45.15375" lon="5.93685">
        <ele>2028.2</ele>
        <time>2012-06-16T11:09:21Z</time>
      </trkpt>
      <trkpt lat="45.15384" lon="5.93687">
        <ele>2025.7</ele>
        <time>2012-06-16T11:09:31Z</time>
      </trkpt>
      <trkpt lat="45.15393" lon="5.93687">
        <ele>2024.3</ele>
        <time>2012-06-16T11:09:41Z</time>
      </trkpt>
      <trkpt lat="45.154" lon="5.9368">
        <ele>2020.2</ele>
        <time>2012-06-16T11:09:53Z</time>
      </trkpt>
      <trkpt lat="45.15401" lon="5.93679">
        <ele>2020</ele>
        <time>2012-06-16T11:09:54Z</time>
      </trkpt>
      <trkpt lat="45.15405" lon="5.93658">
        <ele>2014.7</ele>
        <time>2012-06-16T11:10:17Z</time>
      </trkpt>
      <trkpt lat="45.15408" lon="5.93646">
        <ele>2011.7</ele>
        <time>2012-06-16T11:10:27Z</time>
      </trkpt>
      <trkpt lat="45.15404" lon="5.93636">
        <ele>2010.2</ele>
        <time>2012-06-16T11:10:43Z</time>
      </trkpt>
      <trkpt lat="45.1541" lon="5.93626">
        <ele>2009.3</ele>
        <time>2012-06-16T11:12:30Z</time>
      </trkpt>
      <trkpt lat="45.15411" lon="5.93626">
        <ele>2009.3</ele>
        <time>2012-06-16T11:12:31Z</time>
      </trkpt>
      <trkpt lat="45.15422" lon="5.9364">
        <ele>2009.5</ele>
        <time>2012-06-16T11:17:37Z</time>
      </trkpt>
      <trkpt lat="45.15422" lon="5.93641">
        <ele>2009.2</ele>
        <time>2012-06-16T11:17:38Z</time>
      </trkpt>
      <trkpt lat="45.15433" lon="5.93658">
        <ele>2010.7</ele>
        <time>2012-06-16T11:17:54Z</time>
      </trkpt>
      <trkpt lat="45.15439" lon="5.93666">
        <ele>2011.6</ele>
        <time>2012-06-16T11:18:01Z</time>
      </trkpt>
      <trkpt lat="45.15445" lon="5.93675">
        <ele>2010.9</ele>
        <time>2012-06-16T11:18:09Z</time>
      </trkpt>
      <trkpt lat="45.15449" lon="5.93687">
        <ele>2011.4</ele>
        <time>2012-06-16T11:18:17Z</time>
      </trkpt>
      <trkpt lat="45.15453" lon="5.93696">
        <ele>2012.5</ele>
        <time>2012-06-16T11:18:24Z</time>
      </trkpt>
      <trkpt lat="45.15459" lon="5.93705">
        <ele>2012.4</ele>
        <time>2012-06-16T11:18:32Z</time>
      </trkpt>
      <trkpt lat="45.15467" lon="5.93711">
        <ele>2011.9</ele>
        <time>2012-06-16T11:18:41Z</time>
      </trkpt>
      <trkpt lat="45.15468" lon="5.93712">
        <ele>2011.9</ele>
        <time>2012-06-16T11:18:42Z</time>
      </trkpt>
      <trkpt lat="45.1548" lon="5.93727">
        <ele>2010.5</ele>
        <time>2012-06-16T11:19:06Z</time>
      </trkpt>
      <trkpt lat="45.15486" lon="5.93735">
        <ele>2010.5</ele>
        <time>2012-06-16T11:19:13Z</time>
      </trkpt>
      <trkpt lat="45.15493" lon="5.9374">
        <ele>2010.6</ele>
        <time>2012-06-16T11:19:20Z</time>
      </trkpt>
      <trkpt lat="45.15499" lon="5.93748">
        <ele>2009.8</ele>
        <time>2012-06-16T11:19:28Z</time>
      </trkpt>
      <trkpt lat="45.15507" lon="5.93753">
        <ele>2010.1</ele>
        <time>2012-06-16T11:19:36Z</time>
      </trkpt>
      <trkpt lat="45.15514" lon="5.9376">
        <ele>2010.3</ele>
        <time>2012-06-16T11:19:45Z</time>
      </trkpt>
      <trkpt lat="45.15515" lon="5.93761">
        <ele>2010.2</ele>
        <time>2012-06-16T11:19:46Z</time>
      </trkpt>
      <trkpt lat="45.1552" lon="5.93782">
        <ele>2011.1</ele>
        <time>2012-06-16T11:20:01Z</time>
      </trkpt>
      <trkpt lat="45.15521" lon="5.93795">
        <ele>2011.3</ele>
        <time>2012-06-16T11:20:09Z</time>
      </trkpt>
      <trkpt lat="45.15522" lon="5.93807">
        <ele>2011.6</ele>
        <time>2012-06-16T11:20:17Z</time>
      </trkpt>
      <trkpt lat="45.15523" lon="5.93819">
        <ele>2011.4</ele>
        <time>2012-06-16T11:20:25Z</time>
      </trkpt>
      <trkpt lat="45.15525" lon="5.93831">
        <ele>2010.6</ele>
        <time>2012-06-16T11:20:33Z</time>
      </trkpt>
      <trkpt lat="45.15527" lon="5.93843">
        <ele>2011.8</ele>
        <time>2012-06-16T11:20:41Z</time>
      </trkpt>
      <trkpt lat="45.15531" lon="5.93853">
        <ele>2012</ele>
        <time>2012-06-16T11:20:49Z</time>
      </trkpt>
      <trkpt lat="45.15531" lon="5.93855">
        <ele>2011.9</ele>
        <time>2012-06-16T11:20:50Z</time>
      </trkpt>
      <trkpt lat="45.15537" lon="5.93876">
        <ele>2012.9</ele>
        <time>2012-06-16T11:21:05Z</time>
      </trkpt>
      <trkpt lat="45.15541" lon="5.93887">
        <ele>2012.9</ele>
        <time>2012-06-16T11:21:13Z</time>
      </trkpt>
      <trkpt lat="45.15548" lon="5.93894">
        <ele>2013.4</ele>
        <time>2012-06-16T11:21:21Z</time>
      </trkpt>
      <trkpt lat="45.15555" lon="5.939">
        <ele>2014.3</ele>
        <time>2012-06-16T11:21:29Z</time>
      </trkpt>
      <trkpt lat="45.15562" lon="5.93906">
        <ele>2014.2</ele>
        <time>2012-06-16T11:21:37Z</time>
      </trkpt>
      <trkpt lat="45.15567" lon="5.93916">
        <ele>2014.5</ele>
        <time>2012-06-16T11:21:44Z</time>
      </trkpt>
      <trkpt lat="45.15571" lon="5.93926">
        <ele>2014.9</ele>
        <time>2012-06-16T11:21:53Z</time>
      </trkpt>
      <trkpt lat="45.15572" lon="5.93928">
        <ele>2015</ele>
        <time>2012-06-16T11:21:54Z</time>
      </trkpt>
      <trkpt lat="45.15576" lon="5.93949">
        <ele>2015.8</ele>
        <time>2012-06-16T11:22:09Z</time>
      </trkpt>
      <trkpt lat="45.1558" lon="5.93959">
        <ele>2016.8</ele>
        <time>2012-06-16T11:22:17Z</time>
      </trkpt>
      <trkpt lat="45.15584" lon="5.9397">
        <ele>2016.3</ele>
        <time>2012-06-16T11:22:25Z</time>
      </trkpt>
      <trkpt lat="45.15588" lon="5.93981">
        <ele>2017.4</ele>
        <time>2012-06-16T11:22:36Z</time>
      </trkpt>
      <trkpt lat="45.15592" lon="5.93991">
        <ele>2018.2</ele>
        <time>2012-06-16T11:22:45Z</time>
      </trkpt>
      <trkpt lat="45.15599" lon="5.93998">
        <ele>2017.8</ele>
        <time>2012-06-16T11:24:34Z</time>
      </trkpt>
      <trkpt lat="45.156" lon="5.93999">
        <ele>2017.8</ele>
        <time>2012-06-16T11:24:35Z</time>
      </trkpt>
      <trkpt lat="45.15608" lon="5.93992">
        <ele>2017.4</ele>
        <time>2012-06-16T12:05:14Z</time>
      </trkpt>
      <trkpt lat="45.15616" lon="5.93987">
        <ele>2021.3</ele>
        <time>2012-06-16T12:07:07Z</time>
      </trkpt>
      <trkpt lat="45.15622" lon="5.93967">
        <ele>2023.5</ele>
        <time>2012-06-16T12:07:23Z</time>
      </trkpt>
      <trkpt lat="45.15621" lon="5.93955">
        <ele>2021.9</ele>
        <time>2012-06-16T12:07:30Z</time>
      </trkpt>
      <trkpt lat="45.15618" lon="5.93944">
        <ele>2021</ele>
        <time>2012-06-16T12:07:37Z</time>
      </trkpt>
      <trkpt lat="45.15615" lon="5.93932">
        <ele>2020.3</ele>
        <time>2012-06-16T12:07:45Z</time>
      </trkpt>
      <trkpt lat="45.15615" lon="5.93921">
        <ele>2019</ele>
        <time>2012-06-16T12:07:52Z</time>
      </trkpt>
      <trkpt lat="45.15611" lon="5.9391">
        <ele>2018</ele>
        <time>2012-06-16T12:08:00Z</time>
      </trkpt>
      <trkpt lat="45.15607" lon="5.93899">
        <ele>2017.3</ele>
        <time>2012-06-16T12:08:07Z</time>
      </trkpt>
      <trkpt lat="45.15602" lon="5.9389">
        <ele>2017.3</ele>
        <time>2012-06-16T12:08:13Z</time>
      </trkpt>
      <trkpt lat="45.15602" lon="5.93888">
        <ele>2016.9</ele>
        <time>2012-06-16T12:08:14Z</time>
      </trkpt>
      <trkpt lat="45.15593" lon="5.93872">
        <ele>2015.3</ele>
        <time>2012-06-16T12:08:25Z</time>
      </trkpt>
      <trkpt lat="45.15588" lon="5.93863">
        <ele>2015.5</ele>
        <time>2012-06-16T12:08:31Z</time>
      </trkpt>
      <trkpt lat="45.15582" lon="5.93853">
        <ele>2015</ele>
        <time>2012-06-16T12:08:38Z</time>
      </trkpt>
      <trkpt lat="45.15579" lon="5.93843">
        <ele>2014.4</ele>
        <time>2012-06-16T12:08:44Z</time>
      </trkpt>
      <trkpt lat="45.15573" lon="5.93835">
        <ele>2014.4</ele>
        <time>2012-06-16T12:08:50Z</time>
      </trkpt>
      <trkpt lat="45.15568" lon="5.93824">
        <ele>2014</ele>
        <time>2012-06-16T12:08:57Z</time>
      </trkpt>
      <trkpt lat="45.15564" lon="5.93815">
        <ele>2013.6</ele>
        <time>2012-06-16T12:09:03Z</time>
      </trkpt>
      <trkpt lat="45.15559" lon="5.93805">
        <ele>2014.1</ele>
        <time>2012-06-16T12:09:09Z</time>
      </trkpt>
      <trkpt lat="45.15555" lon="5.93795">
        <ele>2014</ele>
        <time>2012-06-16T12:09:15Z</time>
      </trkpt>
      <trkpt lat="45.15555" lon="5.93794">
        <ele>2014</ele>
        <time>2012-06-16T12:09:16Z</time>
      </trkpt>
      <trkpt lat="45.15545" lon="5.93779">
        <ele>2013.9</ele>
        <time>2012-06-16T12:09:27Z</time>
      </trkpt>
      <trkpt lat="45.1554" lon="5.93768">
        <ele>2014.1</ele>
        <time>2012-06-16T12:09:33Z</time>
      </trkpt>
      <trkpt lat="45.15536" lon="5.93758">
        <ele>2013.1</ele>
        <time>2012-06-16T12:09:39Z</time>
      </trkpt>
      <trkpt lat="45.15532" lon="5.93748">
        <ele>2012.1</ele>
        <time>2012-06-16T12:09:46Z</time>
      </trkpt>
      <trkpt lat="45.15528" lon="5.93737">
        <ele>2012.1</ele>
        <time>2012-06-16T12:09:53Z</time>
      </trkpt>
      <trkpt lat="45.15526" lon="5.93724">
        <ele>2012.7</ele>
        <time>2012-06-16T12:10:00Z</time>
      </trkpt>
      <trkpt lat="45.15523" lon="5.93714">
        <ele>2012.5</ele>
        <time>2012-06-16T12:10:07Z</time>
      </trkpt>
      <trkpt lat="45.15518" lon="5.93706">
        <ele>2011.7</ele>
        <time>2012-06-16T12:10:13Z</time>
      </trkpt>
      <trkpt lat="45.15512" lon="5.93696">
        <ele>2012.1</ele>
        <time>2012-06-16T12:10:20Z</time>
      </trkpt>
      <trkpt lat="45.15512" lon="5.93694">
        <ele>2012.1</ele>
        <time>2012-06-16T12:10:21Z</time>
      </trkpt>
      <trkpt lat="45.15507" lon="5.93672">
        <ele>2012.4</ele>
        <time>2012-06-16T12:10:33Z</time>
      </trkpt>
      <trkpt lat="45.15504" lon="5.9366">
        <ele>2012.5</ele>
        <time>2012-06-16T12:10:40Z</time>
      </trkpt>
      <trkpt lat="45.15499" lon="5.93651">
        <ele>2012.3</ele>
        <time>2012-06-16T12:10:46Z</time>
      </trkpt>
      <trkpt lat="45.15492" lon="5.93642">
        <ele>2012.5</ele>
        <time>2012-06-16T12:10:53Z</time>
      </trkpt>
      <trkpt lat="45.15488" lon="5.93632">
        <ele>2011.8</ele>
        <time>2012-06-16T12:11:00Z</time>
      </trkpt>
      <trkpt lat="45.15483" lon="5.93623">
        <ele>2013.2</ele>
        <time>2012-06-16T12:11:07Z</time>
      </trkpt>
      <trkpt lat="45.15481" lon="5.93612">
        <ele>2014.1</ele>
        <time>2012-06-16T12:11:15Z</time>
      </trkpt>
      <trkpt lat="45.15479" lon="5.93599">
        <ele>2014.8</ele>
        <time>2012-06-16T12:11:24Z</time>
      </trkpt>
      <trkpt lat="45.15479" lon="5.93597">
        <ele>2015</ele>
        <time>2012-06-16T12:11:25Z</time>
      </trkpt>
      <trkpt lat="45.15466" lon="5.93573">
        <ele>2016</ele>
        <time>2012-06-16T12:11:43Z</time>
      </trkpt>
      <trkpt lat="45.15462" lon="5.93562">
        <ele>2017.3</ele>
        <time>2012-06-16T12:11:52Z</time>
      </trkpt>
      <trkpt lat="45.15459" lon="5.93551">
        <ele>2017.1</ele>
        <time>2012-06-16T12:12:00Z</time>
      </trkpt>
      <trkpt lat="45.15456" lon="5.93539">
        <ele>2018.5</ele>
        <time>2012-06-16T12:12:09Z</time>
      </trkpt>
      <trkpt lat="45.15454" lon="5.93527">
        <ele>2020.6</ele>
        <time>2012-06-16T12:12:20Z</time>
      </trkpt>
      <trkpt lat="45.15453" lon="5.93515">
        <ele>2022.2</ele>
        <time>2012-06-16T12:12:29Z</time>
      </trkpt>
      <trkpt lat="45.15453" lon="5.93514">
        <ele>2022.2</ele>
        <time>2012-06-16T12:12:30Z</time>
      </trkpt>
      <trkpt lat="45.1546" lon="5.93494">
        <ele>2025</ele>
        <time>2012-06-16T12:12:55Z</time>
      </trkpt>
      <trkpt lat="45.15469" lon="5.93494">
        <ele>2024.6</ele>
        <time>2012-06-16T12:13:06Z</time>
      </trkpt>
      <trkpt lat="45.15477" lon="5.93494">
        <ele>2023.1</ele>
        <time>2012-06-16T12:13:17Z</time>
      </trkpt>
      <trkpt lat="45.15485" lon="5.93499">
        <ele>2022.8</ele>
        <time>2012-06-16T12:13:26Z</time>
      </trkpt>
      <trkpt lat="45.15492" lon="5.93507">
        <ele>2022.4</ele>
        <time>2012-06-16T12:13:34Z</time>
      </trkpt>
      <trkpt lat="45.15492" lon="5.93507">
        <ele>2022.3</ele>
        <time>2012-06-16T12:13:35Z</time>
      </trkpt>
      <trkpt lat="45.15507" lon="5.93518">
        <ele>2019.9</ele>
        <time>2012-06-16T12:13:52Z</time>
      </trkpt>
      <trkpt lat="45.15515" lon="5.93518">
        <ele>2018.7</ele>
        <time>2012-06-16T12:14:00Z</time>
      </trkpt>
      <trkpt lat="45.15523" lon="5.93517">
        <ele>2017.3</ele>
        <time>2012-06-16T12:14:08Z</time>
      </trkpt>
      <trkpt lat="45.15522" lon="5.93504">
        <ele>2014.1</ele>
        <time>2012-06-16T12:14:23Z</time>
      </trkpt>
      <trkpt lat="45.15517" lon="5.93494">
        <ele>2012.1</ele>
        <time>2012-06-16T12:14:32Z</time>
      </trkpt>
      <trkpt lat="45.15514" lon="5.93483">
        <ele>2010.7</ele>
        <time>2012-06-16T12:14:40Z</time>
      </trkpt>
      <trkpt lat="45.15514" lon="5.93482">
        <ele>2010.4</ele>
        <time>2012-06-16T12:14:41Z</time>
      </trkpt>
      <trkpt lat="45.15519" lon="5.9346">
        <ele>2005.4</ele>
        <time>2012-06-16T12:15:00Z</time>
      </trkpt>
      <trkpt lat="45.15512" lon="5.93454">
        <ele>2003.2</ele>
        <time>2012-06-16T12:15:08Z</time>
      </trkpt>
      <trkpt lat="45.15505" lon="5.93446">
        <ele>2001.9</ele>
        <time>2012-06-16T12:15:17Z</time>
      </trkpt>
      <trkpt lat="45.15501" lon="5.93436">
        <ele>2000.7</ele>
        <time>2012-06-16T12:15:25Z</time>
      </trkpt>
      <trkpt lat="45.15496" lon="5.93427">
        <ele>1998.9</ele>
        <time>2012-06-16T12:15:34Z</time>
      </trkpt>
      <trkpt lat="45.15493" lon="5.93416">
        <ele>1997.7</ele>
        <time>2012-06-16T12:15:41Z</time>
      </trkpt>
      <trkpt lat="45.15487" lon="5.93407">
        <ele>1996.6</ele>
        <time>2012-06-16T12:15:49Z</time>
      </trkpt>
      <trkpt lat="45.15486" lon="5.93406">
        <ele>1996.6</ele>
        <time>2012-06-16T12:15:50Z</time>
      </trkpt>
      <trkpt lat="45.15472" lon="5.93418">
        <ele>1996.6</ele>
        <time>2012-06-16T12:16:17Z</time>
      </trkpt>
      <trkpt lat="45.15465" lon="5.93412">
        <ele>1995.9</ele>
        <time>2012-06-16T12:16:39Z</time>
      </trkpt>
      <trkpt lat="45.15457" lon="5.93417">
        <ele>1995.5</ele>
        <time>2012-06-16T12:17:07Z</time>
      </trkpt>
      <trkpt lat="45.15456" lon="5.93417">
        <ele>1995.5</ele>
        <time>2012-06-16T12:17:08Z</time>
      </trkpt>
      <trkpt lat="45.15443" lon="5.93424">
        <ele>1989.4</ele>
        <time>2012-06-16T12:18:08Z</time>
      </trkpt>
      <trkpt lat="45.15434" lon="5.93423">
        <ele>1987.6</ele>
        <time>2012-06-16T12:18:19Z</time>
      </trkpt>
      <trkpt lat="45.15433" lon="5.93423">
        <ele>1987.5</ele>
        <time>2012-06-16T12:18:20Z</time>
      </trkpt>
      <trkpt lat="45.15434" lon="5.93414">
        <ele>1981.5</ele>
        <time>2012-06-16T12:18:47Z</time>
      </trkpt>
      <trkpt lat="45.15439" lon="5.93406">
        <ele>1979.4</ele>
        <time>2012-06-16T12:18:55Z</time>
      </trkpt>
      <trkpt lat="45.15432" lon="5.93398">
        <ele>1976.6</ele>
        <time>2012-06-16T12:19:12Z</time>
      </trkpt>
      <trkpt lat="45.15429" lon="5.93386">
        <ele>1970.7</ele>
        <time>2012-06-16T12:19:35Z</time>
      </trkpt>
      <trkpt lat="45.15429" lon="5.93386">
        <ele>1970.5</ele>
        <time>2012-06-16T12:19:36Z</time>
      </trkpt>
      <trkpt lat="45.15416" lon="5.93369">
        <ele>1963.9</ele>
        <time>2012-06-16T12:20:10Z</time>
      </trkpt>
      <trkpt lat="45.15413" lon="5.93358">
        <ele>1961.4</ele>
        <time>2012-06-16T12:20:21Z</time>
      </trkpt>
      <trkpt lat="45.15419" lon="5.9335">
        <ele>1959.1</ele>
        <time>2012-06-16T12:20:31Z</time>
      </trkpt>
      <trkpt lat="45.15423" lon="5.93339">
        <ele>1957.8</ele>
        <time>2012-06-16T12:20:39Z</time>
      </trkpt>
      <trkpt lat="45.15423" lon="5.93338">
        <ele>1957.8</ele>
        <time>2012-06-16T12:20:40Z</time>
      </trkpt>
      <trkpt lat="45.15426" lon="5.93315">
        <ele>1956.7</ele>
        <time>2012-06-16T12:20:54Z</time>
      </trkpt>
      <trkpt lat="45.15426" lon="5.93303">
        <ele>1956.3</ele>
        <time>2012-06-16T12:21:01Z</time>
      </trkpt>
      <trkpt lat="45.15427" lon="5.93292">
        <ele>1955.7</ele>
        <time>2012-06-16T12:21:08Z</time>
      </trkpt>
      <trkpt lat="45.15427" lon="5.9328">
        <ele>1954.1</ele>
        <time>2012-06-16T12:21:15Z</time>
      </trkpt>
      <trkpt lat="45.15426" lon="5.93268">
        <ele>1954.7</ele>
        <time>2012-06-16T12:21:22Z</time>
      </trkpt>
      <trkpt lat="45.15426" lon="5.93256">
        <ele>1954</ele>
        <time>2012-06-16T12:21:29Z</time>
      </trkpt>
      <trkpt lat="45.15424" lon="5.93244">
        <ele>1953.5</ele>
        <time>2012-06-16T12:21:37Z</time>
      </trkpt>
      <trkpt lat="45.15419" lon="5.93235">
        <ele>1952.9</ele>
        <time>2012-06-16T12:21:43Z</time>
      </trkpt>
      <trkpt lat="45.15418" lon="5.93234">
        <ele>1953.1</ele>
        <time>2012-06-16T12:21:44Z</time>
      </trkpt>
      <trkpt lat="45.15408" lon="5.93218">
        <ele>1952</ele>
        <time>2012-06-16T12:21:56Z</time>
      </trkpt>
      <trkpt lat="45.15401" lon="5.93211">
        <ele>1952.4</ele>
        <time>2012-06-16T12:22:03Z</time>
      </trkpt>
      <trkpt lat="45.15396" lon="5.93203">
        <ele>1951.7</ele>
        <time>2012-06-16T12:22:09Z</time>
      </trkpt>
      <trkpt lat="45.15391" lon="5.93192">
        <ele>1950.6</ele>
        <time>2012-06-16T12:22:16Z</time>
      </trkpt>
      <trkpt lat="45.15385" lon="5.93183">
        <ele>1950.1</ele>
        <time>2012-06-16T12:22:24Z</time>
      </trkpt>
      <trkpt lat="45.15379" lon="5.93175">
        <ele>1949.4</ele>
        <time>2012-06-16T12:22:31Z</time>
      </trkpt>
      <trkpt lat="45.15371" lon="5.93168">
        <ele>1950.4</ele>
        <time>2012-06-16T12:22:38Z</time>
      </trkpt>
      <trkpt lat="45.15364" lon="5.93162">
        <ele>1949.7</ele>
        <time>2012-06-16T12:22:44Z</time>
      </trkpt>
      <trkpt lat="45.15356" lon="5.93161">
        <ele>1950.1</ele>
        <time>2012-06-16T12:23:10Z</time>
      </trkpt>
      <trkpt lat="45.15355" lon="5.9316">
        <ele>1949.9</ele>
        <time>2012-06-16T12:23:11Z</time>
      </trkpt>
      <trkpt lat="45.15339" lon="5.9316">
        <ele>1948.2</ele>
        <time>2012-06-16T12:25:27Z</time>
      </trkpt>
      <trkpt lat="45.15338" lon="5.93161">
        <ele>1948.4</ele>
        <time>2012-06-16T12:25:28Z</time>
      </trkpt>
      <trkpt lat="45.15323" lon="5.93163">
        <ele>1947.3</ele>
        <time>2012-06-16T12:26:45Z</time>
      </trkpt>
      <trkpt lat="45.15322" lon="5.93163">
        <ele>1947.4</ele>
        <time>2012-06-16T12:26:46Z</time>
      </trkpt>
      <trkpt lat="45.15324" lon="5.93159">
        <ele>1947.4</ele>
        <time>2012-06-16T12:27:41Z</time>
      </trkpt>
      <trkpt lat="45.1532" lon="5.93149">
        <ele>1947.7</ele>
        <time>2012-06-16T12:29:50Z</time>
      </trkpt>
      <trkpt lat="45.15319" lon="5.93148">
        <ele>1947.8</ele>
        <time>2012-06-16T12:29:51Z</time>
      </trkpt>
      <trkpt lat="45.15309" lon="5.93133">
        <ele>1948.3</ele>
        <time>2012-06-16T12:30:05Z</time>
      </trkpt>
      <trkpt lat="45.15303" lon="5.93124">
        <ele>1947.3</ele>
        <time>2012-06-16T12:30:12Z</time>
      </trkpt>
      <trkpt lat="45.15299" lon="5.93113">
        <ele>1947.2</ele>
        <time>2012-06-16T12:30:21Z</time>
      </trkpt>
      <trkpt lat="45.15293" lon="5.93106">
        <ele>1947.3</ele>
        <time>2012-06-16T12:30:29Z</time>
      </trkpt>
      <trkpt lat="45.15288" lon="5.93097">
        <ele>1947</ele>
        <time>2012-06-16T12:30:57Z</time>
      </trkpt>
      <trkpt lat="45.15287" lon="5.93095">
        <ele>1947.4</ele>
        <time>2012-06-16T12:30:58Z</time>
      </trkpt>
      <trkpt lat="45.15279" lon="5.93076">
        <ele>1946.6</ele>
        <time>2012-06-16T12:33:04Z</time>
      </trkpt>
      <trkpt lat="45.15279" lon="5.93074">
        <ele>1946.5</ele>
        <time>2012-06-16T12:33:05Z</time>
      </trkpt>
      <trkpt lat="45.15271" lon="5.93053">
        <ele>1944.8</ele>
        <time>2012-06-16T12:33:19Z</time>
      </trkpt>
      <trkpt lat="45.15267" lon="5.93046">
        <ele>1945</ele>
        <time>2012-06-16T12:33:25Z</time>
      </trkpt>
      <trkpt lat="45.15261" lon="5.93037">
        <ele>1945.1</ele>
        <time>2012-06-16T12:33:31Z</time>
      </trkpt>
      <trkpt lat="45.15255" lon="5.93029">
        <ele>1944.9</ele>
        <time>2012-06-16T12:33:38Z</time>
      </trkpt>
      <trkpt lat="45.1525" lon="5.93021">
        <ele>1945</ele>
        <time>2012-06-16T12:33:44Z</time>
      </trkpt>
      <trkpt lat="45.15244" lon="5.93012">
        <ele>1944.7</ele>
        <time>2012-06-16T12:33:50Z</time>
      </trkpt>
      <trkpt lat="45.15239" lon="5.93003">
        <ele>1944.7</ele>
        <time>2012-06-16T12:33:57Z</time>
      </trkpt>
      <trkpt lat="45.15233" lon="5.92994">
        <ele>1943.9</ele>
        <time>2012-06-16T12:34:05Z</time>
      </trkpt>
      <trkpt lat="45.15229" lon="5.92984">
        <ele>1944.1</ele>
        <time>2012-06-16T12:34:13Z</time>
      </trkpt>
      <trkpt lat="45.15228" lon="5.92983">
        <ele>1943.9</ele>
        <time>2012-06-16T12:34:14Z</time>
      </trkpt>
      <trkpt lat="45.15219" lon="5.92964">
        <ele>1946.4</ele>
        <time>2012-06-16T12:34:35Z</time>
      </trkpt>
      <trkpt lat="45.15215" lon="5.92954">
        <ele>1946.6</ele>
        <time>2012-06-16T12:34:46Z</time>
      </trkpt>
      <trkpt lat="45.15208" lon="5.92947">
        <ele>1949</ele>
        <time>2012-06-16T12:34:55Z</time>
      </trkpt>
      <trkpt lat="45.15202" lon="5.92939">
        <ele>1949.4</ele>
        <time>2012-06-16T12:35:03Z</time>
      </trkpt>
      <trkpt lat="45.15195" lon="5.9293">
        <ele>1950.2</ele>
        <time>2012-06-16T12:35:10Z</time>
      </trkpt>
      <trkpt lat="45.15189" lon="5.9292">
        <ele>1949.7</ele>
        <time>2012-06-16T12:35:22Z</time>
      </trkpt>
      <trkpt lat="45.15189" lon="5.9292">
        <ele>1949.9</ele>
        <time>2012-06-16T12:35:23Z</time>
      </trkpt>
      <trkpt lat="45.15177" lon="5.92904">
        <ele>1951.2</ele>
        <time>2012-06-16T12:35:44Z</time>
      </trkpt>
      <trkpt lat="45.15172" lon="5.92895">
        <ele>1951.8</ele>
        <time>2012-06-16T12:35:51Z</time>
      </trkpt>
      <trkpt lat="45.15167" lon="5.92886">
        <ele>1951.4</ele>
        <time>2012-06-16T12:35:57Z</time>
      </trkpt>
      <trkpt lat="45.15162" lon="5.92877">
        <ele>1951.5</ele>
        <time>2012-06-16T12:36:04Z</time>
      </trkpt>
      <trkpt lat="45.15155" lon="5.92869">
        <ele>1952.5</ele>
        <time>2012-06-16T12:36:11Z</time>
      </trkpt>
      <trkpt lat="45.15151" lon="5.92858">
        <ele>1952.4</ele>
        <time>2012-06-16T12:36:18Z</time>
      </trkpt>
      <trkpt lat="45.1515" lon="5.92846">
        <ele>1953.8</ele>
        <time>2012-06-16T12:36:25Z</time>
      </trkpt>
      <trkpt lat="45.1515" lon="5.92844">
        <ele>1953.9</ele>
        <time>2012-06-16T12:36:26Z</time>
      </trkpt>
      <trkpt lat="45.15145" lon="5.92823">
        <ele>1950.7</ele>
        <time>2012-06-16T12:36:40Z</time>
      </trkpt>
      <trkpt lat="45.15142" lon="5.92812">
        <ele>1951</ele>
        <time>2012-06-16T12:36:48Z</time>
      </trkpt>
      <trkpt lat="45.15139" lon="5.928">
        <ele>1949.8</ele>
        <time>2012-06-16T12:36:55Z</time>
      </trkpt>
      <trkpt lat="45.15136" lon="5.92789">
        <ele>1949.6</ele>
        <time>2012-06-16T12:37:02Z</time>
      </trkpt>
      <trkpt lat="45.15133" lon="5.92777">
        <ele>1949.1</ele>
        <time>2012-06-16T12:37:10Z</time>
      </trkpt>
      <trkpt lat="45.15129" lon="5.92766">
        <ele>1948.5</ele>
        <time>2012-06-16T12:37:17Z</time>
      </trkpt>
      <trkpt lat="45.15125" lon="5.92755">
        <ele>1947.8</ele>
        <time>2012-06-16T12:37:24Z</time>
      </trkpt>
      <trkpt lat="45.15121" lon="5.92746">
        <ele>1946.9</ele>
        <time>2012-06-16T12:37:31Z</time>
      </trkpt>
      <trkpt lat="45.1512" lon="5.92744">
        <ele>1946.8</ele>
        <time>2012-06-16T12:37:32Z</time>
      </trkpt>
      <trkpt lat="45.15114" lon="5.92723">
        <ele>1945.7</ele>
        <time>2012-06-16T12:37:44Z</time>
      </trkpt>
      <trkpt lat="45.15112" lon="5.92712">
        <ele>1945.8</ele>
        <time>2012-06-16T12:37:50Z</time>
      </trkpt>
      <trkpt lat="45.15111" lon="5.927">
        <ele>1945.2</ele>
        <time>2012-06-16T12:37:57Z</time>
      </trkpt>
      <trkpt lat="45.15105" lon="5.92691">
        <ele>1943</ele>
        <time>2012-06-16T12:38:14Z</time>
      </trkpt>
      <trkpt lat="45.15099" lon="5.92682">
        <ele>1941.6</ele>
        <time>2012-06-16T12:38:26Z</time>
      </trkpt>
      <trkpt lat="45.15092" lon="5.9269">
        <ele>1941.6</ele>
        <time>2012-06-16T12:39:22Z</time>
      </trkpt>
      <trkpt lat="45.15091" lon="5.92691">
        <ele>1941.6</ele>
        <time>2012-06-16T12:39:23Z</time>
      </trkpt>
      <trkpt lat="45.15077" lon="5.927">
        <ele>1937.6</ele>
        <time>2012-06-16T12:39:49Z</time>
      </trkpt>
      <trkpt lat="45.15069" lon="5.92703">
        <ele>1936</ele>
        <time>2012-06-16T12:40:02Z</time>
      </trkpt>
      <trkpt lat="45.15066" lon="5.92691">
        <ele>1936.5</ele>
        <time>2012-06-16T12:40:48Z</time>
      </trkpt>
      <trkpt lat="45.15067" lon="5.9269">
        <ele>1936</ele>
        <time>2012-06-16T12:40:49Z</time>
      </trkpt>
      <trkpt lat="45.15069" lon="5.92668">
        <ele>1934.9</ele>
        <time>2012-06-16T12:41:02Z</time>
      </trkpt>
      <trkpt lat="45.15065" lon="5.92658">
        <ele>1933.5</ele>
        <time>2012-06-16T12:41:11Z</time>
      </trkpt>
      <trkpt lat="45.15057" lon="5.92662">
        <ele>1932.5</ele>
        <time>2012-06-16T12:41:24Z</time>
      </trkpt>
      <trkpt lat="45.15053" lon="5.92673">
        <ele>1929.6</ele>
        <time>2012-06-16T12:42:17Z</time>
      </trkpt>
      <trkpt lat="45.15052" lon="5.92674">
        <ele>1929.5</ele>
        <time>2012-06-16T12:42:18Z</time>
      </trkpt>
      <trkpt lat="45.15046" lon="5.92695">
        <ele>1928.4</ele>
        <time>2012-06-16T12:42:31Z</time>
      </trkpt>
      <trkpt lat="45.15047" lon="5.92707">
        <ele>1926.6</ele>
        <time>2012-06-16T12:42:40Z</time>
      </trkpt>
      <trkpt lat="45.15046" lon="5.9272">
        <ele>1924.7</ele>
        <time>2012-06-16T12:42:48Z</time>
      </trkpt>
      <trkpt lat="45.15044" lon="5.92732">
        <ele>1924</ele>
        <time>2012-06-16T12:42:55Z</time>
      </trkpt>
      <trkpt lat="45.15043" lon="5.92744">
        <ele>1922.7</ele>
        <time>2012-06-16T12:43:03Z</time>
      </trkpt>
      <trkpt lat="45.15043" lon="5.92756">
        <ele>1920.6</ele>
        <time>2012-06-16T12:43:11Z</time>
      </trkpt>
      <trkpt lat="45.15043" lon="5.92768">
        <ele>1919.2</ele>
        <time>2012-06-16T12:43:19Z</time>
      </trkpt>
      <trkpt lat="45.15038" lon="5.92758">
        <ele>1914.6</ele>
        <time>2012-06-16T12:43:49Z</time>
      </trkpt>
      <trkpt lat="45.15038" lon="5.92757">
        <ele>1914.6</ele>
        <time>2012-06-16T12:43:50Z</time>
      </trkpt>
      <trkpt lat="45.15032" lon="5.92736">
        <ele>1910.4</ele>
        <time>2012-06-16T12:44:07Z</time>
      </trkpt>
      <trkpt lat="45.15028" lon="5.92745">
        <ele>1907.9</ele>
        <time>2012-06-16T12:44:18Z</time>
      </trkpt>
      <trkpt lat="45.15025" lon="5.92757">
        <ele>1906.5</ele>
        <time>2012-06-16T12:44:27Z</time>
      </trkpt>
      <trkpt lat="45.15019" lon="5.92766">
        <ele>1903.7</ele>
        <time>2012-06-16T12:44:38Z</time>
      </trkpt>
      <trkpt lat="45.15014" lon="5.92776">
        <ele>1902</ele>
        <time>2012-06-16T12:44:52Z</time>
      </trkpt>
      <trkpt lat="45.15014" lon="5.92777">
        <ele>1902</ele>
        <time>2012-06-16T12:44:53Z</time>
      </trkpt>
      <trkpt lat="45.15002" lon="5.92793">
        <ele>1898.2</ele>
        <time>2012-06-16T12:45:15Z</time>
      </trkpt>
      <trkpt lat="45.14995" lon="5.92799">
        <ele>1896.5</ele>
        <time>2012-06-16T12:45:25Z</time>
      </trkpt>
      <trkpt lat="45.14987" lon="5.92794">
        <ele>1888.6</ele>
        <time>2012-06-16T12:46:04Z</time>
      </trkpt>
      <trkpt lat="45.14986" lon="5.92795">
        <ele>1888.4</ele>
        <time>2012-06-16T12:46:05Z</time>
      </trkpt>
      <trkpt lat="45.14971" lon="5.92792">
        <ele>1877.2</ele>
        <time>2012-06-16T12:46:58Z</time>
      </trkpt>
      <trkpt lat="45.14962" lon="5.92791">
        <ele>1870.9</ele>
        <time>2012-06-16T12:47:17Z</time>
      </trkpt>
      <trkpt lat="45.14962" lon="5.92791">
        <ele>1870.6</ele>
        <time>2012-06-16T12:47:18Z</time>
      </trkpt>
      <trkpt lat="45.14958" lon="5.92781">
        <ele>1861.6</ele>
        <time>2012-06-16T12:47:51Z</time>
      </trkpt>
      <trkpt lat="45.14963" lon="5.92771">
        <ele>1859.4</ele>
        <time>2012-06-16T12:48:02Z</time>
      </trkpt>
      <trkpt lat="45.14967" lon="5.9276">
        <ele>1856.3</ele>
        <time>2012-06-16T12:48:16Z</time>
      </trkpt>
      <trkpt lat="45.14959" lon="5.92755">
        <ele>1852.9</ele>
        <time>2012-06-16T12:48:37Z</time>
      </trkpt>
      <trkpt lat="45.14959" lon="5.92755">
        <ele>1852.7</ele>
        <time>2012-06-16T12:48:38Z</time>
      </trkpt>
      <trkpt lat="45.14945" lon="5.92768">
        <ele>1850</ele>
        <time>2012-06-16T12:48:56Z</time>
      </trkpt>
      <trkpt lat="45.14938" lon="5.92775">
        <ele>1847.9</ele>
        <time>2012-06-16T12:49:06Z</time>
      </trkpt>
      <trkpt lat="45.14929" lon="5.92778">
        <ele>1846.4</ele>
        <time>2012-06-16T12:49:14Z</time>
      </trkpt>
      <trkpt lat="45.14921" lon="5.92778">
        <ele>1844.9</ele>
        <time>2012-06-16T12:49:21Z</time>
      </trkpt>
      <trkpt lat="45.14926" lon="5.92769">
        <ele>1840.1</ele>
        <time>2012-06-16T12:49:48Z</time>
      </trkpt>
      <trkpt lat="45.14927" lon="5.92768">
        <ele>1839.8</ele>
        <time>2012-06-16T12:49:49Z</time>
      </trkpt>
      <trkpt lat="45.14938" lon="5.92751">
        <ele>1836.1</ele>
        <time>2012-06-16T12:50:08Z</time>
      </trkpt>
      <trkpt lat="45.1493" lon="5.92752">
        <ele>1832.5</ele>
        <time>2012-06-16T12:50:26Z</time>
      </trkpt>
      <trkpt lat="45.14922" lon="5.92751">
        <ele>1830.3</ele>
        <time>2012-06-16T12:50:35Z</time>
      </trkpt>
      <trkpt lat="45.14913" lon="5.92753">
        <ele>1827.7</ele>
        <time>2012-06-16T12:50:43Z</time>
      </trkpt>
      <trkpt lat="45.14919" lon="5.92744">
        <ele>1824.6</ele>
        <time>2012-06-16T12:51:01Z</time>
      </trkpt>
      <trkpt lat="45.1492" lon="5.92743">
        <ele>1824.5</ele>
        <time>2012-06-16T12:51:02Z</time>
      </trkpt>
      <trkpt lat="45.14928" lon="5.92723">
        <ele>1821.1</ele>
        <time>2012-06-16T12:51:22Z</time>
      </trkpt>
      <trkpt lat="45.1492" lon="5.92722">
        <ele>1819.3</ele>
        <time>2012-06-16T12:51:35Z</time>
      </trkpt>
      <trkpt lat="45.14911" lon="5.92723">
        <ele>1817.3</ele>
        <time>2012-06-16T12:51:44Z</time>
      </trkpt>
      <trkpt lat="45.14903" lon="5.92725">
        <ele>1815.7</ele>
        <time>2012-06-16T12:51:51Z</time>
      </trkpt>
      <trkpt lat="45.14894" lon="5.92724">
        <ele>1814.1</ele>
        <time>2012-06-16T12:51:59Z</time>
      </trkpt>
      <trkpt lat="45.14886" lon="5.92726">
        <ele>1813.6</ele>
        <time>2012-06-16T12:52:07Z</time>
      </trkpt>
      <trkpt lat="45.14885" lon="5.92726">
        <ele>1813.6</ele>
        <time>2012-06-16T12:52:08Z</time>
      </trkpt>
      <trkpt lat="45.14869" lon="5.92729">
        <ele>1809.3</ele>
        <time>2012-06-16T12:52:27Z</time>
      </trkpt>
      <trkpt lat="45.14865" lon="5.92718">
        <ele>1807.3</ele>
        <time>2012-06-16T12:52:50Z</time>
      </trkpt>
      <trkpt lat="45.1486" lon="5.92707">
        <ele>1806.1</ele>
        <time>2012-06-16T12:52:58Z</time>
      </trkpt>
      <trkpt lat="45.14868" lon="5.92708">
        <ele>1803.5</ele>
        <time>2012-06-16T12:53:15Z</time>
      </trkpt>
      <trkpt lat="45.14869" lon="5.92709">
        <ele>1803.7</ele>
        <time>2012-06-16T12:53:16Z</time>
      </trkpt>
      <trkpt lat="45.14883" lon="5.92697">
        <ele>1798.9</ele>
        <time>2012-06-16T12:53:37Z</time>
      </trkpt>
      <trkpt lat="45.1489" lon="5.9269">
        <ele>1796.9</ele>
        <time>2012-06-16T12:53:50Z</time>
      </trkpt>
      <trkpt lat="45.14897" lon="5.92682">
        <ele>1794</ele>
        <time>2012-06-16T12:54:02Z</time>
      </trkpt>
      <trkpt lat="45.14888" lon="5.9268">
        <ele>1791.5</ele>
        <time>2012-06-16T12:54:23Z</time>
      </trkpt>
      <trkpt lat="45.14887" lon="5.9268">
        <ele>1791.2</ele>
        <time>2012-06-16T12:54:24Z</time>
      </trkpt>
      <trkpt lat="45.14871" lon="5.9268">
        <ele>1787.9</ele>
        <time>2012-06-16T12:54:40Z</time>
      </trkpt>
      <trkpt lat="45.14863" lon="5.92679">
        <ele>1787.2</ele>
        <time>2012-06-16T12:54:49Z</time>
      </trkpt>
      <trkpt lat="45.14854" lon="5.92679">
        <ele>1786.1</ele>
        <time>2012-06-16T12:54:59Z</time>
      </trkpt>
      <trkpt lat="45.14863" lon="5.92676">
        <ele>1780.8</ele>
        <time>2012-06-16T12:55:22Z</time>
      </trkpt>
      <trkpt lat="45.14871" lon="5.92674">
        <ele>1779.7</ele>
        <time>2012-06-16T12:55:33Z</time>
      </trkpt>
      <trkpt lat="45.14872" lon="5.92674">
        <ele>1779.6</ele>
        <time>2012-06-16T12:55:34Z</time>
      </trkpt>
      <trkpt lat="45.14858" lon="5.9266">
        <ele>1773.2</ele>
        <time>2012-06-16T12:56:15Z</time>
      </trkpt>
      <trkpt lat="45.14851" lon="5.92656">
        <ele>1772.2</ele>
        <time>2012-06-16T12:56:24Z</time>
      </trkpt>
      <trkpt lat="45.14842" lon="5.92656">
        <ele>1771.1</ele>
        <time>2012-06-16T12:56:35Z</time>
      </trkpt>
      <trkpt lat="45.14842" lon="5.92656">
        <ele>1771.6</ele>
        <time>2012-06-16T12:56:36Z</time>
      </trkpt>
      <trkpt lat="45.14826" lon="5.92655">
        <ele>1767</ele>
        <time>2012-06-16T12:57:06Z</time>
      </trkpt>
      <trkpt lat="45.14818" lon="5.92656">
        <ele>1765.9</ele>
        <time>2012-06-16T12:57:27Z</time>
      </trkpt>
      <trkpt lat="45.1481" lon="5.92657">
        <ele>1764.8</ele>
        <time>2012-06-16T12:57:34Z</time>
      </trkpt>
      <trkpt lat="45.14801" lon="5.92659">
        <ele>1763.5</ele>
        <time>2012-06-16T12:57:42Z</time>
      </trkpt>
      <trkpt lat="45.14801" lon="5.92659">
        <ele>1763.7</ele>
        <time>2012-06-16T12:57:43Z</time>
      </trkpt>
      <trkpt lat="45.14784" lon="5.92658">
        <ele>1762.4</ele>
        <time>2012-06-16T12:57:59Z</time>
      </trkpt>
      <trkpt lat="45.14776" lon="5.92659">
        <ele>1761.3</ele>
        <time>2012-06-16T12:58:06Z</time>
      </trkpt>
      <trkpt lat="45.14767" lon="5.92656">
        <ele>1761.4</ele>
        <time>2012-06-16T12:58:13Z</time>
      </trkpt>
      <trkpt lat="45.1476" lon="5.92651">
        <ele>1760.5</ele>
        <time>2012-06-16T12:58:20Z</time>
      </trkpt>
      <trkpt lat="45.14752" lon="5.92648">
        <ele>1759.1</ele>
        <time>2012-06-16T12:58:29Z</time>
      </trkpt>
      <trkpt lat="45.14743" lon="5.92648">
        <ele>1757.2</ele>
        <time>2012-06-16T12:58:39Z</time>
      </trkpt>
      <trkpt lat="45.14735" lon="5.92649">
        <ele>1757</ele>
        <time>2012-06-16T12:58:47Z</time>
      </trkpt>
      <trkpt lat="45.14734" lon="5.9265">
        <ele>1757</ele>
        <time>2012-06-16T12:58:48Z</time>
      </trkpt>
      <trkpt lat="45.14718" lon="5.92652">
        <ele>1755.6</ele>
        <time>2012-06-16T12:59:02Z</time>
      </trkpt>
      <trkpt lat="45.14709" lon="5.92656">
        <ele>1753.7</ele>
        <time>2012-06-16T12:59:14Z</time>
      </trkpt>
      <trkpt lat="45.147" lon="5.92656">
        <ele>1751.5</ele>
        <time>2012-06-16T12:59:25Z</time>
      </trkpt>
      <trkpt lat="45.14697" lon="5.92645">
        <ele>1749</ele>
        <time>2012-06-16T12:59:38Z</time>
      </trkpt>
      <trkpt lat="45.14696" lon="5.92632">
        <ele>1745.6</ele>
        <time>2012-06-16T12:59:55Z</time>
      </trkpt>
      <trkpt lat="45.14696" lon="5.92631">
        <ele>1745.8</ele>
        <time>2012-06-16T12:59:56Z</time>
      </trkpt>
      <trkpt lat="45.14695" lon="5.92608">
        <ele>1739.2</ele>
        <time>2012-06-16T13:00:26Z</time>
      </trkpt>
      <trkpt lat="45.14693" lon="5.92596">
        <ele>1736.2</ele>
        <time>2012-06-16T13:00:40Z</time>
      </trkpt>
      <trkpt lat="45.14701" lon="5.92592">
        <ele>1731.1</ele>
        <time>2012-06-16T13:01:02Z</time>
      </trkpt>
      <trkpt lat="45.14701" lon="5.92591">
        <ele>1730.8</ele>
        <time>2012-06-16T13:01:03Z</time>
      </trkpt>
      <trkpt lat="45.14694" lon="5.9257">
        <ele>1727.4</ele>
        <time>2012-06-16T13:01:22Z</time>
      </trkpt>
      <trkpt lat="45.14688" lon="5.92562">
        <ele>1725</ele>
        <time>2012-06-16T13:01:36Z</time>
      </trkpt>
      <trkpt lat="45.14682" lon="5.92553">
        <ele>1722.5</ele>
        <time>2012-06-16T13:01:50Z</time>
      </trkpt>
      <trkpt lat="45.14676" lon="5.92544">
        <ele>1721.4</ele>
        <time>2012-06-16T13:02:02Z</time>
      </trkpt>
      <trkpt lat="45.14672" lon="5.92532">
        <ele>1719.9</ele>
        <time>2012-06-16T13:02:15Z</time>
      </trkpt>
      <trkpt lat="45.14673" lon="5.92532">
        <ele>1719.8</ele>
        <time>2012-06-16T13:02:16Z</time>
      </trkpt>
      <trkpt lat="45.1468" lon="5.92511">
        <ele>1710</ele>
        <time>2012-06-16T13:02:58Z</time>
      </trkpt>
      <trkpt lat="45.14682" lon="5.92499">
        <ele>1706.4</ele>
        <time>2012-06-16T13:03:14Z</time>
      </trkpt>
      <trkpt lat="45.14681" lon="5.92487">
        <ele>1704.1</ele>
        <time>2012-06-16T13:03:29Z</time>
      </trkpt>
      <trkpt lat="45.14681" lon="5.92486">
        <ele>1703.7</ele>
        <time>2012-06-16T13:03:30Z</time>
      </trkpt>
      <trkpt lat="45.14684" lon="5.92464">
        <ele>1693.8</ele>
        <time>2012-06-16T13:04:06Z</time>
      </trkpt>
      <trkpt lat="45.14682" lon="5.92452">
        <ele>1691.2</ele>
        <time>2012-06-16T13:04:20Z</time>
      </trkpt>
      <trkpt lat="45.14687" lon="5.92442">
        <ele>1688.4</ele>
        <time>2012-06-16T13:04:34Z</time>
      </trkpt>
      <trkpt lat="45.14687" lon="5.9244">
        <ele>1688.2</ele>
        <time>2012-06-16T13:04:35Z</time>
      </trkpt>
      <trkpt lat="45.14689" lon="5.92419">
        <ele>1684.2</ele>
        <time>2012-06-16T13:04:52Z</time>
      </trkpt>
      <trkpt lat="45.14688" lon="5.92407">
        <ele>1681.9</ele>
        <time>2012-06-16T13:05:02Z</time>
      </trkpt>
      <trkpt lat="45.14692" lon="5.92397">
        <ele>1680</ele>
        <time>2012-06-16T13:05:12Z</time>
      </trkpt>
      <trkpt lat="45.14693" lon="5.92385">
        <ele>1678.5</ele>
        <time>2012-06-16T13:05:21Z</time>
      </trkpt>
      <trkpt lat="45.14695" lon="5.92373">
        <ele>1674.9</ele>
        <time>2012-06-16T13:05:35Z</time>
      </trkpt>
      <trkpt lat="45.14699" lon="5.92362">
        <ele>1673.3</ele>
        <time>2012-06-16T13:05:42Z</time>
      </trkpt>
      <trkpt lat="45.147" lon="5.92361">
        <ele>1673.2</ele>
        <time>2012-06-16T13:05:43Z</time>
      </trkpt>
      <trkpt lat="45.14695" lon="5.9234">
        <ele>1670.5</ele>
        <time>2012-06-16T13:05:58Z</time>
      </trkpt>
      <trkpt lat="45.14687" lon="5.92336">
        <ele>1669.2</ele>
        <time>2012-06-16T13:06:06Z</time>
      </trkpt>
      <trkpt lat="45.14679" lon="5.92333">
        <ele>1668.2</ele>
        <time>2012-06-16T13:06:13Z</time>
      </trkpt>
      <trkpt lat="45.14673" lon="5.92323">
        <ele>1666</ele>
        <time>2012-06-16T13:06:23Z</time>
      </trkpt>
      <trkpt lat="45.14671" lon="5.92312">
        <ele>1662.6</ele>
        <time>2012-06-16T13:06:36Z</time>
      </trkpt>
      <trkpt lat="45.14665" lon="5.92302">
        <ele>1661.9</ele>
        <time>2012-06-16T13:06:43Z</time>
      </trkpt>
      <trkpt lat="45.14662" lon="5.92292">
        <ele>1660.7</ele>
        <time>2012-06-16T13:06:51Z</time>
      </trkpt>
      <trkpt lat="45.1466" lon="5.92291">
        <ele>1660.6</ele>
        <time>2012-06-16T13:06:52Z</time>
      </trkpt>
      <trkpt lat="45.14654" lon="5.9227">
        <ele>1658.6</ele>
        <time>2012-06-16T13:07:13Z</time>
      </trkpt>
      <trkpt lat="45.14652" lon="5.92258">
        <ele>1657</ele>
        <time>2012-06-16T13:07:27Z</time>
      </trkpt>
      <trkpt lat="45.14648" lon="5.92247">
        <ele>1654.9</ele>
        <time>2012-06-16T13:07:37Z</time>
      </trkpt>
      <trkpt lat="45.14644" lon="5.92236">
        <ele>1653</ele>
        <time>2012-06-16T13:07:47Z</time>
      </trkpt>
      <trkpt lat="45.14641" lon="5.92225">
        <ele>1651.1</ele>
        <time>2012-06-16T13:07:56Z</time>
      </trkpt>
      <trkpt lat="45.14641" lon="5.92224">
        <ele>1650.9</ele>
        <time>2012-06-16T13:07:57Z</time>
      </trkpt>
      <trkpt lat="45.14636" lon="5.92203">
        <ele>1649</ele>
        <time>2012-06-16T13:08:18Z</time>
      </trkpt>
      <trkpt lat="45.14636" lon="5.9219">
        <ele>1644.9</ele>
        <time>2012-06-16T13:08:38Z</time>
      </trkpt>
      <trkpt lat="45.14637" lon="5.92178">
        <ele>1643.6</ele>
        <time>2012-06-16T13:08:49Z</time>
      </trkpt>
      <trkpt lat="45.1464" lon="5.92168">
        <ele>1641.3</ele>
        <time>2012-06-16T13:08:56Z</time>
      </trkpt>
      <trkpt lat="45.14643" lon="5.92157">
        <ele>1639.2</ele>
        <time>2012-06-16T13:09:03Z</time>
      </trkpt>
      <trkpt lat="45.14643" lon="5.92156">
        <ele>1639</ele>
        <time>2012-06-16T13:09:04Z</time>
      </trkpt>
      <trkpt lat="45.14653" lon="5.9214">
        <ele>1635.1</ele>
        <time>2012-06-16T13:09:15Z</time>
      </trkpt>
      <trkpt lat="45.14657" lon="5.92129">
        <ele>1635.8</ele>
        <time>2012-06-16T13:09:21Z</time>
      </trkpt>
      <trkpt lat="45.14662" lon="5.92119">
        <ele>1634.1</ele>
        <time>2012-06-16T13:09:28Z</time>
      </trkpt>
      <trkpt lat="45.14666" lon="5.9211">
        <ele>1634</ele>
        <time>2012-06-16T13:09:34Z</time>
      </trkpt>
      <trkpt lat="45.1467" lon="5.921">
        <ele>1633</ele>
        <time>2012-06-16T13:09:39Z</time>
      </trkpt>
      <trkpt lat="45.14674" lon="5.92091">
        <ele>1632.8</ele>
        <time>2012-06-16T13:09:45Z</time>
      </trkpt>
      <trkpt lat="45.1468" lon="5.92083">
        <ele>1632.1</ele>
        <time>2012-06-16T13:09:49Z</time>
      </trkpt>
      <trkpt lat="45.14687" lon="5.92075">
        <ele>1631.3</ele>
        <time>2012-06-16T13:09:53Z</time>
      </trkpt>
      <trkpt lat="45.14692" lon="5.92068">
        <ele>1630.6</ele>
        <time>2012-06-16T13:09:57Z</time>
      </trkpt>
      <trkpt lat="45.14693" lon="5.92055">
        <ele>1630.7</ele>
        <time>2012-06-16T13:10:06Z</time>
      </trkpt>
      <trkpt lat="45.14693" lon="5.92054">
        <ele>1630.8</ele>
        <time>2012-06-16T13:10:07Z</time>
      </trkpt>
      <trkpt lat="45.14698" lon="5.92033">
        <ele>1630.4</ele>
        <time>2012-06-16T13:10:30Z</time>
      </trkpt>
      <trkpt lat="45.14703" lon="5.92022">
        <ele>1629.9</ele>
        <time>2012-06-16T13:10:42Z</time>
      </trkpt>
      <trkpt lat="45.14695" lon="5.92016">
        <ele>1630.5</ele>
        <time>2012-06-16T13:10:52Z</time>
      </trkpt>
      <trkpt lat="45.14688" lon="5.92012">
        <ele>1630.7</ele>
        <time>2012-06-16T13:10:56Z</time>
      </trkpt>
      <trkpt lat="45.1468" lon="5.9201">
        <ele>1630</ele>
        <time>2012-06-16T13:11:00Z</time>
      </trkpt>
      <trkpt lat="45.14672" lon="5.92008">
        <ele>1629.4</ele>
        <time>2012-06-16T13:11:04Z</time>
      </trkpt>
      <trkpt lat="45.14665" lon="5.92006">
        <ele>1627.9</ele>
        <time>2012-06-16T13:11:07Z</time>
      </trkpt>
      <trkpt lat="45.14657" lon="5.92004">
        <ele>1627.2</ele>
        <time>2012-06-16T13:11:10Z</time>
      </trkpt>
      <trkpt lat="45.14655" lon="5.92004">
        <ele>1627.1</ele>
        <time>2012-06-16T13:11:11Z</time>
      </trkpt>
      <trkpt lat="45.14644" lon="5.92002">
        <ele>1627.3</ele>
        <time>2012-06-16T13:11:15Z</time>
      </trkpt>
      <trkpt lat="45.14637" lon="5.92003">
        <ele>1627.5</ele>
        <time>2012-06-16T13:11:17Z</time>
      </trkpt>
      <trkpt lat="45.14628" lon="5.92002">
        <ele>1627.3</ele>
        <time>2012-06-16T13:11:20Z</time>
      </trkpt>
      <trkpt lat="45.1462" lon="5.92002">
        <ele>1627.3</ele>
        <time>2012-06-16T13:11:23Z</time>
      </trkpt>
      <trkpt lat="45.14612" lon="5.92">
        <ele>1627.5</ele>
        <time>2012-06-16T13:11:27Z</time>
      </trkpt>
      <trkpt lat="45.14603" lon="5.92">
        <ele>1627.4</ele>
        <time>2012-06-16T13:11:31Z</time>
      </trkpt>
      <trkpt lat="45.14594" lon="5.92">
        <ele>1627.3</ele>
        <time>2012-06-16T13:11:36Z</time>
      </trkpt>
      <trkpt lat="45.14586" lon="5.91998">
        <ele>1628.1</ele>
        <time>2012-06-16T13:11:41Z</time>
      </trkpt>
      <trkpt lat="45.14578" lon="5.91996">
        <ele>1628.2</ele>
        <time>2012-06-16T13:11:47Z</time>
      </trkpt>
      <trkpt lat="45.1457" lon="5.91992">
        <ele>1627.3</ele>
        <time>2012-06-16T13:11:54Z</time>
      </trkpt>
      <trkpt lat="45.14562" lon="5.91987">
        <ele>1627</ele>
        <time>2012-06-16T13:12:02Z</time>
      </trkpt>
      <trkpt lat="45.14554" lon="5.91982">
        <ele>1625.4</ele>
        <time>2012-06-16T13:12:09Z</time>
      </trkpt>
      <trkpt lat="45.14547" lon="5.91975">
        <ele>1625.4</ele>
        <time>2012-06-16T13:12:18Z</time>
      </trkpt>
      <trkpt lat="45.14546" lon="5.91975">
        <ele>1625.1</ele>
        <time>2012-06-16T13:12:19Z</time>
      </trkpt>
      <trkpt lat="45.14534" lon="5.9196">
        <ele>1625.9</ele>
        <time>2012-06-16T13:12:51Z</time>
      </trkpt>
      <trkpt lat="45.14534" lon="5.91948">
        <ele>1624.9</ele>
        <time>2012-06-16T13:13:03Z</time>
      </trkpt>
      <trkpt lat="45.14538" lon="5.91937">
        <ele>1624.6</ele>
        <time>2012-06-16T13:13:12Z</time>
      </trkpt>
      <trkpt lat="45.14535" lon="5.91925">
        <ele>1624.9</ele>
        <time>2012-06-16T13:13:21Z</time>
      </trkpt>
      <trkpt lat="45.14535" lon="5.91924">
        <ele>1625.2</ele>
        <time>2012-06-16T13:13:22Z</time>
      </trkpt>
      <trkpt lat="45.14527" lon="5.91905">
        <ele>1625.8</ele>
        <time>2012-06-16T13:13:39Z</time>
      </trkpt>
      <trkpt lat="45.14523" lon="5.91894">
        <ele>1626</ele>
        <time>2012-06-16T13:13:50Z</time>
      </trkpt>
      <trkpt lat="45.14524" lon="5.91882">
        <ele>1624.4</ele>
        <time>2012-06-16T13:14:05Z</time>
      </trkpt>
      <trkpt lat="45.14526" lon="5.9187">
        <ele>1625.4</ele>
        <time>2012-06-16T13:14:15Z</time>
      </trkpt>
      <trkpt lat="45.14524" lon="5.91858">
        <ele>1624.7</ele>
        <time>2012-06-16T13:14:24Z</time>
      </trkpt>
      <trkpt lat="45.14524" lon="5.91857">
        <ele>1624.5</ele>
        <time>2012-06-16T13:14:25Z</time>
      </trkpt>
      <trkpt lat="45.14523" lon="5.91835">
        <ele>1623.8</ele>
        <time>2012-06-16T13:14:38Z</time>
      </trkpt>
      <trkpt lat="45.14526" lon="5.91823">
        <ele>1622.7</ele>
        <time>2012-06-16T13:14:45Z</time>
      </trkpt>
      <trkpt lat="45.14528" lon="5.91811">
        <ele>1621.8</ele>
        <time>2012-06-16T13:14:52Z</time>
      </trkpt>
      <trkpt lat="45.14528" lon="5.91799">
        <ele>1622</ele>
        <time>2012-06-16T13:15:00Z</time>
      </trkpt>
      <trkpt lat="45.14528" lon="5.91787">
        <ele>1622.7</ele>
        <time>2012-06-16T13:15:09Z</time>
      </trkpt>
      <trkpt lat="45.14531" lon="5.91776">
        <ele>1623.5</ele>
        <time>2012-06-16T13:15:16Z</time>
      </trkpt>
      <trkpt lat="45.14532" lon="5.91764">
        <ele>1622.8</ele>
        <time>2012-06-16T13:15:24Z</time>
      </trkpt>
      <trkpt lat="45.14535" lon="5.91753">
        <ele>1621.6</ele>
        <time>2012-06-16T13:15:34Z</time>
      </trkpt>
      <trkpt lat="45.14535" lon="5.91751">
        <ele>1621.6</ele>
        <time>2012-06-16T13:15:35Z</time>
      </trkpt>
      <trkpt lat="45.14536" lon="5.91728">
        <ele>1621.5</ele>
        <time>2012-06-16T13:15:50Z</time>
      </trkpt>
      <trkpt lat="45.14534" lon="5.91718">
        <ele>1620.6</ele>
        <time>2012-06-16T13:15:57Z</time>
      </trkpt>
      <trkpt lat="45.14535" lon="5.91706">
        <ele>1621.2</ele>
        <time>2012-06-16T13:16:04Z</time>
      </trkpt>
      <trkpt lat="45.14538" lon="5.91695">
        <ele>1621.1</ele>
        <time>2012-06-16T13:16:10Z</time>
      </trkpt>
      <trkpt lat="45.14537" lon="5.91684">
        <ele>1620.7</ele>
        <time>2012-06-16T13:16:15Z</time>
      </trkpt>
      <trkpt lat="45.14537" lon="5.91672">
        <ele>1620.4</ele>
        <time>2012-06-16T13:16:20Z</time>
      </trkpt>
      <trkpt lat="45.14535" lon="5.91662">
        <ele>1620.9</ele>
        <time>2012-06-16T13:16:26Z</time>
      </trkpt>
      <trkpt lat="45.14535" lon="5.91649">
        <ele>1620.8</ele>
        <time>2012-06-16T13:16:34Z</time>
      </trkpt>
      <trkpt lat="45.14532" lon="5.91638">
        <ele>1619.6</ele>
        <time>2012-06-16T13:16:43Z</time>
      </trkpt>
      <trkpt lat="45.14531" lon="5.91637">
        <ele>1620</ele>
        <time>2012-06-16T13:16:44Z</time>
      </trkpt>
      <trkpt lat="45.14523" lon="5.91618">
        <ele>1619.8</ele>
        <time>2012-06-16T13:17:04Z</time>
      </trkpt>
      <trkpt lat="45.14517" lon="5.91608">
        <ele>1618.4</ele>
        <time>2012-06-16T13:17:13Z</time>
      </trkpt>
      <trkpt lat="45.14513" lon="5.91598">
        <ele>1618.3</ele>
        <time>2012-06-16T13:17:24Z</time>
      </trkpt>
      <trkpt lat="45.14511" lon="5.91586">
        <ele>1613.1</ele>
        <time>2012-06-16T13:17:51Z</time>
      </trkpt>
      <trkpt lat="45.1451" lon="5.91585">
        <ele>1613.1</ele>
        <time>2012-06-16T13:17:52Z</time>
      </trkpt>
      <trkpt lat="45.14515" lon="5.91564">
        <ele>1603.9</ele>
        <time>2012-06-16T13:18:37Z</time>
      </trkpt>
      <trkpt lat="45.14517" lon="5.91552">
        <ele>1602</ele>
        <time>2012-06-16T13:18:49Z</time>
      </trkpt>
      <trkpt lat="45.14519" lon="5.9154">
        <ele>1598.4</ele>
        <time>2012-06-16T13:19:07Z</time>
      </trkpt>
      <trkpt lat="45.14519" lon="5.91539">
        <ele>1598.2</ele>
        <time>2012-06-16T13:19:08Z</time>
      </trkpt>
      <trkpt lat="45.1451" lon="5.91519">
        <ele>1595.7</ele>
        <time>2012-06-16T13:19:26Z</time>
      </trkpt>
      <trkpt lat="45.14504" lon="5.9151">
        <ele>1594.1</ele>
        <time>2012-06-16T13:19:36Z</time>
      </trkpt>
      <trkpt lat="45.14503" lon="5.91499">
        <ele>1584.8</ele>
        <time>2012-06-16T13:20:12Z</time>
      </trkpt>
      <trkpt lat="45.14502" lon="5.91497">
        <ele>1584.5</ele>
        <time>2012-06-16T13:20:13Z</time>
      </trkpt>
      <trkpt lat="45.14499" lon="5.91474">
        <ele>1580.4</ele>
        <time>2012-06-16T13:20:32Z</time>
      </trkpt>
      <trkpt lat="45.14497" lon="5.91463">
        <ele>1579.1</ele>
        <time>2012-06-16T13:20:42Z</time>
      </trkpt>
      <trkpt lat="45.14505" lon="5.91458">
        <ele>1571</ele>
        <time>2012-06-16T13:21:15Z</time>
      </trkpt>
      <trkpt lat="45.14505" lon="5.91458">
        <ele>1570.8</ele>
        <time>2012-06-16T13:21:16Z</time>
      </trkpt>
      <trkpt lat="45.14508" lon="5.91436">
        <ele>1564.9</ele>
        <time>2012-06-16T13:21:45Z</time>
      </trkpt>
      <trkpt lat="45.14506" lon="5.91425">
        <ele>1564</ele>
        <time>2012-06-16T13:21:52Z</time>
      </trkpt>
      <trkpt lat="45.14505" lon="5.91412">
        <ele>1562.1</ele>
        <time>2012-06-16T13:22:01Z</time>
      </trkpt>
      <trkpt lat="45.14502" lon="5.91401">
        <ele>1560.8</ele>
        <time>2012-06-16T13:22:11Z</time>
      </trkpt>
      <trkpt lat="45.145" lon="5.9139">
        <ele>1558.5</ele>
        <time>2012-06-16T13:22:18Z</time>
      </trkpt>
      <trkpt lat="45.145" lon="5.91388">
        <ele>1558.1</ele>
        <time>2012-06-16T13:22:19Z</time>
      </trkpt>
      <trkpt lat="45.14497" lon="5.91367">
        <ele>1554.7</ele>
        <time>2012-06-16T13:22:33Z</time>
      </trkpt>
      <trkpt lat="45.14501" lon="5.91356">
        <ele>1545.8</ele>
        <time>2012-06-16T13:23:12Z</time>
      </trkpt>
      <trkpt lat="45.14507" lon="5.91365">
        <ele>1541.5</ele>
        <time>2012-06-16T13:23:32Z</time>
      </trkpt>
      <trkpt lat="45.14508" lon="5.91365">
        <ele>1540.8</ele>
        <time>2012-06-16T13:23:33Z</time>
      </trkpt>
      <trkpt lat="45.14506" lon="5.91341">
        <ele>1534.6</ele>
        <time>2012-06-16T13:23:53Z</time>
      </trkpt>
      <trkpt lat="45.14504" lon="5.9133">
        <ele>1533</ele>
        <time>2012-06-16T13:24:02Z</time>
      </trkpt>
      <trkpt lat="45.145" lon="5.91318">
        <ele>1531</ele>
        <time>2012-06-16T13:24:12Z</time>
      </trkpt>
      <trkpt lat="45.14507" lon="5.9131">
        <ele>1524.2</ele>
        <time>2012-06-16T13:24:35Z</time>
      </trkpt>
      <trkpt lat="45.14508" lon="5.91311">
        <ele>1523.8</ele>
        <time>2012-06-16T13:24:36Z</time>
      </trkpt>
      <trkpt lat="45.14521" lon="5.91322">
        <ele>1519.3</ele>
        <time>2012-06-16T13:24:59Z</time>
      </trkpt>
      <trkpt lat="45.14525" lon="5.91333">
        <ele>1518.2</ele>
        <time>2012-06-16T13:25:05Z</time>
      </trkpt>
      <trkpt lat="45.1453" lon="5.91343">
        <ele>1517.9</ele>
        <time>2012-06-16T13:25:12Z</time>
      </trkpt>
      <trkpt lat="45.14535" lon="5.91352">
        <ele>1516.3</ele>
        <time>2012-06-16T13:25:19Z</time>
      </trkpt>
      <trkpt lat="45.1454" lon="5.91363">
        <ele>1513.9</ele>
        <time>2012-06-16T13:25:28Z</time>
      </trkpt>
      <trkpt lat="45.14547" lon="5.91368">
        <ele>1515.4</ele>
        <time>2012-06-16T13:25:37Z</time>
      </trkpt>
      <trkpt lat="45.14551" lon="5.91378">
        <ele>1515.3</ele>
        <time>2012-06-16T13:25:44Z</time>
      </trkpt>
      <trkpt lat="45.14552" lon="5.91379">
        <ele>1515.5</ele>
        <time>2012-06-16T13:25:45Z</time>
      </trkpt>
      <trkpt lat="45.1456" lon="5.91398">
        <ele>1517.3</ele>
        <time>2012-06-16T13:26:02Z</time>
      </trkpt>
      <trkpt lat="45.14563" lon="5.91409">
        <ele>1516.8</ele>
        <time>2012-06-16T13:26:11Z</time>
      </trkpt>
      <trkpt lat="45.14565" lon="5.91421">
        <ele>1514.6</ele>
        <time>2012-06-16T13:26:19Z</time>
      </trkpt>
      <trkpt lat="45.14571" lon="5.9143">
        <ele>1513</ele>
        <time>2012-06-16T13:26:30Z</time>
      </trkpt>
      <trkpt lat="45.14579" lon="5.91435">
        <ele>1513.6</ele>
        <time>2012-06-16T13:26:41Z</time>
      </trkpt>
      <trkpt lat="45.14587" lon="5.91437">
        <ele>1513.6</ele>
        <time>2012-06-16T13:26:50Z</time>
      </trkpt>
      <trkpt lat="45.14589" lon="5.91437">
        <ele>1513.8</ele>
        <time>2012-06-16T13:26:51Z</time>
      </trkpt>
      <trkpt lat="45.14594" lon="5.9142">
        <ele>1510.3</ele>
        <time>2012-06-16T13:27:15Z</time>
      </trkpt>
      <trkpt lat="45.1459" lon="5.9141">
        <ele>1509</ele>
        <time>2012-06-16T13:27:23Z</time>
      </trkpt>
      <trkpt lat="45.14584" lon="5.91402">
        <ele>1508.3</ele>
        <time>2012-06-16T13:27:31Z</time>
      </trkpt>
      <trkpt lat="45.14578" lon="5.91394">
        <ele>1505.1</ele>
        <time>2012-06-16T13:27:41Z</time>
      </trkpt>
      <trkpt lat="45.14573" lon="5.91384">
        <ele>1502.7</ele>
        <time>2012-06-16T13:27:51Z</time>
      </trkpt>
      <trkpt lat="45.1457" lon="5.91373">
        <ele>1499.5</ele>
        <time>2012-06-16T13:28:02Z</time>
      </trkpt>
      <trkpt lat="45.14569" lon="5.91372">
        <ele>1499.5</ele>
        <time>2012-06-16T13:28:03Z</time>
      </trkpt>
      <trkpt lat="45.14561" lon="5.91352">
        <ele>1495.7</ele>
        <time>2012-06-16T13:28:25Z</time>
      </trkpt>
      <trkpt lat="45.14558" lon="5.91341">
        <ele>1494.1</ele>
        <time>2012-06-16T13:28:34Z</time>
      </trkpt>
      <trkpt lat="45.14556" lon="5.9133">
        <ele>1491.6</ele>
        <time>2012-06-16T13:28:44Z</time>
      </trkpt>
      <trkpt lat="45.14552" lon="5.91319">
        <ele>1489.1</ele>
        <time>2012-06-16T13:28:52Z</time>
      </trkpt>
      <trkpt lat="45.1455" lon="5.91307">
        <ele>1487.4</ele>
        <time>2012-06-16T13:28:59Z</time>
      </trkpt>
      <trkpt lat="45.14549" lon="5.91296">
        <ele>1485.6</ele>
        <time>2012-06-16T13:29:08Z</time>
      </trkpt>
      <trkpt lat="45.14549" lon="5.91294">
        <ele>1485.4</ele>
        <time>2012-06-16T13:29:09Z</time>
      </trkpt>
      <trkpt lat="45.14545" lon="5.91272">
        <ele>1482</ele>
        <time>2012-06-16T13:29:25Z</time>
      </trkpt>
      <trkpt lat="45.14543" lon="5.9126">
        <ele>1480</ele>
        <time>2012-06-16T13:29:32Z</time>
      </trkpt>
      <trkpt lat="45.14541" lon="5.91249">
        <ele>1476.9</ele>
        <time>2012-06-16T13:29:43Z</time>
      </trkpt>
      <trkpt lat="45.14542" lon="5.91238">
        <ele>1475.2</ele>
        <time>2012-06-16T13:29:52Z</time>
      </trkpt>
      <trkpt lat="45.14541" lon="5.91225">
        <ele>1473.1</ele>
        <time>2012-06-16T13:30:00Z</time>
      </trkpt>
      <trkpt lat="45.14539" lon="5.91213">
        <ele>1470.9</ele>
        <time>2012-06-16T13:30:09Z</time>
      </trkpt>
      <trkpt lat="45.14535" lon="5.91202">
        <ele>1469.5</ele>
        <time>2012-06-16T13:30:17Z</time>
      </trkpt>
      <trkpt lat="45.14535" lon="5.91201">
        <ele>1469.2</ele>
        <time>2012-06-16T13:30:18Z</time>
      </trkpt>
      <trkpt lat="45.14525" lon="5.91183">
        <ele>1465.8</ele>
        <time>2012-06-16T13:30:35Z</time>
      </trkpt>
      <trkpt lat="45.1452" lon="5.91173">
        <ele>1464</ele>
        <time>2012-06-16T13:30:44Z</time>
      </trkpt>
      <trkpt lat="45.14513" lon="5.91165">
        <ele>1461.9</ele>
        <time>2012-06-16T13:30:52Z</time>
      </trkpt>
      <trkpt lat="45.14504" lon="5.91162">
        <ele>1460.9</ele>
        <time>2012-06-16T13:31:02Z</time>
      </trkpt>
      <trkpt lat="45.14496" lon="5.9116">
        <ele>1459.8</ele>
        <time>2012-06-16T13:31:10Z</time>
      </trkpt>
      <trkpt lat="45.14487" lon="5.9116">
        <ele>1458</ele>
        <time>2012-06-16T13:31:19Z</time>
      </trkpt>
      <trkpt lat="45.14486" lon="5.9116">
        <ele>1458</ele>
        <time>2012-06-16T13:31:20Z</time>
      </trkpt>
      <trkpt lat="45.14472" lon="5.9115">
        <ele>1457</ele>
        <time>2012-06-16T13:31:47Z</time>
      </trkpt>
      <trkpt lat="45.1447" lon="5.91138">
        <ele>1454.5</ele>
        <time>2012-06-16T13:32:05Z</time>
      </trkpt>
      <trkpt lat="45.14471" lon="5.91126">
        <ele>1453</ele>
        <time>2012-06-16T13:32:15Z</time>
      </trkpt>
      <trkpt lat="45.14474" lon="5.91115">
        <ele>1451.8</ele>
        <time>2012-06-16T13:32:25Z</time>
      </trkpt>
      <trkpt lat="45.14474" lon="5.91114">
        <ele>1451.7</ele>
        <time>2012-06-16T13:32:26Z</time>
      </trkpt>
      <trkpt lat="45.14478" lon="5.91092">
        <ele>1448</ele>
        <time>2012-06-16T13:32:41Z</time>
      </trkpt>
      <trkpt lat="45.14481" lon="5.91081">
        <ele>1445.3</ele>
        <time>2012-06-16T13:32:51Z</time>
      </trkpt>
      <trkpt lat="45.14483" lon="5.91069">
        <ele>1443</ele>
        <time>2012-06-16T13:33:00Z</time>
      </trkpt>
      <trkpt lat="45.14485" lon="5.91058">
        <ele>1440.5</ele>
        <time>2012-06-16T13:33:09Z</time>
      </trkpt>
      <trkpt lat="45.14484" lon="5.91045">
        <ele>1438.1</ele>
        <time>2012-06-16T13:33:18Z</time>
      </trkpt>
      <trkpt lat="45.14483" lon="5.91034">
        <ele>1436</ele>
        <time>2012-06-16T13:33:26Z</time>
      </trkpt>
      <trkpt lat="45.1448" lon="5.91022">
        <ele>1434.9</ele>
        <time>2012-06-16T13:33:34Z</time>
      </trkpt>
      <trkpt lat="45.1448" lon="5.91021">
        <ele>1434.6</ele>
        <time>2012-06-16T13:33:35Z</time>
      </trkpt>
      <trkpt lat="45.14473" lon="5.91001">
        <ele>1430.6</ele>
        <time>2012-06-16T13:33:51Z</time>
      </trkpt>
      <trkpt lat="45.14469" lon="5.9099">
        <ele>1427.4</ele>
        <time>2012-06-16T13:34:02Z</time>
      </trkpt>
      <trkpt lat="45.14466" lon="5.9098">
        <ele>1425.7</ele>
        <time>2012-06-16T13:34:10Z</time>
      </trkpt>
      <trkpt lat="45.1446" lon="5.9097">
        <ele>1423.1</ele>
        <time>2012-06-16T13:34:22Z</time>
      </trkpt>
      <trkpt lat="45.14456" lon="5.90959">
        <ele>1420.6</ele>
        <time>2012-06-16T13:34:31Z</time>
      </trkpt>
      <trkpt lat="45.1445" lon="5.90951">
        <ele>1418</ele>
        <time>2012-06-16T13:34:40Z</time>
      </trkpt>
      <trkpt lat="45.1445" lon="5.9095">
        <ele>1417.9</ele>
        <time>2012-06-16T13:34:41Z</time>
      </trkpt>
      <trkpt lat="45.14436" lon="5.90936">
        <ele>1416.3</ele>
        <time>2012-06-16T13:35:01Z</time>
      </trkpt>
      <trkpt lat="45.1443" lon="5.90929">
        <ele>1416.7</ele>
        <time>2012-06-16T13:35:07Z</time>
      </trkpt>
      <trkpt lat="45.14424" lon="5.90922">
        <ele>1415.5</ele>
        <time>2012-06-16T13:35:12Z</time>
      </trkpt>
      <trkpt lat="45.14418" lon="5.90913">
        <ele>1415.9</ele>
        <time>2012-06-16T13:35:19Z</time>
      </trkpt>
      <trkpt lat="45.14418" lon="5.909">
        <ele>1416.9</ele>
        <time>2012-06-16T13:35:27Z</time>
      </trkpt>
      <trkpt lat="45.14412" lon="5.90891">
        <ele>1417.2</ele>
        <time>2012-06-16T13:35:38Z</time>
      </trkpt>
      <trkpt lat="45.14406" lon="5.90884">
        <ele>1417.1</ele>
        <time>2012-06-16T13:35:47Z</time>
      </trkpt>
      <trkpt lat="45.14405" lon="5.90882">
        <ele>1417.1</ele>
        <time>2012-06-16T13:35:48Z</time>
      </trkpt>
      <trkpt lat="45.14402" lon="5.9086">
        <ele>1421.7</ele>
        <time>2012-06-16T13:36:25Z</time>
      </trkpt>
      <trkpt lat="45.14401" lon="5.90848">
        <ele>1423.2</ele>
        <time>2012-06-16T13:36:34Z</time>
      </trkpt>
      <trkpt lat="45.144" lon="5.90835">
        <ele>1422.2</ele>
        <time>2012-06-16T13:36:45Z</time>
      </trkpt>
      <trkpt lat="45.14401" lon="5.90823">
        <ele>1420.1</ele>
        <time>2012-06-16T13:36:56Z</time>
      </trkpt>
      <trkpt lat="45.14401" lon="5.90822">
        <ele>1419.6</ele>
        <time>2012-06-16T13:36:57Z</time>
      </trkpt>
      <trkpt lat="45.144" lon="5.90799">
        <ele>1414.4</ele>
        <time>2012-06-16T13:37:16Z</time>
      </trkpt>
      <trkpt lat="45.14398" lon="5.90786">
        <ele>1412.4</ele>
        <time>2012-06-16T13:37:25Z</time>
      </trkpt>
      <trkpt lat="45.14398" lon="5.90775">
        <ele>1409.5</ele>
        <time>2012-06-16T13:37:37Z</time>
      </trkpt>
      <trkpt lat="45.14395" lon="5.90763">
        <ele>1407.1</ele>
        <time>2012-06-16T13:37:49Z</time>
      </trkpt>
      <trkpt lat="45.14396" lon="5.90751">
        <ele>1405.6</ele>
        <time>2012-06-16T13:38:04Z</time>
      </trkpt>
      <trkpt lat="45.14396" lon="5.9075">
        <ele>1405.1</ele>
        <time>2012-06-16T13:38:05Z</time>
      </trkpt>
      <trkpt lat="45.14395" lon="5.90727">
        <ele>1399.6</ele>
        <time>2012-06-16T13:38:29Z</time>
      </trkpt>
      <trkpt lat="45.14394" lon="5.90714">
        <ele>1396.2</ele>
        <time>2012-06-16T13:38:43Z</time>
      </trkpt>
      <trkpt lat="45.14402" lon="5.90718">
        <ele>1390.8</ele>
        <time>2012-06-16T13:39:06Z</time>
      </trkpt>
      <trkpt lat="45.14409" lon="5.90725">
        <ele>1388.2</ele>
        <time>2012-06-16T13:39:13Z</time>
      </trkpt>
      <trkpt lat="45.1441" lon="5.90726">
        <ele>1387.9</ele>
        <time>2012-06-16T13:39:14Z</time>
      </trkpt>
      <trkpt lat="45.14425" lon="5.90735">
        <ele>1384.1</ele>
        <time>2012-06-16T13:39:36Z</time>
      </trkpt>
      <trkpt lat="45.14431" lon="5.90744">
        <ele>1382</ele>
        <time>2012-06-16T13:39:48Z</time>
      </trkpt>
      <trkpt lat="45.14436" lon="5.90735">
        <ele>1377.3</ele>
        <time>2012-06-16T13:40:08Z</time>
      </trkpt>
      <trkpt lat="45.14435" lon="5.90723">
        <ele>1374</ele>
        <time>2012-06-16T13:40:21Z</time>
      </trkpt>
      <trkpt lat="45.14434" lon="5.90722">
        <ele>1373.9</ele>
        <time>2012-06-16T13:40:22Z</time>
      </trkpt>
      <trkpt lat="45.14431" lon="5.90701">
        <ele>1370.3</ele>
        <time>2012-06-16T13:40:38Z</time>
      </trkpt>
      <trkpt lat="45.14431" lon="5.90689">
        <ele>1369</ele>
        <time>2012-06-16T13:40:47Z</time>
      </trkpt>
      <trkpt lat="45.14439" lon="5.90694">
        <ele>1359.3</ele>
        <time>2012-06-16T13:41:22Z</time>
      </trkpt>
      <trkpt lat="45.14447" lon="5.90698">
        <ele>1356.3</ele>
        <time>2012-06-16T13:41:33Z</time>
      </trkpt>
      <trkpt lat="45.14448" lon="5.90698">
        <ele>1356.2</ele>
        <time>2012-06-16T13:41:34Z</time>
      </trkpt>
      <trkpt lat="45.14462" lon="5.90709">
        <ele>1352.5</ele>
        <time>2012-06-16T13:41:52Z</time>
      </trkpt>
      <trkpt lat="45.14466" lon="5.9072">
        <ele>1349.4</ele>
        <time>2012-06-16T13:42:02Z</time>
      </trkpt>
      <trkpt lat="45.14472" lon="5.90711">
        <ele>1343.3</ele>
        <time>2012-06-16T13:42:26Z</time>
      </trkpt>
      <trkpt lat="45.14473" lon="5.907">
        <ele>1339.6</ele>
        <time>2012-06-16T13:42:38Z</time>
      </trkpt>
      <trkpt lat="45.14473" lon="5.90698">
        <ele>1339.5</ele>
        <time>2012-06-16T13:42:39Z</time>
      </trkpt>
      <trkpt lat="45.1447" lon="5.90676">
        <ele>1334.6</ele>
        <time>2012-06-16T13:42:57Z</time>
      </trkpt>
      <trkpt lat="45.14469" lon="5.90664">
        <ele>1332.8</ele>
        <time>2012-06-16T13:43:06Z</time>
      </trkpt>
      <trkpt lat="45.14467" lon="5.90652">
        <ele>1330.4</ele>
        <time>2012-06-16T13:43:15Z</time>
      </trkpt>
      <trkpt lat="45.14466" lon="5.90639">
        <ele>1327.6</ele>
        <time>2012-06-16T13:43:24Z</time>
      </trkpt>
      <trkpt lat="45.14467" lon="5.90627">
        <ele>1325.9</ele>
        <time>2012-06-16T13:43:34Z</time>
      </trkpt>
      <trkpt lat="45.14465" lon="5.90615">
        <ele>1323.2</ele>
        <time>2012-06-16T13:43:45Z</time>
      </trkpt>
      <trkpt lat="45.14466" lon="5.90614">
        <ele>1322.9</ele>
        <time>2012-06-16T13:43:46Z</time>
      </trkpt>
      <trkpt lat="45.14461" lon="5.90592">
        <ele>1318.2</ele>
        <time>2012-06-16T13:44:09Z</time>
      </trkpt>
      <trkpt lat="45.14461" lon="5.9058">
        <ele>1316.7</ele>
        <time>2012-06-16T13:44:17Z</time>
      </trkpt>
      <trkpt lat="45.14463" lon="5.90567">
        <ele>1314.3</ele>
        <time>2012-06-16T13:44:37Z</time>
      </trkpt>
      <trkpt lat="45.14466" lon="5.90556">
        <ele>1311.9</ele>
        <time>2012-06-16T13:44:49Z</time>
      </trkpt>
      <trkpt lat="45.14466" lon="5.90555">
        <ele>1311.8</ele>
        <time>2012-06-16T13:44:50Z</time>
      </trkpt>
      <trkpt lat="45.14468" lon="5.90532">
        <ele>1308.8</ele>
        <time>2012-06-16T13:45:13Z</time>
      </trkpt>
      <trkpt lat="45.14467" lon="5.9052">
        <ele>1308</ele>
        <time>2012-06-16T13:45:21Z</time>
      </trkpt>
      <trkpt lat="45.14464" lon="5.90508">
        <ele>1305.3</ele>
        <time>2012-06-16T13:45:30Z</time>
      </trkpt>
      <trkpt lat="45.1446" lon="5.90496">
        <ele>1303.7</ele>
        <time>2012-06-16T13:45:38Z</time>
      </trkpt>
      <trkpt lat="45.14457" lon="5.90484">
        <ele>1301.4</ele>
        <time>2012-06-16T13:45:47Z</time>
      </trkpt>
      <trkpt lat="45.14457" lon="5.90472">
        <ele>1300.5</ele>
        <time>2012-06-16T13:45:56Z</time>
      </trkpt>
      <trkpt lat="45.14456" lon="5.90471">
        <ele>1300.6</ele>
        <time>2012-06-16T13:45:57Z</time>
      </trkpt>
      <trkpt lat="45.14458" lon="5.90449">
        <ele>1296.7</ele>
        <time>2012-06-16T13:46:15Z</time>
      </trkpt>
      <trkpt lat="45.14459" lon="5.90437">
        <ele>1296.3</ele>
        <time>2012-06-16T13:46:21Z</time>
      </trkpt>
      <trkpt lat="45.14461" lon="5.90426">
        <ele>1295.1</ele>
        <time>2012-06-16T13:46:28Z</time>
      </trkpt>
      <trkpt lat="45.1446" lon="5.90414">
        <ele>1294.2</ele>
        <time>2012-06-16T13:46:35Z</time>
      </trkpt>
      <trkpt lat="45.1446" lon="5.90402">
        <ele>1292</ele>
        <time>2012-06-16T13:46:46Z</time>
      </trkpt>
      <trkpt lat="45.14465" lon="5.90392">
        <ele>1290.6</ele>
        <time>2012-06-16T13:46:55Z</time>
      </trkpt>
      <trkpt lat="45.14467" lon="5.90381">
        <ele>1289.2</ele>
        <time>2012-06-16T13:47:04Z</time>
      </trkpt>
      <trkpt lat="45.14467" lon="5.90379">
        <ele>1288.9</ele>
        <time>2012-06-16T13:47:05Z</time>
      </trkpt>
      <trkpt lat="45.14474" lon="5.90358">
        <ele>1284.3</ele>
        <time>2012-06-16T13:47:25Z</time>
      </trkpt>
      <trkpt lat="45.14478" lon="5.90347">
        <ele>1283</ele>
        <time>2012-06-16T13:47:35Z</time>
      </trkpt>
      <trkpt lat="45.14483" lon="5.90337">
        <ele>1281.4</ele>
        <time>2012-06-16T13:47:45Z</time>
      </trkpt>
      <trkpt lat="45.14489" lon="5.90328">
        <ele>1279.1</ele>
        <time>2012-06-16T13:47:54Z</time>
      </trkpt>
      <trkpt lat="45.14492" lon="5.90317">
        <ele>1278</ele>
        <time>2012-06-16T13:48:02Z</time>
      </trkpt>
      <trkpt lat="45.14497" lon="5.90307">
        <ele>1276.8</ele>
        <time>2012-06-16T13:48:10Z</time>
      </trkpt>
      <trkpt lat="45.14497" lon="5.90307">
        <ele>1276.3</ele>
        <time>2012-06-16T13:48:11Z</time>
      </trkpt>
      <trkpt lat="45.14502" lon="5.90284">
        <ele>1273</ele>
        <time>2012-06-16T13:48:28Z</time>
      </trkpt>
      <trkpt lat="45.14506" lon="5.90274">
        <ele>1271</ele>
        <time>2012-06-16T13:48:36Z</time>
      </trkpt>
      <trkpt lat="45.14509" lon="5.90263">
        <ele>1269</ele>
        <time>2012-06-16T13:48:44Z</time>
      </trkpt>
      <trkpt lat="45.14511" lon="5.90251">
        <ele>1265.6</ele>
        <time>2012-06-16T13:48:55Z</time>
      </trkpt>
      <trkpt lat="45.14514" lon="5.90239">
        <ele>1264</ele>
        <time>2012-06-16T13:49:05Z</time>
      </trkpt>
      <trkpt lat="45.14521" lon="5.90231">
        <ele>1262.3</ele>
        <time>2012-06-16T13:49:14Z</time>
      </trkpt>
      <trkpt lat="45.14521" lon="5.90229">
        <ele>1262.1</ele>
        <time>2012-06-16T13:49:15Z</time>
      </trkpt>
      <trkpt lat="45.14534" lon="5.90215">
        <ele>1258.1</ele>
        <time>2012-06-16T13:49:31Z</time>
      </trkpt>
      <trkpt lat="45.14541" lon="5.90207">
        <ele>1257.5</ele>
        <time>2012-06-16T13:49:43Z</time>
      </trkpt>
      <trkpt lat="45.14546" lon="5.90198">
        <ele>1254.9</ele>
        <time>2012-06-16T13:49:51Z</time>
      </trkpt>
      <trkpt lat="45.14551" lon="5.90188">
        <ele>1254.6</ele>
        <time>2012-06-16T13:50:04Z</time>
      </trkpt>
      <trkpt lat="45.14556" lon="5.90178">
        <ele>1251.3</ele>
        <time>2012-06-16T13:50:17Z</time>
      </trkpt>
      <trkpt lat="45.14557" lon="5.90177">
        <ele>1251.1</ele>
        <time>2012-06-16T13:50:18Z</time>
      </trkpt>
      <trkpt lat="45.14559" lon="5.90161">
        <ele>1252.2</ele>
        <time>2012-06-16T13:50:37Z</time>
      </trkpt>
      <trkpt lat="45.14568" lon="5.9016">
        <ele>1253.3</ele>
        <time>2012-06-16T13:50:42Z</time>
      </trkpt>
      <trkpt lat="45.14576" lon="5.90154">
        <ele>1251.3</ele>
        <time>2012-06-16T13:50:51Z</time>
      </trkpt>
      <trkpt lat="45.14582" lon="5.90145">
        <ele>1249.6</ele>
        <time>2012-06-16T13:51:00Z</time>
      </trkpt>
      <trkpt lat="45.14587" lon="5.90135">
        <ele>1249.2</ele>
        <time>2012-06-16T13:51:08Z</time>
      </trkpt>
      <trkpt lat="45.14586" lon="5.90123">
        <ele>1248.5</ele>
        <time>2012-06-16T13:51:14Z</time>
      </trkpt>
      <trkpt lat="45.14586" lon="5.90111">
        <ele>1248.7</ele>
        <time>2012-06-16T13:51:22Z</time>
      </trkpt>
      <trkpt lat="45.14585" lon="5.90109">
        <ele>1248.2</ele>
        <time>2012-06-16T13:51:23Z</time>
      </trkpt>
      <trkpt lat="45.14591" lon="5.90089">
        <ele>1246.3</ele>
        <time>2012-06-16T13:51:35Z</time>
      </trkpt>
      <trkpt lat="45.14598" lon="5.90081">
        <ele>1245.9</ele>
        <time>2012-06-16T13:51:41Z</time>
      </trkpt>
      <trkpt lat="45.14603" lon="5.9007">
        <ele>1245.9</ele>
        <time>2012-06-16T13:51:49Z</time>
      </trkpt>
      <trkpt lat="45.14606" lon="5.9006">
        <ele>1244.7</ele>
        <time>2012-06-16T13:51:56Z</time>
      </trkpt>
      <trkpt lat="45.14609" lon="5.90048">
        <ele>1243.8</ele>
        <time>2012-06-16T13:52:02Z</time>
      </trkpt>
      <trkpt lat="45.14614" lon="5.90039">
        <ele>1243.6</ele>
        <time>2012-06-16T13:52:07Z</time>
      </trkpt>
      <trkpt lat="45.1462" lon="5.90031">
        <ele>1243.3</ele>
        <time>2012-06-16T13:52:14Z</time>
      </trkpt>
      <trkpt lat="45.14626" lon="5.90024">
        <ele>1242.1</ele>
        <time>2012-06-16T13:52:21Z</time>
      </trkpt>
      <trkpt lat="45.14633" lon="5.90018">
        <ele>1240.9</ele>
        <time>2012-06-16T13:52:27Z</time>
      </trkpt>
      <trkpt lat="45.14635" lon="5.90017">
        <ele>1240.5</ele>
        <time>2012-06-16T13:52:28Z</time>
      </trkpt>
      <trkpt lat="45.14641" lon="5.89999">
        <ele>1239.3</ele>
        <time>2012-06-16T13:52:41Z</time>
      </trkpt>
      <trkpt lat="45.14644" lon="5.89988">
        <ele>1237.9</ele>
        <time>2012-06-16T13:52:47Z</time>
      </trkpt>
      <trkpt lat="45.14649" lon="5.89979">
        <ele>1236.4</ele>
        <time>2012-06-16T13:52:53Z</time>
      </trkpt>
      <trkpt lat="45.14654" lon="5.89971">
        <ele>1234.5</ele>
        <time>2012-06-16T13:52:59Z</time>
      </trkpt>
      <trkpt lat="45.14657" lon="5.8996">
        <ele>1234.3</ele>
        <time>2012-06-16T13:53:05Z</time>
      </trkpt>
      <trkpt lat="45.14659" lon="5.89949">
        <ele>1234.1</ele>
        <time>2012-06-16T13:53:11Z</time>
      </trkpt>
      <trkpt lat="45.14663" lon="5.89938">
        <ele>1233</ele>
        <time>2012-06-16T13:53:18Z</time>
      </trkpt>
      <trkpt lat="45.14667" lon="5.89928">
        <ele>1232.7</ele>
        <time>2012-06-16T13:53:24Z</time>
      </trkpt>
      <trkpt lat="45.14671" lon="5.89917">
        <ele>1233.2</ele>
        <time>2012-06-16T13:53:31Z</time>
      </trkpt>
      <trkpt lat="45.14671" lon="5.89916">
        <ele>1232.5</ele>
        <time>2012-06-16T13:53:32Z</time>
      </trkpt>
      <trkpt lat="45.14677" lon="5.89895">
        <ele>1230.1</ele>
        <time>2012-06-16T13:53:44Z</time>
      </trkpt>
      <trkpt lat="45.14681" lon="5.89884">
        <ele>1228.9</ele>
        <time>2012-06-16T13:53:50Z</time>
      </trkpt>
      <trkpt lat="45.14685" lon="5.89873">
        <ele>1227.9</ele>
        <time>2012-06-16T13:53:56Z</time>
      </trkpt>
      <trkpt lat="45.14689" lon="5.89864">
        <ele>1227.2</ele>
        <time>2012-06-16T13:54:02Z</time>
      </trkpt>
      <trkpt lat="45.14694" lon="5.89854">
        <ele>1225.8</ele>
        <time>2012-06-16T13:54:08Z</time>
      </trkpt>
      <trkpt lat="45.14695" lon="5.89842">
        <ele>1224.9</ele>
        <time>2012-06-16T13:54:14Z</time>
      </trkpt>
      <trkpt lat="45.14701" lon="5.89837">
        <ele>1224.5</ele>
        <time>2012-06-16T13:54:19Z</time>
      </trkpt>
      <trkpt lat="45.1471" lon="5.89833">
        <ele>1224.1</ele>
        <time>2012-06-16T13:54:24Z</time>
      </trkpt>
      <trkpt lat="45.14718" lon="5.8983">
        <ele>1223.4</ele>
        <time>2012-06-16T13:54:31Z</time>
      </trkpt>
      <trkpt lat="45.14725" lon="5.89823">
        <ele>1222.8</ele>
        <time>2012-06-16T13:54:38Z</time>
      </trkpt>
      <trkpt lat="45.14725" lon="5.89821">
        <ele>1222.9</ele>
        <time>2012-06-16T13:54:39Z</time>
      </trkpt>
      <trkpt lat="45.14735" lon="5.89804">
        <ele>1220.5</ele>
        <time>2012-06-16T13:54:58Z</time>
      </trkpt>
      <trkpt lat="45.14737" lon="5.89794">
        <ele>1219.3</ele>
        <time>2012-06-16T13:55:05Z</time>
      </trkpt>
      <trkpt lat="45.14741" lon="5.89784">
        <ele>1218.4</ele>
        <time>2012-06-16T13:55:11Z</time>
      </trkpt>
      <trkpt lat="45.14748" lon="5.89777">
        <ele>1217.6</ele>
        <time>2012-06-16T13:55:17Z</time>
      </trkpt>
      <trkpt lat="45.14755" lon="5.89771">
        <ele>1215.8</ele>
        <time>2012-06-16T13:55:23Z</time>
      </trkpt>
      <trkpt lat="45.14762" lon="5.89765">
        <ele>1214.8</ele>
        <time>2012-06-16T13:55:29Z</time>
      </trkpt>
      <trkpt lat="45.1477" lon="5.89759">
        <ele>1213.4</ele>
        <time>2012-06-16T13:55:37Z</time>
      </trkpt>
      <trkpt lat="45.14776" lon="5.8975">
        <ele>1212.1</ele>
        <time>2012-06-16T13:55:44Z</time>
      </trkpt>
      <trkpt lat="45.14777" lon="5.89749">
        <ele>1212</ele>
        <time>2012-06-16T13:55:45Z</time>
      </trkpt>
      <trkpt lat="45.14789" lon="5.89737">
        <ele>1209.1</ele>
        <time>2012-06-16T13:55:58Z</time>
      </trkpt>
      <trkpt lat="45.14795" lon="5.89729">
        <ele>1207.7</ele>
        <time>2012-06-16T13:56:06Z</time>
      </trkpt>
      <trkpt lat="45.14803" lon="5.89722">
        <ele>1207.2</ele>
        <time>2012-06-16T13:56:15Z</time>
      </trkpt>
      <trkpt lat="45.1481" lon="5.89717">
        <ele>1207.2</ele>
        <time>2012-06-16T13:56:21Z</time>
      </trkpt>
      <trkpt lat="45.14819" lon="5.89713">
        <ele>1205.2</ele>
        <time>2012-06-16T13:56:27Z</time>
      </trkpt>
      <trkpt lat="45.14826" lon="5.89708">
        <ele>1204.3</ele>
        <time>2012-06-16T13:56:33Z</time>
      </trkpt>
      <trkpt lat="45.14833" lon="5.897">
        <ele>1203.6</ele>
        <time>2012-06-16T13:56:40Z</time>
      </trkpt>
      <trkpt lat="45.1484" lon="5.89694">
        <ele>1202.1</ele>
        <time>2012-06-16T13:56:46Z</time>
      </trkpt>
      <trkpt lat="45.14848" lon="5.89689">
        <ele>1200.9</ele>
        <time>2012-06-16T13:56:52Z</time>
      </trkpt>
      <trkpt lat="45.14849" lon="5.89688">
        <ele>1200.5</ele>
        <time>2012-06-16T13:56:53Z</time>
      </trkpt>
      <trkpt lat="45.14862" lon="5.89673">
        <ele>1198.4</ele>
        <time>2012-06-16T13:57:06Z</time>
      </trkpt>
      <trkpt lat="45.14866" lon="5.89662">
        <ele>1196.8</ele>
        <time>2012-06-16T13:57:14Z</time>
      </trkpt>
      <trkpt lat="45.14872" lon="5.89654">
        <ele>1197.3</ele>
        <time>2012-06-16T13:57:23Z</time>
      </trkpt>
      <trkpt lat="45.14877" lon="5.89644">
        <ele>1195.6</ele>
        <time>2012-06-16T13:57:31Z</time>
      </trkpt>
      <trkpt lat="45.14883" lon="5.89636">
        <ele>1194.5</ele>
        <time>2012-06-16T13:57:38Z</time>
      </trkpt>
      <trkpt lat="45.1489" lon="5.89629">
        <ele>1193.6</ele>
        <time>2012-06-16T13:57:45Z</time>
      </trkpt>
      <trkpt lat="45.14895" lon="5.89621">
        <ele>1192.7</ele>
        <time>2012-06-16T13:57:51Z</time>
      </trkpt>
      <trkpt lat="45.149" lon="5.89612">
        <ele>1191.5</ele>
        <time>2012-06-16T13:57:57Z</time>
      </trkpt>
      <trkpt lat="45.14901" lon="5.8961">
        <ele>1191.6</ele>
        <time>2012-06-16T13:57:58Z</time>
      </trkpt>
      <trkpt lat="45.14912" lon="5.89595">
        <ele>1191.3</ele>
        <time>2012-06-16T13:58:10Z</time>
      </trkpt>
      <trkpt lat="45.14916" lon="5.89584">
        <ele>1191.2</ele>
        <time>2012-06-16T13:58:16Z</time>
      </trkpt>
      <trkpt lat="45.1492" lon="5.89575">
        <ele>1190.5</ele>
        <time>2012-06-16T13:58:22Z</time>
      </trkpt>
      <trkpt lat="45.14923" lon="5.89564">
        <ele>1190.9</ele>
        <time>2012-06-16T13:58:29Z</time>
      </trkpt>
      <trkpt lat="45.1493" lon="5.89557">
        <ele>1190</ele>
        <time>2012-06-16T13:58:36Z</time>
      </trkpt>
      <trkpt lat="45.14936" lon="5.89549">
        <ele>1190.3</ele>
        <time>2012-06-16T13:58:42Z</time>
      </trkpt>
      <trkpt lat="45.14941" lon="5.89539">
        <ele>1190.5</ele>
        <time>2012-06-16T13:58:49Z</time>
      </trkpt>
      <trkpt lat="45.14946" lon="5.89529">
        <ele>1189</ele>
        <time>2012-06-16T13:58:56Z</time>
      </trkpt>
      <trkpt lat="45.14949" lon="5.89517">
        <ele>1188.1</ele>
        <time>2012-06-16T13:59:03Z</time>
      </trkpt>
      <trkpt lat="45.1495" lon="5.89516">
        <ele>1187.9</ele>
        <time>2012-06-16T13:59:04Z</time>
      </trkpt>
      <trkpt lat="45.14943" lon="5.89496">
        <ele>1184.3</ele>
        <time>2012-06-16T13:59:15Z</time>
      </trkpt>
      <trkpt lat="45.14938" lon="5.89486">
        <ele>1182.5</ele>
        <time>2012-06-16T13:59:23Z</time>
      </trkpt>
      <trkpt lat="45.14932" lon="5.89477">
        <ele>1180.7</ele>
        <time>2012-06-16T13:59:31Z</time>
      </trkpt>
      <trkpt lat="45.14928" lon="5.89468">
        <ele>1179.5</ele>
        <time>2012-06-16T13:59:39Z</time>
      </trkpt>
      <trkpt lat="45.14922" lon="5.89458">
        <ele>1178.4</ele>
        <time>2012-06-16T13:59:46Z</time>
      </trkpt>
      <trkpt lat="45.14916" lon="5.89452">
        <ele>1178.1</ele>
        <time>2012-06-16T13:59:51Z</time>
      </trkpt>
      <trkpt lat="45.14911" lon="5.89444">
        <ele>1177.1</ele>
        <time>2012-06-16T13:59:56Z</time>
      </trkpt>
      <trkpt lat="45.14905" lon="5.89438">
        <ele>1175.9</ele>
        <time>2012-06-16T14:00:01Z</time>
      </trkpt>
      <trkpt lat="45.14898" lon="5.89433">
        <ele>1174.3</ele>
        <time>2012-06-16T14:00:06Z</time>
      </trkpt>
      <trkpt lat="45.14896" lon="5.89432">
        <ele>1174</ele>
        <time>2012-06-16T14:00:07Z</time>
      </trkpt>
      <trkpt lat="45.14883" lon="5.89419">
        <ele>1172.3</ele>
        <time>2012-06-16T14:00:21Z</time>
      </trkpt>
      <trkpt lat="45.14876" lon="5.89411">
        <ele>1170.9</ele>
        <time>2012-06-16T14:00:29Z</time>
      </trkpt>
      <trkpt lat="45.14872" lon="5.894">
        <ele>1169.4</ele>
        <time>2012-06-16T14:00:38Z</time>
      </trkpt>
      <trkpt lat="45.14867" lon="5.89393">
        <ele>1168.6</ele>
        <time>2012-06-16T14:00:43Z</time>
      </trkpt>
      <trkpt lat="45.14862" lon="5.89383">
        <ele>1168.3</ele>
        <time>2012-06-16T14:00:48Z</time>
      </trkpt>
      <trkpt lat="45.14858" lon="5.89372">
        <ele>1167.3</ele>
        <time>2012-06-16T14:00:53Z</time>
      </trkpt>
      <trkpt lat="45.14854" lon="5.89364">
        <ele>1166.7</ele>
        <time>2012-06-16T14:00:57Z</time>
      </trkpt>
      <trkpt lat="45.14848" lon="5.89354">
        <ele>1167.5</ele>
        <time>2012-06-16T14:01:02Z</time>
      </trkpt>
      <trkpt lat="45.14843" lon="5.89344">
        <ele>1167.8</ele>
        <time>2012-06-16T14:01:07Z</time>
      </trkpt>
      <trkpt lat="45.14838" lon="5.89333">
        <ele>1168.2</ele>
        <time>2012-06-16T14:01:12Z</time>
      </trkpt>
      <trkpt lat="45.14837" lon="5.89331">
        <ele>1168.6</ele>
        <time>2012-06-16T14:01:13Z</time>
      </trkpt>
      <trkpt lat="45.1483" lon="5.89314">
        <ele>1167.3</ele>
        <time>2012-06-16T14:01:23Z</time>
      </trkpt>
      <trkpt lat="45.14822" lon="5.89302">
        <ele>1166.4</ele>
        <time>2012-06-16T14:01:31Z</time>
      </trkpt>
      <trkpt lat="45.14816" lon="5.89295">
        <ele>1165.8</ele>
        <time>2012-06-16T14:01:38Z</time>
      </trkpt>
      <trkpt lat="45.14809" lon="5.89287">
        <ele>1167</ele>
        <time>2012-06-16T14:01:46Z</time>
      </trkpt>
      <trkpt lat="45.14803" lon="5.89281">
        <ele>1166.2</ele>
        <time>2012-06-16T14:01:55Z</time>
      </trkpt>
      <trkpt lat="45.14797" lon="5.89272">
        <ele>1166.2</ele>
        <time>2012-06-16T14:02:01Z</time>
      </trkpt>
      <trkpt lat="45.14793" lon="5.89261">
        <ele>1166</ele>
        <time>2012-06-16T14:02:07Z</time>
      </trkpt>
      <trkpt lat="45.14789" lon="5.89252">
        <ele>1166.3</ele>
        <time>2012-06-16T14:02:13Z</time>
      </trkpt>
      <trkpt lat="45.14785" lon="5.89243">
        <ele>1166.5</ele>
        <time>2012-06-16T14:02:18Z</time>
      </trkpt>
      <trkpt lat="45.14784" lon="5.89242">
        <ele>1166.6</ele>
        <time>2012-06-16T14:02:19Z</time>
      </trkpt>
      <trkpt lat="45.14774" lon="5.89225">
        <ele>1165.9</ele>
        <time>2012-06-16T14:02:31Z</time>
      </trkpt>
      <trkpt lat="45.1477" lon="5.89215">
        <ele>1166</ele>
        <time>2012-06-16T14:02:36Z</time>
      </trkpt>
      <trkpt lat="45.14765" lon="5.89206">
        <ele>1165.1</ele>
        <time>2012-06-16T14:02:42Z</time>
      </trkpt>
      <trkpt lat="45.14761" lon="5.89195">
        <ele>1163.8</ele>
        <time>2012-06-16T14:02:49Z</time>
      </trkpt>
      <trkpt lat="45.14756" lon="5.89185">
        <ele>1163.6</ele>
        <time>2012-06-16T14:02:55Z</time>
      </trkpt>
      <trkpt lat="45.14755" lon="5.89173">
        <ele>1163</ele>
        <time>2012-06-16T14:03:02Z</time>
      </trkpt>
      <trkpt lat="45.14762" lon="5.89165">
        <ele>1163.4</ele>
        <time>2012-06-16T14:03:11Z</time>
      </trkpt>
      <trkpt lat="45.14769" lon="5.89161">
        <ele>1164</ele>
        <time>2012-06-16T14:03:19Z</time>
      </trkpt>
      <trkpt lat="45.14778" lon="5.89158">
        <ele>1164.9</ele>
        <time>2012-06-16T14:03:26Z</time>
      </trkpt>
      <trkpt lat="45.1478" lon="5.89157">
        <ele>1164.6</ele>
        <time>2012-06-16T14:03:27Z</time>
      </trkpt>
      <trkpt lat="45.14794" lon="5.89146">
        <ele>1166.1</ele>
        <time>2012-06-16T14:03:39Z</time>
      </trkpt>
      <trkpt lat="45.14801" lon="5.89141">
        <ele>1167.4</ele>
        <time>2012-06-16T14:03:47Z</time>
      </trkpt>
      <trkpt lat="45.14808" lon="5.89134">
        <ele>1168.9</ele>
        <time>2012-06-16T14:03:56Z</time>
      </trkpt>
      <trkpt lat="45.14816" lon="5.8913">
        <ele>1168.7</ele>
        <time>2012-06-16T14:04:02Z</time>
      </trkpt>
      <trkpt lat="45.14824" lon="5.89124">
        <ele>1170.4</ele>
        <time>2012-06-16T14:04:09Z</time>
      </trkpt>
      <trkpt lat="45.14831" lon="5.8912">
        <ele>1171.1</ele>
        <time>2012-06-16T14:04:15Z</time>
      </trkpt>
      <trkpt lat="45.14838" lon="5.89115">
        <ele>1170.9</ele>
        <time>2012-06-16T14:04:20Z</time>
      </trkpt>
      <trkpt lat="45.14846" lon="5.8911">
        <ele>1171.5</ele>
        <time>2012-06-16T14:04:26Z</time>
      </trkpt>
      <trkpt lat="45.14853" lon="5.89105">
        <ele>1170.9</ele>
        <time>2012-06-16T14:04:31Z</time>
      </trkpt>
      <trkpt lat="45.14855" lon="5.89103">
        <ele>1170.9</ele>
        <time>2012-06-16T14:04:32Z</time>
      </trkpt>
      <trkpt lat="45.14863" lon="5.89086">
        <ele>1171.8</ele>
        <time>2012-06-16T14:04:43Z</time>
      </trkpt>
      <trkpt lat="45.14872" lon="5.89083">
        <ele>1172.2</ele>
        <time>2012-06-16T14:04:48Z</time>
      </trkpt>
      <trkpt lat="45.1488" lon="5.8908">
        <ele>1172.9</ele>
        <time>2012-06-16T14:04:53Z</time>
      </trkpt>
      <trkpt lat="45.14888" lon="5.89075">
        <ele>1171.7</ele>
        <time>2012-06-16T14:05:01Z</time>
      </trkpt>
      <trkpt lat="45.14896" lon="5.89072">
        <ele>1171</ele>
        <time>2012-06-16T14:05:08Z</time>
      </trkpt>
      <trkpt lat="45.14903" lon="5.89064">
        <ele>1170.7</ele>
        <time>2012-06-16T14:05:17Z</time>
      </trkpt>
      <trkpt lat="45.14912" lon="5.89061">
        <ele>1169.5</ele>
        <time>2012-06-16T14:05:22Z</time>
      </trkpt>
      <trkpt lat="45.1492" lon="5.89057">
        <ele>1169.1</ele>
        <time>2012-06-16T14:05:27Z</time>
      </trkpt>
      <trkpt lat="45.14927" lon="5.89052">
        <ele>1168.8</ele>
        <time>2012-06-16T14:05:33Z</time>
      </trkpt>
      <trkpt lat="45.14934" lon="5.89047">
        <ele>1168.3</ele>
        <time>2012-06-16T14:05:40Z</time>
      </trkpt>
      <trkpt lat="45.14935" lon="5.89045">
        <ele>1168.5</ele>
        <time>2012-06-16T14:05:41Z</time>
      </trkpt>
      <trkpt lat="45.14948" lon="5.89032">
        <ele>1168.1</ele>
        <time>2012-06-16T14:05:52Z</time>
      </trkpt>
      <trkpt lat="45.14954" lon="5.89025">
        <ele>1167.5</ele>
        <time>2012-06-16T14:05:58Z</time>
      </trkpt>
      <trkpt lat="45.14961" lon="5.89018">
        <ele>1167.2</ele>
        <time>2012-06-16T14:06:05Z</time>
      </trkpt>
      <trkpt lat="45.14967" lon="5.89011">
        <ele>1167</ele>
        <time>2012-06-16T14:06:11Z</time>
      </trkpt>
      <trkpt lat="45.14974" lon="5.89008">
        <ele>1167.6</ele>
        <time>2012-06-16T14:06:16Z</time>
      </trkpt>
      <trkpt lat="45.14982" lon="5.89002">
        <ele>1166.9</ele>
        <time>2012-06-16T14:06:24Z</time>
      </trkpt>
      <trkpt lat="45.1499" lon="5.88997">
        <ele>1166.5</ele>
        <time>2012-06-16T14:06:31Z</time>
      </trkpt>
      <trkpt lat="45.14997" lon="5.88993">
        <ele>1167.3</ele>
        <time>2012-06-16T14:06:37Z</time>
      </trkpt>
      <trkpt lat="45.15005" lon="5.88991">
        <ele>1167.3</ele>
        <time>2012-06-16T14:06:42Z</time>
      </trkpt>
      <trkpt lat="45.15013" lon="5.88991">
        <ele>1166.6</ele>
        <time>2012-06-16T14:06:47Z</time>
      </trkpt>
      <trkpt lat="45.15015" lon="5.88991">
        <ele>1166.5</ele>
        <time>2012-06-16T14:06:48Z</time>
      </trkpt>
      <trkpt lat="45.15029" lon="5.8899">
        <ele>1166.5</ele>
        <time>2012-06-16T14:06:57Z</time>
      </trkpt>
      <trkpt lat="45.15037" lon="5.88986">
        <ele>1165.8</ele>
        <time>2012-06-16T14:07:03Z</time>
      </trkpt>
      <trkpt lat="45.15045" lon="5.88982">
        <ele>1166.1</ele>
        <time>2012-06-16T14:07:09Z</time>
      </trkpt>
      <trkpt lat="45.15053" lon="5.88978">
        <ele>1165.9</ele>
        <time>2012-06-16T14:07:14Z</time>
      </trkpt>
      <trkpt lat="45.1506" lon="5.88973">
        <ele>1165.5</ele>
        <time>2012-06-16T14:07:23Z</time>
      </trkpt>
      <trkpt lat="45.15067" lon="5.88967">
        <ele>1165.7</ele>
        <time>2012-06-16T14:07:29Z</time>
      </trkpt>
      <trkpt lat="45.15074" lon="5.88959">
        <ele>1165.2</ele>
        <time>2012-06-16T14:07:35Z</time>
      </trkpt>
      <trkpt lat="45.15079" lon="5.8895">
        <ele>1163.4</ele>
        <time>2012-06-16T14:07:42Z</time>
      </trkpt>
      <trkpt lat="45.15087" lon="5.88947">
        <ele>1163.6</ele>
        <time>2012-06-16T14:07:48Z</time>
      </trkpt>
      <trkpt lat="45.15094" lon="5.88945">
        <ele>1163.2</ele>
        <time>2012-06-16T14:07:52Z</time>
      </trkpt>
      <trkpt lat="45.15095" lon="5.88943">
        <ele>1163.3</ele>
        <time>2012-06-16T14:07:53Z</time>
      </trkpt>
      <trkpt lat="45.15109" lon="5.88933">
        <ele>1162.9</ele>
        <time>2012-06-16T14:08:03Z</time>
      </trkpt>
      <trkpt lat="45.15116" lon="5.88926">
        <ele>1162.6</ele>
        <time>2012-06-16T14:08:09Z</time>
      </trkpt>
      <trkpt lat="45.15122" lon="5.88917">
        <ele>1162.5</ele>
        <time>2012-06-16T14:08:17Z</time>
      </trkpt>
      <trkpt lat="45.1513" lon="5.88912">
        <ele>1162.4</ele>
        <time>2012-06-16T14:08:23Z</time>
      </trkpt>
      <trkpt lat="45.15137" lon="5.88905">
        <ele>1162.3</ele>
        <time>2012-06-16T14:08:30Z</time>
      </trkpt>
      <trkpt lat="45.15145" lon="5.88902">
        <ele>1162.3</ele>
        <time>2012-06-16T14:08:35Z</time>
      </trkpt>
      <trkpt lat="45.15152" lon="5.88896">
        <ele>1161.1</ele>
        <time>2012-06-16T14:08:41Z</time>
      </trkpt>
      <trkpt lat="45.15159" lon="5.88887">
        <ele>1161.5</ele>
        <time>2012-06-16T14:08:48Z</time>
      </trkpt>
      <trkpt lat="45.15164" lon="5.8888">
        <ele>1161.4</ele>
        <time>2012-06-16T14:08:53Z</time>
      </trkpt>
      <trkpt lat="45.1517" lon="5.88873">
        <ele>1160.8</ele>
        <time>2012-06-16T14:08:58Z</time>
      </trkpt>
      <trkpt lat="45.15172" lon="5.88871">
        <ele>1160.8</ele>
        <time>2012-06-16T14:08:59Z</time>
      </trkpt>
      <trkpt lat="45.15181" lon="5.88854">
        <ele>1160.2</ele>
        <time>2012-06-16T14:09:09Z</time>
      </trkpt>
      <trkpt lat="45.15186" lon="5.88844">
        <ele>1161.1</ele>
        <time>2012-06-16T14:09:15Z</time>
      </trkpt>
      <trkpt lat="45.15188" lon="5.88832">
        <ele>1160.8</ele>
        <time>2012-06-16T14:09:21Z</time>
      </trkpt>
      <trkpt lat="45.1519" lon="5.8882">
        <ele>1160.2</ele>
        <time>2012-06-16T14:09:27Z</time>
      </trkpt>
      <trkpt lat="45.1519" lon="5.88809">
        <ele>1160.1</ele>
        <time>2012-06-16T14:09:33Z</time>
      </trkpt>
      <trkpt lat="45.15187" lon="5.88799">
        <ele>1160.2</ele>
        <time>2012-06-16T14:09:38Z</time>
      </trkpt>
      <trkpt lat="45.15188" lon="5.88787">
        <ele>1160.1</ele>
        <time>2012-06-16T14:09:44Z</time>
      </trkpt>
      <trkpt lat="45.15188" lon="5.88777">
        <ele>1159.8</ele>
        <time>2012-06-16T14:09:49Z</time>
      </trkpt>
      <trkpt lat="45.15188" lon="5.88765">
        <ele>1159.4</ele>
        <time>2012-06-16T14:09:54Z</time>
      </trkpt>
      <trkpt lat="45.15189" lon="5.88753">
        <ele>1160.6</ele>
        <time>2012-06-16T14:10:00Z</time>
      </trkpt>
      <trkpt lat="45.1519" lon="5.88741">
        <ele>1160.3</ele>
        <time>2012-06-16T14:10:07Z</time>
      </trkpt>
      <trkpt lat="45.15189" lon="5.88739">
        <ele>1160.4</ele>
        <time>2012-06-16T14:10:08Z</time>
      </trkpt>
      <trkpt lat="45.15193" lon="5.8872">
        <ele>1160</ele>
        <time>2012-06-16T14:10:19Z</time>
      </trkpt>
      <trkpt lat="45.15196" lon="5.88709">
        <ele>1161.7</ele>
        <time>2012-06-16T14:10:25Z</time>
      </trkpt>
      <trkpt lat="45.15198" lon="5.88699">
        <ele>1161.4</ele>
        <time>2012-06-16T14:10:30Z</time>
      </trkpt>
      <trkpt lat="45.15202" lon="5.88692">
        <ele>1162.2</ele>
        <time>2012-06-16T14:10:42Z</time>
      </trkpt>
      <trkpt lat="45.15202" lon="5.88692">
        <ele>1162.2</ele>
        <time>2012-06-16T14:10:42Z</time>
      </trkpt>
    </trkseg>
  </trk>
</gpx>